[[{"header":{"parameterUnit":"m.s-1","parameterCategory":1,"la1":31.0,"la2":29.5877,"lo1":-88.7671,"lo2":-86.6584,"dx":0.0162,"dy":0.0185,"nx":115,"ny":88,"refTime":"2022-11-28T18:00:00:Z","depth":0,"parameterNumber":2,"parameterNumberName":"U-component_of_WINDS"},"data":[0.0,0.0,0.0,0.0,0.0,0.0,0.0,0.0,0.0,0.0,0.0,0.0,0.0,0.0,0.0,0.0,0.0,0.0,0.0,0.0,0.0,0.0,0.0,0.0,0.0,0.0,0.0,0.0,0.0,0.0,0.0,0.0,0.0,0.0,0.0,0.0,0.0,0.0,0.0,0.0,0.0,0.0,0.0,0.0,0.0,0.0,0.0,0.0,0.0,0.0,0.0,0.0,0.0,0.0,0.0,0.0,0.0,0.0,0.0,0.0,0.0,0.0,0.0,0.0,0.0,0.0,0.0,0.0,0.0,0.0,0.0,0.0,0.0,0.0,0.0,0.0,0.0,0.0,0.0,0.0,0.0,0.0,0.0,0.0,0.0,0.0,0.0,0.0,0.0,0.0,0.0,0.0,0.0,0.0,0.0,0.0,0.0,0.0,0.0,0.0,0.0,0.0,0.0,0.0,0.0,0.0,0.0,0.0,0.0,0.0,0.0,0.0,0.0,0.0,0.0,0.0,0.0,0.0,0.0,0.0,0.0,0.0,0.0,0.0,0.0,0.0,0.0,0.0,0.0,0.0,0.0,0.0,0.0,0.0,0.0,0.0,0.0,0.0,0.0,0.0,0.0,0.0,0.0,0.0,0.0,0.0,0.0,0.0,0.0,0.0,0.0,0.0,0.0,0.0,0.0,0.0,0.0,0.0,0.0,0.0,0.0,0.0,0.0,0.0,0.0,0.0,0.0,0.0,0.0,0.0,0.0,0.0,0.0,0.0,0.0,0.0,0.0,0.0,0.0,0.0,0.0,0.0,0.0,0.0,0.0,0.0,0.0,0.0,0.0,0.0,0.0,0.0,0.0,0.0,0.0,0.0,0.0,0.0,0.0,0.0,0.0,0.0,0.0,0.0,0.0,0.0,0.0,0.0,0.0,0.0,0.0,0.0,0.0,0.0,0.0,0.0,0.0,0.0,0.0,0.0,0.0,0.0,0.0,0.0,0.0,0.0,0.0,0.0,0.0,0.0,0.0,0.0,0.0,0.0,0.0,0.0,0.0,0.0,0.0,0.0,0.0,0.0,0.0,0.0,0.0,0.0,0.0,0.0,0.0,0.0,0.0,0.0,0.0,0.0,0.0,0.0,0.0,0.0,0.0,0.0,0.0,0.0,0.0,0.0,0.0,0.0,0.0,0.0,0.0,0.0,0.0,0.0,0.0,0.0,0.0,0.0,0.0,0.0,0.0,0.0,0.0,0.0,0.0,0.0,0.0,0.0,0.0,0.0,0.0,0.0,0.0,0.0,0.0,0.0,0.0,0.0,0.0,0.0,0.0,0.0,0.0,0.0,0.0,0.0,0.0,0.0,0.0,0.0,0.0,0.0,0.0,0.0,0.0,0.0,0.0,0.0,0.0,0.0,0.0,0.0,0.0,0.0,0.0,0.0,0.0,0.0,0.0,0.0,0.0,0.0,0.0,0.0,0.0,0.0,0.0,0.0,0.0,0.0,0.0,0.0,0.0,0.0,0.0,0.0,0.0,0.0,0.0,0.0,0.0,0.0,0.0,0.0,0.0,0.0,0.0,0.0,0.0,0.0,0.0,0.0,0.0,0.0,0.0,0.0,0.0,0.0,0.0,0.0,0.0,0.0,0.0,0.0,0.0,0.0,0.0,0.0,0.0,0.0,0.0,0.0,0.0,0.0,0.0,0.0,0.0,0.0,0.0,0.0,0.0,0.0,0.0,0.0,0.0,0.0,0.0,0.0,0.0,0.0,0.0,0.0,0.0,0.0,0.0,0.0,0.0,0.0,0.0,0.0,0.0,0.0,0.0,0.0,0.0,0.0,0.0,0.0,0.0,0.0,0.0,0.0,0.0,0.0,0.0,0.0,0.0,0.0,0.0,0.0,0.0,0.0,0.0,0.0,0.0,0.0,0.0,0.0,0.0,0.0,0.0,0.0,0.0,0.0,0.0,0.0,0.0,0.0,0.0,0.0,0.0,0.0,0.0,0.0,0.0,0.0,0.0,0.0,0.0,0.0,0.0,0.0,0.0,0.0,0.0,0.0,0.0,0.0,0.0,0.0,0.0,0.0,0.0,0.0,0.0,0.0,0.0,0.0,0.0,0.0,0.0,0.0,0.0,0.0,0.0,0.0,0.0,0.0,0.0,0.0,0.0,0.0,0.0,0.0,0.0,0.0,0.0,0.0,0.0,0.0,0.0,0.0,0.0,0.0,0.0,0.0,0.0,0.0,0.0,0.0,0.0,0.0,0.0,0.0,0.0,0.0,0.0,0.0,0.0,0.0,0.0,0.0,0.0,0.0,0.0,0.0,0.0,0.0,0.0,0.0,0.0,0.0,0.0,0.0,0.0,0.0,0.0,0.0,0.0,0.0,0.0,0.0,0.0,0.0,0.0,0.0,0.0,0.0,0.0,0.0,0.0,0.0,0.0,0.0,0.0,0.0,0.0,0.0,0.0,0.0,0.0,0.0,0.0,0.0,0.0,0.0,0.0,0.0,0.0,0.0,0.0,0.0,0.0,0.0,0.0,0.0,0.0,0.0,0.0,0.0,0.0,0.0,0.0,0.0,0.0,0.0,0.0,0.0,0.0,0.0,0.0,0.0,0.0,0.0,0.0,0.0,0.0,0.0,0.0,0.0,0.0,0.0,0.0,0.0,0.0,0.0,0.0,0.0,0.0,0.0,0.0,0.0,0.0,0.0,0.0,0.0,0.0,0.0,0.0,0.0,0.0,0.0,0.0,0.0,0.0,0.0,0.0,0.0,0.0,0.0,0.0,0.0,0.0,0.0,0.0,0.0,0.0,0.0,0.0,0.0,0.0,0.0,0.0,0.0,0.0,0.0,0.0,0.0,0.0,0.0,0.0,0.0,0.0,0.0,0.0,0.0,0.0,0.0,0.0,0.0,0.0,0.0,0.0,0.0,0.0,0.0,0.0,0.0,0.0,0.0,0.0,0.0,0.0,0.0,0.0,0.0,0.0,0.0,0.0,0.0,0.0,0.0,0.0,0.0,0.0,0.0,0.0,0.0,0.0,0.0,0.0,0.0,0.0,0.0,0.0,0.0,0.0,0.0,0.0,0.0,0.0,0.0,0.0,0.0,0.0,0.0,0.0,0.0,0.0,0.0,0.0,0.0,0.0,0.0,0.0,0.0,0.0,0.0,0.0,0.0,0.0,0.0,0.0,0.0,0.0,0.0,0.0,0.0,0.0,0.0,0.0,0.0,0.0,0.0,0.0,0.0,0.0,0.0,0.0,0.0,0.0,0.0,0.0,0.0,0.0,0.0,0.0,0.0,0.0,0.0,0.0,0.0,0.0,0.0,0.0,0.0,0.0,0.0,0.0,0.0,0.0,0.0,0.0,0.0,0.0,0.0,0.0,0.0,0.0,0.0,0.0,0.0,0.0,0.0,0.0,0.0,0.0,0.0,0.0,0.0,0.0,0.0,0.0,0.0,0.0,0.0,0.0,0.0,0.0,0.0,0.0,0.0,0.0,0.0,0.0,0.0,0.0,0.0,0.0,0.0,0.0,0.0,0.0,0.0,0.0,0.0,0.0,0.0,0.0,0.0,0.0,0.0,0.0,0.0,0.0,0.0,0.0,0.0,0.0,0.0,0.0,0.0,0.0,0.0,0.0,0.0,0.0,0.0,0.0,0.0,0.0,0.0,0.0,0.0,0.0,0.0,0.0,0.0,0.0,0.0,0.0,0.0,0.0,0.0,0.0,0.0,0.0,0.0,0.0,0.0,0.0,0.0,0.0,0.0,0.0,0.0,0.0,0.0,0.0,0.0,0.0,0.0,0.0,0.0,0.0,0.0,0.0,0.0,0.0,0.0,0.0,0.0,0.0,0.0,0.0,0.0,0.0,0.0,0.0,0.0,0.0,0.0,0.0,0.0,0.0,0.0,0.0,0.0,0.0,0.0,0.0,0.0,0.0,0.0,0.0,0.0,0.0,0.0,0.0,0.0,0.0,0.0,0.0,0.0,0.0,0.0,0.0,0.0,0.0,0.0,0.0,0.0,0.0,0.0,0.0,0.0,0.0,0.0,0.0,0.0,0.0,0.0,0.0,0.0,0.0,0.0,0.0,0.0,0.0,0.0,0.0,0.0,0.0,0.0,0.0,0.0,0.0,0.0,0.0,0.0,0.0,0.0,0.0,0.0,0.0,0.0,0.0,0.0,0.0,0.0,0.0,0.0,0.0,0.0,0.0,0.0,0.0,0.0,0.0,0.0,0.0,0.0,0.0,0.0,5.3398,0.0,0.0,0.0,5.1641,0.0,0.0,0.0,0.0,0.0,0.0,0.0,0.0,0.0,0.0,0.0,0.0,0.0,0.0,0.0,0.0,0.0,0.0,0.0,0.0,0.0,0.0,0.0,0.0,0.0,0.0,0.0,0.0,0.0,0.0,0.0,0.0,0.0,0.0,0.0,0.0,0.0,0.0,0.0,0.0,0.0,0.0,0.0,0.0,0.0,0.0,0.0,0.0,0.0,0.0,0.0,0.0,0.0,0.0,0.0,0.0,0.0,0.0,0.0,0.0,0.0,0.0,0.0,0.0,0.0,0.0,0.0,0.0,0.0,0.0,0.0,0.0,0.0,0.0,0.0,0.0,0.0,0.0,0.0,0.0,0.0,0.0,0.0,0.0,0.0,0.0,0.0,0.0,0.0,0.0,0.0,0.0,0.0,0.0,0.0,0.0,0.0,0.0,0.0,0.0,0.0,0.0,0.0,0.0,0.0,0.0,0.0,0.0,0.0,0.0,5.2891,5.2031,5.293,5.2773,5.1484,0.0,0.0,0.0,0.0,0.0,0.0,0.0,0.0,0.0,0.0,0.0,0.0,0.0,0.0,0.0,0.0,0.0,0.0,0.0,0.0,0.0,0.0,0.0,0.0,0.0,0.0,0.0,0.0,0.0,0.0,0.0,0.0,0.0,0.0,0.0,0.0,0.0,0.0,0.0,0.0,0.0,0.0,0.0,0.0,0.0,0.0,0.0,0.0,0.0,0.0,0.0,0.0,0.0,0.0,0.0,0.0,0.0,0.0,0.0,0.0,0.0,0.0,0.0,0.0,0.0,0.0,0.0,0.0,0.0,0.0,0.0,0.0,0.0,0.0,0.0,0.0,0.0,0.0,0.0,0.0,0.0,0.0,0.0,0.0,0.0,0.0,0.0,0.0,0.0,0.0,0.0,0.0,0.0,0.0,0.0,0.0,0.0,0.0,0.0,0.0,0.0,0.0,0.0,0.0,0.0,0.0,0.0,0.0,0.0,0.0,0.0,0.0,5.3867,5.3867,5.2383,0.0,0.0,0.0,0.0,0.0,0.0,0.0,0.0,0.0,0.0,0.0,0.0,0.0,0.0,0.0,0.0,0.0,0.0,0.0,0.0,0.0,0.0,0.0,0.0,0.0,0.0,0.0,0.0,0.0,0.0,0.0,0.0,0.0,0.0,0.0,0.0,0.0,0.0,0.0,0.0,0.0,0.0,0.0,0.0,0.0,0.0,0.0,0.0,0.0,0.0,0.0,0.0,0.0,0.0,0.0,0.0,0.0,0.0,0.0,0.0,0.0,0.0,0.0,0.0,0.0,0.0,0.0,0.0,0.0,0.0,0.0,0.0,0.0,0.0,0.0,0.0,0.0,0.0,0.0,0.0,0.0,0.0,0.0,0.0,0.0,0.0,0.0,0.0,0.0,0.0,0.0,0.0,0.0,0.0,0.0,0.0,0.0,0.0,0.0,0.0,0.0,0.0,0.0,0.0,0.0,0.0,0.0,0.0,0.0,0.0,5.3789,5.6055,5.625,0.0,5.5,0.0,0.0,0.0,0.0,0.0,0.0,0.0,0.0,0.0,0.0,0.0,0.0,0.0,0.0,0.0,0.0,0.0,0.0,0.0,0.0,0.0,0.0,0.0,0.0,0.0,0.0,0.0,0.0,0.0,0.0,0.0,0.0,0.0,0.0,0.0,0.0,0.0,0.0,0.0,0.0,0.0,0.0,0.0,0.0,0.0,0.0,0.0,0.0,0.0,0.0,0.0,0.0,0.0,0.0,0.0,0.0,0.0,0.0,0.0,0.0,0.0,0.0,0.0,0.0,0.0,0.0,0.0,0.0,0.0,0.0,0.0,0.0,0.0,0.0,0.0,0.0,0.0,0.0,0.0,0.0,0.0,0.0,0.0,0.0,0.0,0.0,0.0,0.0,0.0,0.0,0.0,0.0,0.0,0.0,0.0,0.0,0.0,0.0,0.0,0.0,0.0,0.0,0.0,0.0,0.0,0.0,0.0,0.0,0.0,0.0,5.4765,5.582,5.582,5.5664,0.0,0.0,0.0,0.0,0.0,0.0,0.0,0.0,0.0,0.0,0.0,0.0,0.0,0.0,0.0,0.0,0.0,0.0,0.0,0.0,0.0,0.0,0.0,0.0,0.0,0.0,0.0,0.0,0.0,0.0,0.0,0.0,0.0,0.0,0.0,0.0,0.0,0.0,0.0,0.0,0.0,0.0,0.0,0.0,0.0,0.0,0.0,0.0,0.0,0.0,0.0,0.0,0.0,0.0,0.0,0.0,0.0,0.0,0.0,0.0,0.0,0.0,0.0,0.0,0.0,0.0,0.0,0.0,0.0,0.0,0.0,0.0,0.0,0.0,0.0,0.0,0.0,0.0,0.0,0.0,0.0,0.0,0.0,0.0,0.0,0.0,0.0,0.0,0.0,0.0,0.0,0.0,0.0,0.0,0.0,0.0,0.0,0.0,0.0,0.0,0.0,0.0,0.0,0.0,0.0,0.0,0.0,0.0,0.0,0.0,5.5937,5.6367,5.6992,5.6836,5.6289,5.5351,0.0,0.0,0.0,0.0,0.0,0.0,0.0,0.0,0.0,0.0,0.0,0.0,0.0,0.0,0.0,0.0,0.0,0.0,0.0,0.0,0.0,0.0,0.0,0.0,0.0,0.0,0.0,0.0,0.0,0.0,0.0,0.0,0.0,0.0,0.0,0.0,0.0,0.0,0.0,0.0,0.0,0.0,0.0,0.0,0.0,0.0,0.0,0.0,0.0,0.0,0.0,0.0,0.0,0.0,0.0,0.0,0.0,0.0,0.0,0.0,0.0,0.0,0.0,0.0,0.0,0.0,0.0,0.0,0.0,0.0,0.0,0.0,0.0,0.0,0.0,0.0,0.0,0.0,0.0,0.0,0.0,0.0,0.0,0.0,0.0,0.0,0.0,0.0,0.0,0.0,0.0,0.0,0.0,0.0,0.0,0.0,0.0,0.0,0.0,0.0,0.0,0.0,0.0,0.0,0.0,0.0,0.0,0.0,5.9726,5.8476,5.8945,6.125,6.0586,5.8672,0.0,0.0,0.0,0.0,0.0,0.0,0.0,0.0,0.0,0.0,0.0,0.0,0.0,0.0,0.0,0.0,0.0,0.0,0.0,0.0,0.0,0.0,0.0,0.0,0.0,0.0,0.0,0.0,0.0,0.0,0.0,0.0,0.0,0.0,0.0,0.0,0.0,0.0,0.0,0.0,0.0,0.0,0.0,0.0,0.0,0.0,0.0,0.0,0.0,0.0,0.0,0.0,0.0,0.0,0.0,0.0,0.0,0.0,0.0,0.0,0.0,0.0,0.0,0.0,0.0,0.0,0.0,0.0,0.0,0.0,0.0,0.0,0.0,0.0,0.0,0.0,0.0,0.0,0.0,0.0,0.0,0.0,0.0,0.0,0.0,0.0,0.0,0.0,0.0,0.0,0.0,0.0,0.0,0.0,0.0,0.0,0.0,0.0,0.0,0.0,0.0,0.0,0.0,0.0,0.0,0.0,0.0,0.0,0.0,5.543,5.6523,5.9375,6.3828,6.0703,5.8711,0.0,0.0,0.0,0.0,0.0,0.0,0.0,0.0,0.0,0.0,0.0,0.0,0.0,0.0,0.0,0.0,0.0,0.0,0.0,0.0,0.0,0.0,0.0,0.0,0.0,0.0,0.0,0.0,0.0,0.0,0.0,0.0,0.0,0.0,0.0,0.0,0.0,0.0,0.0,0.0,0.0,0.0,0.0,0.0,0.0,0.0,0.0,0.0,0.0,0.0,0.0,0.0,0.0,0.0,0.0,0.0,0.0,0.0,0.0,0.0,0.0,0.0,0.0,0.0,0.0,0.0,0.0,0.0,0.0,0.0,0.0,0.0,0.0,0.0,0.0,0.0,0.0,0.0,0.0,0.0,0.0,0.0,0.0,0.0,0.0,0.0,0.0,0.0,0.0,0.0,0.0,0.0,0.0,0.0,0.0,0.0,0.0,0.0,0.0,0.0,0.0,0.0,0.0,0.0,0.0,0.0,0.0,0.0,0.0,5.6484,5.957,6.25,6.4883,6.1797,5.9336,0.0,0.0,0.0,0.0,0.0,0.0,0.0,0.0,0.0,0.0,0.0,0.0,0.0,0.0,0.0,0.0,0.0,0.0,0.0,0.0,0.0,0.0,0.0,0.0,0.0,0.0,0.0,0.0,0.0,0.0,0.0,0.0,0.0,0.0,0.0,0.0,0.0,0.0,0.0,0.0,0.0,0.0,0.0,0.0,0.0,0.0,0.0,0.0,0.0,0.0,0.0,0.0,0.0,0.0,0.0,0.0,0.0,0.0,0.0,0.0,0.0,0.0,0.0,0.0,0.0,0.0,0.0,0.0,0.0,0.0,0.0,0.0,0.0,0.0,0.0,0.0,0.0,0.0,0.0,0.0,0.0,0.0,0.0,0.0,0.0,0.0,0.0,0.0,0.0,0.0,0.0,0.0,0.0,0.0,0.0,0.0,0.0,0.0,0.0,0.0,0.0,0.0,0.0,0.0,0.0,0.0,0.0,0.0,5.7461,6.3906,6.8086,6.8164,6.457,6.418,6.0625,0.0,0.0,0.0,0.0,0.0,0.0,0.0,0.0,0.0,0.0,0.0,0.0,0.0,0.0,0.0,0.0,0.0,0.0,0.0,0.0,0.0,0.0,0.0,0.0,0.0,0.0,0.0,0.0,0.0,0.0,0.0,0.0,0.0,0.0,0.0,0.0,0.0,0.0,0.0,0.0,0.0,0.0,0.0,0.0,0.0,0.0,0.0,0.0,0.0,0.0,0.0,0.0,0.0,0.0,0.0,0.0,0.0,0.0,0.0,0.0,0.0,0.0,0.0,0.0,0.0,0.0,0.0,0.0,0.0,0.0,0.0,0.0,0.0,0.0,0.0,0.0,0.0,0.0,0.0,0.0,0.0,0.0,0.0,0.0,0.0,0.0,0.0,0.0,0.0,0.0,0.0,0.0,0.0,0.0,0.0,0.0,0.0,0.0,0.0,0.0,0.0,0.0,0.0,0.0,0.0,0.0,0.0,0.0,0.0,6.1719,6.5273,6.7383,6.7656,6.4336,6.1953,0.0,0.0,0.0,0.0,0.0,0.0,0.0,0.0,0.0,0.0,0.0,0.0,0.0,0.0,0.0,0.0,0.0,0.0,0.0,0.0,0.0,0.0,0.0,0.0,0.0,0.0,0.0,0.0,0.0,0.0,0.0,0.0,0.0,0.0,0.0,0.0,0.0,0.0,0.0,0.0,0.0,0.0,0.0,0.0,0.0,0.0,0.0,0.0,0.0,0.0,0.0,0.0,0.0,0.0,0.0,0.0,0.0,0.0,0.0,0.0,0.0,0.0,0.0,0.0,0.0,0.0,0.0,0.0,0.0,0.0,0.0,0.0,0.0,0.0,0.0,0.0,0.0,0.0,0.0,0.0,0.0,0.0,0.0,0.0,0.0,0.0,0.0,0.0,0.0,0.0,0.0,0.0,0.0,0.0,0.0,0.0,0.0,0.0,0.0,0.0,0.0,0.0,0.0,0.0,0.0,0.0,0.0,0.0,0.0,6.5976,6.9062,7.1015,7.1328,6.6953,6.418,6.3242,0.0,0.0,0.0,0.0,0.0,0.0,0.0,0.0,0.0,0.0,0.0,0.0,0.0,0.0,0.0,0.0,0.0,0.0,0.0,0.0,0.0,0.0,0.0,0.0,0.0,0.0,0.0,0.0,0.0,0.0,0.0,0.0,0.0,0.0,0.0,0.0,0.0,0.0,0.0,0.0,0.0,0.0,0.0,0.0,0.0,0.0,0.0,0.0,0.0,0.0,0.0,0.0,0.0,0.0,0.0,0.0,0.0,0.0,0.0,0.0,0.0,0.0,0.0,0.0,0.0,0.0,0.0,0.0,0.0,0.0,0.0,0.0,0.0,0.0,0.0,0.0,0.0,0.0,0.0,0.0,0.0,0.0,0.0,0.0,0.0,0.0,0.0,0.0,0.0,0.0,0.0,0.0,0.0,0.0,0.0,0.0,0.0,0.0,0.0,0.0,0.0,0.0,0.0,0.0,0.0,0.0,0.0,0.0,7.5,7.8242,7.8203,7.4844,7.1289,6.7148,0.0,0.0,0.0,0.0,0.0,0.0,0.0,0.0,0.0,0.0,0.0,0.0,0.0,0.0,0.0,0.0,0.0,0.0,0.0,0.0,0.0,0.0,0.0,0.0,0.0,0.0,0.0,0.0,0.0,0.0,0.0,0.0,0.0,0.0,0.0,0.0,0.0,0.0,0.0,0.0,0.0,0.0,0.0,0.0,0.0,0.0,0.0,0.0,0.0,0.0,0.0,0.0,0.0,0.0,0.0,0.0,0.0,0.0,0.0,0.0,0.0,0.0,0.0,0.0,0.0,0.0,0.0,0.0,0.0,0.0,0.0,0.0,0.0,0.0,0.0,0.0,0.0,0.0,0.0,0.0,0.0,0.0,0.0,0.0,0.0,0.0,0.0,0.0,0.0,0.0,0.0,0.0,0.0,0.0,0.0,0.0,0.0,0.0,0.0,0.0,0.0,0.0,0.0,0.0,0.0,0.0,0.0,0.0,0.0,8.0117,8.1797,8.0937,7.75,7.2851,6.914,0.0,0.0,0.0,0.0,0.0,0.0,0.0,0.0,0.0,0.0,0.0,0.0,0.0,0.0,0.0,0.0,0.0,0.0,0.0,0.0,0.0,0.0,0.0,0.0,0.0,0.0,0.0,0.0,0.0,0.0,0.0,0.0,0.0,0.0,0.0,0.0,0.0,0.0,0.0,0.0,0.0,0.0,0.0,0.0,0.0,0.0,0.0,0.0,0.0,0.0,0.0,0.0,0.0,0.0,0.0,0.0,0.0,0.0,0.0,0.0,0.0,0.0,0.0,0.0,0.0,0.0,0.0,0.0,0.0,0.0,0.0,0.0,0.0,0.0,0.0,0.0,0.0,0.0,0.0,0.0,0.0,0.0,0.0,0.0,0.0,0.0,0.0,0.0,0.0,0.0,0.0,0.0,0.0,0.0,0.0,0.0,0.0,0.0,0.0,0.0,0.0,0.0,0.0,0.0,0.0,0.0,0.0,0.0,7.8047,8.3281,8.3867,8.3203,8.125,7.6523,7.2656,0.0,0.0,0.0,0.0,0.0,0.0,0.0,0.0,0.0,0.0,0.0,0.0,0.0,0.0,0.0,0.0,0.0,0.0,0.0,0.0,0.0,0.0,0.0,0.0,0.0,0.0,0.0,0.0,0.0,0.0,0.0,0.0,0.0,0.0,0.0,0.0,0.0,0.0,0.0,0.0,0.0,0.0,0.0,0.0,0.0,0.0,0.0,0.0,0.0,0.0,0.0,0.0,0.0,0.0,0.0,0.0,0.0,0.0,0.0,0.0,0.0,0.0,0.0,0.0,0.0,0.0,0.0,0.0,0.0,0.0,0.0,0.0,0.0,0.0,0.0,0.0,0.0,0.0,0.0,0.0,0.0,0.0,0.0,0.0,0.0,0.0,0.0,0.0,0.0,0.0,0.0,0.0,0.0,0.0,0.0,0.0,0.0,0.0,0.0,0.0,0.0,0.0,0.0,0.0,0.0,0.0,0.0,0.0,8.0859,8.5078,8.5078,8.5078,8.5039,8.1015,7.668,0.0,0.0,0.0,0.0,0.0,0.0,0.0,0.0,0.0,0.0,0.0,0.0,0.0,0.0,0.0,0.0,0.0,0.0,0.0,0.0,0.0,0.0,0.0,0.0,0.0,0.0,0.0,0.0,0.0,0.0,0.0,0.0,0.0,0.0,0.0,0.0,0.0,0.0,0.0,0.0,0.0,0.0,0.0,0.0,0.0,0.0,0.0,0.0,0.0,0.0,0.0,0.0,0.0,0.0,0.0,0.0,0.0,0.0,0.0,0.0,0.0,0.0,0.0,0.0,0.0,0.0,0.0,0.0,0.0,0.0,0.0,0.0,0.0,0.0,0.0,0.0,0.0,0.0,0.0,0.0,0.0,0.0,0.0,0.0,0.0,0.0,0.0,0.0,0.0,0.0,0.0,0.0,0.0,0.0,0.0,0.0,0.0,0.0,0.0,0.0,0.0,0.0,0.0,0.0,0.0,0.0,0.0,0.0,8.2578,8.6797,8.6289,8.625,8.6914,8.2734,7.8125,0.0,0.0,0.0,0.0,0.0,0.0,0.0,0.0,0.0,0.0,0.0,0.0,0.0,0.0,0.0,0.0,0.0,0.0,0.0,0.0,0.0,0.0,0.0,0.0,0.0,0.0,0.0,0.0,0.0,0.0,0.0,0.0,0.0,0.0,0.0,0.0,0.0,0.0,0.0,0.0,0.0,0.0,0.0,0.0,0.0,0.0,0.0,0.0,5.4569,0.0,0.0,0.0,0.0,0.0,0.0,0.0,0.0,0.0,0.0,0.0,0.0,0.0,0.0,0.0,0.0,0.0,0.0,0.0,0.0,0.0,0.0,0.0,0.0,0.0,0.0,0.0,0.0,0.0,0.0,0.0,0.0,0.0,0.0,0.0,0.0,0.0,0.0,0.0,0.0,0.0,0.0,0.0,0.0,0.0,0.0,0.0,0.0,0.0,0.0,0.0,0.0,0.0,0.0,0.0,0.0,0.0,0.0,0.0,8.4726,8.8515,8.8242,8.8203,8.8554,8.6015,8.1445,0.0,0.0,0.0,0.0,0.0,0.0,0.0,0.0,0.0,0.0,0.0,0.0,0.0,0.0,0.0,0.0,0.0,0.0,0.0,0.0,0.0,0.0,0.0,0.0,0.0,0.0,0.0,0.0,0.0,0.0,0.0,0.0,0.0,0.0,0.0,0.0,0.0,0.0,0.0,0.0,0.0,0.0,0.0,0.0,0.0,0.0,0.0,0.0,0.0,0.0,0.0,0.0,0.0,0.0,0.0,0.0,0.0,0.0,0.0,0.0,0.0,0.0,0.0,0.0,0.0,0.0,0.0,0.0,0.0,0.0,0.0,0.0,0.0,0.0,0.0,0.0,0.0,0.0,0.0,0.0,0.0,0.0,0.0,0.0,0.0,0.0,0.0,0.0,0.0,0.0,0.0,0.0,0.0,0.0,0.0,0.0,0.0,0.0,0.0,0.0,0.0,0.0,0.0,0.0,0.0,0.0,0.0,8.2969,8.6836,8.9844,9.0156,9.0117,9.0,8.9297,8.4922,7.664,0.0,0.0,0.0,0.0,0.0,0.0,0.0,0.0,0.0,0.0,0.0,0.0,0.0,0.0,0.0,0.0,0.0,0.0,0.0,0.0,0.0,0.0,0.0,0.0,0.0,0.0,0.0,0.0,0.0,0.0,0.0,0.0,0.0,0.0,0.0,0.0,0.0,0.0,5.2566,5.5186,0.0,0.0,0.0,0.0,0.0,0.0,0.0,0.0,5.7869,0.0,0.0,0.0,0.0,0.0,0.0,0.0,0.0,0.0,0.0,0.0,0.0,0.0,0.0,0.0,0.0,0.0,0.0,0.0,0.0,0.0,0.0,0.0,0.0,0.0,0.0,0.0,0.0,0.0,0.0,0.0,0.0,0.0,0.0,0.0,0.0,0.0,0.0,0.0,0.0,0.0,0.0,0.0,0.0,0.0,0.0,0.0,0.0,0.0,0.0,0.0,0.0,0.0,0.0,0.0,0.0,8.3515,8.5898,8.8047,8.9961,9.0703,9.0742,9.0039,8.9844,8.6094,7.8476,0.0,0.0,0.0,0.0,0.0,0.0,0.0,0.0,0.0,0.0,0.0,0.0,0.0,0.0,0.0,0.0,0.0,0.0,0.0,0.0,0.0,0.0,0.0,0.0,0.0,0.0,0.0,0.0,0.0,0.0,0.0,0.0,0.0,0.0,0.0,0.0,0.0,0.0,0.0,6.0785,6.2186,0.0,0.0,0.0,0.0,0.0,0.0,0.0,0.0,5.8233,0.0,0.0,0.0,0.0,0.0,0.0,0.0,0.0,0.0,0.0,0.0,0.0,0.0,0.0,0.0,0.0,0.0,0.0,0.0,0.0,0.0,0.0,0.0,0.0,0.0,0.0,0.0,0.0,0.0,0.0,0.0,0.0,0.0,0.0,0.0,0.0,0.0,0.0,0.0,0.0,0.0,0.0,0.0,0.0,0.0,0.0,0.0,0.0,0.0,0.0,0.0,0.0,0.0,0.0,0.0,8.2773,8.8125,9.1211,9.2031,9.2851,9.2929,9.2031,9.1133,8.7031,0.0,0.0,0.0,0.0,0.0,0.0,0.0,0.0,0.0,0.0,0.0,0.0,0.0,0.0,0.0,0.0,0.0,0.0,0.0,0.0,0.0,0.0,0.0,0.0,0.0,0.0,0.0,0.0,0.0,0.0,0.0,0.0,0.0,0.0,0.0,0.0,0.0,0.0,0.0,0.0,6.3646,6.5351,6.7109,0.0,0.0,0.0,0.0,0.0,0.0,6.2119,6.0124,0.0,0.0,0.0,0.0,0.0,0.0,0.0,0.0,0.0,0.0,0.0,0.0,0.0,0.0,0.0,0.0,0.0,0.0,0.0,0.0,0.0,0.0,0.0,0.0,0.0,0.0,0.0,0.0,0.0,0.0,0.0,0.0,0.0,0.0,0.0,0.0,0.0,0.0,0.0,0.0,0.0,0.0,0.0,0.0,0.0,0.0,0.0,0.0,0.0,0.0,0.0,0.0,0.0,0.0,0.0,8.1601,8.9336,9.3633,9.414,9.5,9.4961,9.3945,9.2539,8.8008,0.0,0.0,0.0,0.0,0.0,0.0,0.0,0.0,0.0,0.0,0.0,0.0,0.0,0.0,0.0,0.0,0.0,0.0,0.0,0.0,0.0,0.0,0.0,0.0,0.0,0.0,0.0,0.0,0.0,0.0,0.0,0.0,0.0,0.0,0.0,0.0,0.0,0.0,0.0,0.0,0.0,6.8203,6.9336,6.7773,0.0,0.0,0.0,0.0,6.7422,6.5273,0.0,0.0,0.0,0.0,0.0,0.0,0.0,0.0,0.0,0.0,0.0,0.0,0.0,0.0,0.0,0.0,0.0,0.0,0.0,0.0,0.0,0.0,0.0,0.0,0.0,0.0,0.0,0.0,0.0,0.0,0.0,0.0,0.0,0.0,0.0,0.0,0.0,0.0,0.0,0.0,0.0,0.0,0.0,0.0,0.0,0.0,0.0,0.0,0.0,0.0,0.0,0.0,0.0,0.0,0.0,0.0,8.3203,8.875,9.2734,9.4961,9.5898,9.5547,9.3945,9.3711,8.9219,0.0,0.0,0.0,0.0,0.0,0.0,0.0,0.0,0.0,0.0,0.0,0.0,0.0,0.0,0.0,0.0,0.0,0.0,0.0,0.0,0.0,0.0,0.0,0.0,0.0,0.0,0.0,0.0,0.0,0.0,0.0,0.0,0.0,0.0,0.0,0.0,0.0,0.0,0.0,0.0,0.0,7.1172,7.0625,7.0273,7.0312,0.0,0.0,6.914,7.1133,7.039,0.0,0.0,0.0,0.0,0.0,0.0,0.0,0.0,0.0,0.0,0.0,0.0,0.0,0.0,0.0,0.0,0.0,0.0,0.0,0.0,0.0,0.0,0.0,0.0,0.0,0.0,0.0,0.0,0.0,0.0,0.0,0.0,0.0,0.0,0.0,0.0,0.0,0.0,0.0,0.0,0.0,0.0,0.0,0.0,0.0,0.0,0.0,0.0,0.0,0.0,0.0,0.0,0.0,0.0,0.0,7.8672,8.3633,9.1094,9.5234,9.5937,9.6758,9.6601,9.539,9.4414,8.9883,0.0,0.0,0.0,0.0,0.0,0.0,0.0,0.0,0.0,0.0,0.0,0.0,0.0,0.0,0.0,0.0,0.0,0.0,0.0,0.0,0.0,0.0,0.0,0.0,0.0,0.0,0.0,0.0,0.0,0.0,0.0,0.0,0.0,0.0,0.0,0.0,0.0,0.0,0.0,0.0,0.0,0.0,7.4883,7.3437,0.0,0.0,0.0,7.2187,7.3945,0.0,0.0,0.0,0.0,0.0,0.0,0.0,0.0,0.0,0.0,0.0,0.0,0.0,0.0,0.0,0.0,0.0,0.0,0.0,0.0,0.0,0.0,0.0,0.0,0.0,0.0,0.0,0.0,0.0,0.0,0.0,0.0,0.0,0.0,0.0,0.0,0.0,0.0,0.0,0.0,0.0,0.0,0.0,0.0,0.0,0.0,0.0,0.0,0.0,0.0,0.0,0.0,0.0,0.0,0.0,0.0,0.0,8.4297,9.2929,9.7187,9.6836,9.7383,9.7304,9.6523,9.5234,0.0,0.0,0.0,0.0,0.0,0.0,0.0,0.0,0.0,0.0,0.0,0.0,0.0,0.0,0.0,0.0,0.0,0.0,0.0,0.0,0.0,0.0,0.0,0.0,0.0,0.0,0.0,5.1289,0.0,0.0,0.0,0.0,0.0,0.0,0.0,0.0,0.0,0.0,0.0,0.0,0.0,0.0,7.4883,7.832,7.6953,7.6484,0.0,0.0,7.5351,7.664,7.6836,7.5742,0.0,0.0,0.0,0.0,0.0,0.0,0.0,0.0,0.0,0.0,0.0,0.0,0.0,0.0,0.0,0.0,0.0,0.0,0.0,0.0,0.0,0.0,0.0,0.0,0.0,0.0,0.0,0.0,0.0,0.0,0.0,0.0,0.0,0.0,0.0,0.0,0.0,0.0,0.0,0.0,0.0,0.0,0.0,0.0,0.0,0.0,0.0,0.0,0.0,0.0,0.0,0.0,0.0,0.0,0.0,8.6054,9.2969,9.6953,9.7578,9.7656,9.7304,9.6523,9.6367,9.2695,0.0,0.0,0.0,0.0,0.0,0.0,0.0,0.0,0.0,0.0,0.0,0.0,0.0,0.0,0.0,0.0,0.0,0.0,0.0,0.0,0.0,0.0,0.0,0.0,0.0,0.0,0.0,0.0,0.0,0.0,0.0,0.0,0.0,0.0,0.0,0.0,0.0,0.0,0.0,0.0,0.0,7.5781,7.914,8.082,8.1797,0.0,8.0469,7.9336,7.9453,7.9453,7.7773,7.2812,0.0,0.0,0.0,0.0,0.0,0.0,0.0,0.0,0.0,0.0,0.0,0.0,0.0,0.0,0.0,0.0,0.0,0.0,0.0,0.0,0.0,0.0,0.0,0.0,0.0,0.0,0.0,0.0,0.0,0.0,0.0,0.0,0.0,0.0,0.0,0.0,0.0,0.0,0.0,0.0,0.0,0.0,0.0,0.0,0.0,0.0,0.0,0.0,0.0,0.0,0.0,0.0,0.0,8.207,8.6211,9.3476,9.7383,9.7695,9.7695,9.7539,9.7226,9.6758,9.4101,0.0,0.0,0.0,0.0,0.0,0.0,0.0,0.0,0.0,0.0,0.0,0.0,0.0,0.0,0.0,0.0,0.0,0.0,0.0,0.0,0.0,0.0,0.0,0.0,0.0,0.0,0.0,0.0,6.1523,6.2226,6.043,0.0,0.0,0.0,0.0,0.0,0.0,0.0,0.0,0.0,0.0,8.039,8.3281,8.3828,0.0,0.0,8.4336,8.3281,8.4336,8.2695,8.0429,7.7969,7.5234,0.0,0.0,0.0,0.0,0.0,0.0,0.0,0.0,0.0,0.0,0.0,0.0,0.0,0.0,0.0,0.0,0.0,0.0,0.0,0.0,0.0,0.0,0.0,0.0,0.0,0.0,0.0,0.0,0.0,0.0,0.0,0.0,0.0,0.0,0.0,0.0,0.0,0.0,0.0,0.0,0.0,0.0,0.0,0.0,0.0,0.0,0.0,0.0,0.0,0.0,0.0,0.0,8.2969,8.6914,9.4023,9.7695,9.7695,9.7695,9.7695,9.7656,9.7148,9.5351,0.0,0.0,0.0,0.0,0.0,0.0,0.0,0.0,0.0,0.0,0.0,0.0,0.0,0.0,0.0,0.0,0.0,0.0,0.0,0.0,0.0,0.0,0.0,0.0,0.0,0.0,0.0,0.0,6.4687,6.457,6.1601,0.0,0.0,0.0,0.0,0.0,0.0,0.0,0.0,0.0,0.0,8.4101,8.6914,8.6797,8.6953,8.8476,8.6523,8.5234,8.6172,8.4297,8.2226,8.082,0.0,0.0,0.0,0.0,0.0,0.0,0.0,0.0,0.0,0.0,0.0,0.0,0.0,0.0,0.0,0.0,0.0,0.0,0.0,0.0,0.0,0.0,0.0,0.0,0.0,0.0,0.0,5.1896,0.0,0.0,5.0818,0.0,0.0,0.0,0.0,0.0,0.0,0.0,0.0,0.0,0.0,0.0,0.0,0.0,0.0,0.0,0.0,0.0,0.0,0.0,0.0,0.0,0.0,8.3554,8.8633,9.4609,9.7695,9.7734,9.7695,9.7734,9.7734,9.7695,9.6445,9.3828,0.0,0.0,0.0,0.0,0.0,0.0,0.0,0.0,0.0,0.0,0.0,0.0,0.0,0.0,0.0,0.0,0.0,0.0,0.0,0.0,0.0,0.0,0.0,0.0,0.0,0.0,6.0664,6.207,6.2461,0.0,0.0,0.0,0.0,0.0,0.0,0.0,0.0,0.0,8.1015,8.3672,8.6133,8.9453,8.9922,8.9687,8.8945,8.6679,8.4765,8.4101,8.375,8.2695,0.0,0.0,0.0,0.0,0.0,0.0,0.0,0.0,0.0,0.0,0.0,0.0,0.0,0.0,0.0,0.0,0.0,0.0,0.0,0.0,0.0,0.0,0.0,0.0,0.0,0.0,0.0,5.9202,5.8585,0.0,0.0,0.0,0.0,0.0,0.0,0.0,0.0,0.0,0.0,0.0,7.3997,7.6465,0.0,0.0,0.0,0.0,0.0,0.0,0.0,0.0,0.0,0.0,0.0,0.0,8.5586,8.9609,9.4922,9.7969,9.8554,9.8554,9.8554,9.8554,9.8554,9.6836,9.3125,0.0,0.0,0.0,0.0,0.0,0.0,0.0,0.0,0.0,0.0,0.0,0.0,0.0,0.0,0.0,0.0,0.0,0.0,0.0,0.0,0.0,0.0,0.0,0.0,0.0,6.3008,0.0,0.0,0.0,0.0,0.0,0.0,0.0,0.0,0.0,0.0,0.0,8.0,8.4336,8.7851,9.0664,9.2344,9.3086,9.3359,0.0,0.0,0.0,0.0,0.0,0.0,0.0,0.0,0.0,0.0,0.0,0.0,0.0,0.0,7.7578,7.0742,6.8555,6.7851,6.8125,0.0,0.0,0.0,0.0,0.0,0.0,0.0,0.0,0.0,0.0,0.0,0.0,0.0,0.0,6.5487,0.0,6.3854,0.0,0.0,0.0,0.0,0.0,0.0,0.0,0.0,7.7001,7.9867,8.052,8.3235,8.3623,0.0,8.097,7.7764,0.0,0.0,0.0,0.0,0.0,0.0,0.0,0.0,8.8047,9.1797,9.6289,9.8867,9.9414,9.9453,9.9453,9.9453,9.914,9.7695,9.4883,9.1562,8.8515,0.0,0.0,0.0,0.0,0.0,0.0,0.0,0.0,0.0,0.0,0.0,0.0,0.0,0.0,0.0,0.0,0.0,0.0,0.0,0.0,0.0,0.0,0.0,6.6094,0.0,0.0,0.0,0.0,0.0,0.0,0.0,0.0,0.0,7.3945,8.0039,8.5703,8.8906,9.1719,9.3711,9.4258,0.0,0.0,0.0,0.0,0.0,0.0,0.0,8.8047,8.832,8.6797,8.5195,8.4258,8.5039,8.5078,8.2773,0.0,0.0,7.625,7.3867,7.3125,7.3437,7.414,7.4687,7.4726,7.6797,7.8828,0.0,0.0,0.0,0.0,0.0,0.0,0.0,0.0,7.1283,7.0877,0.0,7.0831,0.0,0.0,0.0,0.0,0.0,7.2785,0.0,0.0,8.6015,8.8594,8.8602,8.8679,8.9143,8.9912,8.9021,8.791,8.6184,8.0416,0.0,0.0,0.0,0.0,0.0,0.0,9.1015,9.5195,9.8515,10.0312,10.0351,10.0312,10.0351,10.0312,9.9492,9.9023,9.8906,9.5781,9.207,8.7734,8.1133,0.0,0.0,0.0,0.0,0.0,0.0,0.0,0.0,0.0,0.0,0.0,0.0,0.0,0.0,0.0,0.0,0.0,0.0,0.0,0.0,6.9023,0.0,0.0,0.0,0.0,0.0,0.0,0.0,0.0,0.0,0.0,8.0429,8.5234,9.0429,9.457,0.0,0.0,0.0,0.0,9.5273,9.5312,9.3164,9.1601,9.1562,9.1445,9.1094,9.0312,0.0,0.0,8.8437,8.9023,8.8945,8.5742,8.7109,8.7969,8.5351,8.2031,8.0195,8.0859,8.039,8.0508,8.2109,8.3945,8.625,7.6553,0.0,0.0,0.0,0.0,7.1799,7.4241,7.8227,7.8769,7.8573,7.782,7.7423,0.0,0.0,0.0,0.0,0.0,0.0,7.9373,8.295,8.5626,8.7833,8.9563,9.0213,9.0944,9.1751,9.1556,9.1825,9.2444,9.1484,8.6182,7.7187,0.0,0.0,0.0,0.0,9.457,9.6953,9.9179,10.0586,10.1211,10.1211,10.1211,10.125,10.039,9.9922,9.9922,9.8398,9.5273,9.0429,8.6015,0.0,0.0,0.0,0.0,0.0,0.0,0.0,0.0,0.0,0.0,0.0,0.0,0.0,0.0,0.0,0.0,0.0,0.0,0.0,6.6953,7.0781,7.2109,0.0,0.0,0.0,0.0,0.0,0.0,0.0,0.0,0.0,8.7929,9.1094,9.3789,0.0,0.0,9.6133,9.6133,9.6601,9.6992,9.6992,9.6328,0.0,9.5078,9.3945,9.3281,9.3633,9.4336,9.4375,9.3203,9.2383,9.1328,8.9726,8.9531,8.9375,8.8633,8.6797,8.5429,8.5508,8.4961,8.4726,8.582,8.7109,8.832,8.3478,8.0015,7.7207,7.6861,7.8207,7.8219,8.0482,8.4181,8.4972,8.4878,8.4125,8.4272,8.2342,7.89,7.6899,0.0,0.0,0.0,8.3341,8.6653,8.7675,8.8948,9.0406,9.0979,9.2018,9.3405,9.2479,9.3557,9.648,9.6134,9.248,8.5759,0.0,0.0,8.9375,9.4101,9.7422,9.9219,10.0976,10.2109,10.2617,10.2656,10.2461,10.2109,10.1289,10.082,10.082,9.9961,9.7773,9.3984,9.0234,8.6054,0.0,0.0,0.0,0.0,0.0,0.0,0.0,0.0,0.0,0.0,0.0,6.3867,6.0469,0.0,0.0,0.0,6.9805,7.1367,7.3828,7.6836,0.0,0.0,0.0,0.0,0.0,0.0,0.0,8.4765,8.8828,9.1914,9.3633,9.5195,9.6172,9.6211,9.664,9.6992,9.6992,0.0,9.7695,9.7695,9.7695,9.7539,9.7031,9.6094,9.5586,9.6094,9.5625,9.5508,9.6054,9.4492,9.3125,9.2773,9.1875,9.1015,9.1015,9.0195,8.9375,8.9023,8.8008,8.7617,8.875,8.914,8.9453,8.8902,8.8402,8.2978,8.1977,8.3971,8.398,8.5792,8.87,8.9542,8.9475,8.8909,9.0482,8.8594,8.4093,8.1823,0.0,8.6632,8.6615,8.8309,9.1402,9.1402,9.1402,9.1402,9.1402,9.2672,9.4943,9.2633,9.398,9.8404,9.6403,9.5865,9.6865,9.7262,9.6981,9.6278,9.8047,9.9961,10.1875,10.3476,10.4297,10.4297,10.4297,10.3906,10.3125,10.2344,10.1875,10.1797,10.0976,9.9648,9.7812,9.3906,8.9844,8.5781,0.0,0.0,0.0,0.0,0.0,0.0,0.0,0.0,0.0,0.0,0.0,0.0,0.0,0.0,7.5976,8.1094,0.0,8.4648,8.4844,0.0,0.0,0.0,8.0117,8.0664,8.4219,8.7617,9.0195,0.0,0.0,9.75,9.7695,9.7695,9.7695,9.7695,9.7656,9.7617,9.7617,9.7695,9.7695,9.7695,9.7695,9.7617,9.7539,9.7461,9.7461,9.6367,9.5937,9.7109,9.5664,9.4492,9.5039,9.3906,9.2812,9.2812,9.2734,9.2578,9.1875,9.0195,8.9414,9.1015,9.082,9.0586,9.0594,9.0479,8.9056,8.8094,8.7478,8.7473,8.7935,8.8782,8.9556,8.979,8.9713,9.0713,9.0517,8.9402,8.944,9.0017,9.0979,9.0975,9.1741,9.3054,9.3092,9.3092,9.3092,9.313,9.3749,9.4901,9.4364,9.5365,9.775,9.7865,9.8365,9.9288,10.0595,10.048,9.9077,10.1339,10.3203,10.4531,10.4961,10.5195,10.5195,10.5195,10.5078,10.4883,10.4687,10.4258,10.3594,10.2734,10.1172,9.8789,9.6484,9.4219,9.1797,8.2695,0.0,0.0,0.0,0.0,0.0,0.0,0.0,0.0,0.0,7.1719,6.6953,0.0,7.3789,0.0,8.5469,8.6953,8.332,8.4101,0.0,0.0,8.3242,8.3789,8.8906,8.9844,9.1328,9.457,9.6211,9.7265,9.7656,9.7695,9.7695,9.7695,9.7695,9.7461,9.6914,9.7344,9.7695,9.7734,9.7773,9.7695,9.7734,9.7695,9.7734,9.7695,9.6875,9.6562,9.7539,9.6172,9.5156,9.5937,9.5312,9.4687,9.4531,9.457,9.4765,9.4961,9.2812,9.1211,9.289,9.2578,9.2422,9.121,9.121,9.121,9.0671,8.9825,8.9787,8.9825,8.9825,9.029,9.0482,9.0521,9.1402,9.1979,9.2364,9.2826,9.3018,9.3018,9.3018,9.3284,9.3669,9.3672,9.3672,9.3672,9.3674,9.4403,9.5555,9.5557,9.6634,9.8596,9.9519,10.0366,10.1212,10.252,10.2904,10.2444,10.3609,10.4453,10.4922,10.5664,10.6054,10.6015,10.6015,10.5859,10.5508,10.5508,10.5273,10.4804,10.4297,10.25,9.9179,9.7734,9.5898,9.3359,8.707,8.3476,0.0,0.0,0.0,0.0,0.0,0.0,0.0,0.0,0.0,0.0,0.0,7.8437,8.1484,8.7812,9.0078,8.6094,8.832,9.0273,9.0742,8.9804,9.0547,9.3984,9.3906,9.4336,9.6289,9.6914,9.7304,9.7656,9.8047,9.8281,9.8281,9.8633,9.8554,9.7812,9.8008,9.8398,9.8789,9.8867,9.8867,9.8828,9.8867,9.8867,9.8789,9.8164,9.7773,9.8164,9.6914,9.5937,9.6328,9.5781,9.5195,9.5195,9.5195,9.539,9.5469,9.4414,9.3554,9.4258,9.3789,9.3554,9.1518,9.1518,9.1518,9.1518,9.1518,9.1518,9.1402,9.121,9.1325,9.1402,9.1556,9.2326,9.3056,9.3672,9.3672,9.3749,9.3864,9.3864,9.3941,9.4057,9.4059,9.4022,9.4022,9.4137,9.4982,9.6442,9.6788,9.8096,10.025,10.1173,10.202,10.279,10.3598,10.4522,10.5445,10.5256,10.4988,10.4648,10.6328,10.7148,10.7031,10.7148,10.6797,10.6015,10.5898,10.5781,10.5664,10.5664,10.375,9.9765,9.8594,9.6562,9.3437,9.1719,8.875,0.0,8.332,0.0,0.0,0.0,0.0,0.0,0.0,0.0,0.0,8.4375,8.3945,8.1992,8.9062,9.2812,9.0547,9.375,9.6015,9.6015,9.6836,9.707,9.6289,9.6445,9.664,9.6523,9.6679,9.7109,9.7812,9.8633,9.9179,9.9219,9.9726,9.9922,9.9492,9.9258,9.9453,10.0351,10.0469,10.0312,10.0195,10.0234,10.0195,10.0156,9.9609,9.9179,9.914,9.8008,9.7031,9.6875,9.6484,9.5937,9.5586,9.5664,9.5703,9.5742,9.5547,9.5429,9.5312,9.4844,9.4297,9.3249,9.321,9.321,9.321,9.321,9.3207,9.2476,9.1248,9.1941,9.263,9.321,9.3403,9.3557,9.3672,9.3672,9.4095,9.4749,9.4747,9.517,9.5826,9.5826,9.5826,9.5828,9.6481,9.6943,9.7366,9.9404,10.0596,10.1096,10.2635,10.3482,10.3674,10.4483,10.5059,10.5559,0.0,0.0,0.0,10.8906,10.9531,10.8867,10.9492,10.9453,10.8593,10.789,0.0,10.6523,10.6484,10.5156,10.2304,10.0664,0.0,0.0,0.0,0.0,0.0,0.0,0.0,0.0,0.0,0.0,0.0,8.5156,8.5312,8.4804,8.8476,8.9609,8.6719,9.0312,9.2656,9.2187,9.2812,9.332,9.3398,9.4765,9.5351,9.457,9.6211,9.7226,9.6601,9.7695,9.8554,9.875,9.9492,10.0078,10.0117,10.0195,10.0508,10.1094,10.0586,10.0429,10.1172,10.1445,10.1094,10.039,10.039,10.0469,10.0273,10.0195,10.0039,10.0,9.9804,9.9258,9.8672,9.8945,9.875,9.75,9.7773,9.7969,9.7383,9.7226,9.7031,9.6406,9.6133,9.6211,9.3672,9.3672,9.3672,9.3672,0.0,9.3708,9.3246,9.2479,9.29,9.3592,9.4289,9.4364,9.4595,9.498,9.498,9.5211,9.5634,9.5634,9.6132,9.6865,9.6865,9.7133,9.7556,9.7942,9.8366,9.8827,10.048,10.152,10.202,10.3674,10.4713,10.5137,10.5984,10.6677,10.7175,10.8175,10.8772,10.8906,10.9883,11.0234,10.9961,11.039,11.0195,10.9336,10.8867,0.0,0.0,0.0,0.0,0.0,0.0,0.0,0.0,0.0,0.0,9.0586,8.8164,8.6719,8.6758,8.7109,8.832,9.0429,9.1054,9.0547,8.8828,9.1094,9.2265,9.1445,9.2929,9.4375,9.5625,9.5742,9.5937,9.6367,9.7187,9.7539,9.7226,9.7812,9.8359,9.8398,9.8711,9.914,9.9609,10.039,10.1094,10.1523,10.1953,10.2539,10.3242,10.2773,10.2539,10.332,10.2695,10.2109,10.1679,10.1562,10.1562,10.1562,10.1211,10.0976,10.0937,10.0586,10.0156,9.9765,10.0039,9.9922,9.9297,9.9336,9.9492,9.9062,9.8633,9.8281,9.7773,9.7383,9.7187,9.4595,9.4595,9.4595,9.4595,9.4595,9.4595,9.4595,9.4557,0.0,0.0,0.0,9.5595,9.598,9.6519,9.6673,9.6749,9.6749,9.6749,9.7096,9.771,9.7749,9.8133,9.8788,9.8942,9.9481,10.0324,10.1288,10.2289,10.3328,10.4828,10.5984,10.6871,10.7562,10.8332,10.9101,10.9479,10.9949,11.0479,11.0579,11.0703,11.082,11.0976,11.0664,10.9804,10.9609,10.914,10.8281,10.8242,10.6797,10.375,10.1914,9.9961,9.7734,9.5703,9.4883,9.5586,9.539,9.5195,9.5195,9.5195,9.5195,9.5195,9.5195,9.4609,9.3164,9.3047,9.3711,9.5312,9.5429,9.6328,9.8554,9.875,9.9062,9.9765,10.0,9.9961,9.9804,9.9531,9.9414,9.9922,9.9687,9.9804,10.0703,10.1562,10.2383,10.3203,10.3867,10.4844,10.5586,10.5117,10.4765,10.5273,10.4492,10.3594,10.3398,10.3359,10.332,10.3086,10.2539,10.2031,10.1758,10.125,10.0742,10.0586,10.0625,10.0625,10.039,10.039,10.0469,10.0312,9.9726,9.9219,9.914,9.8554,9.7929,9.8057,9.8096,9.8096,9.8096,9.8057,9.8095,9.8093,9.7978,9.6594,9.6365,9.721,9.7942,9.7904,9.7365,9.8096,9.8442,9.8442,9.8442,9.8518,9.8632,9.8596,9.8673,9.8827,9.9596,10.0365,10.121,10.2749,10.4328,10.5828,10.6867,10.7754,10.8447,10.8678,10.9175,10.9979,11.0829,11.134,11.165,11.2112,11.2148,11.1758,11.2461,11.2422,11.1562,11.0781,11.0,10.914,10.9101,10.8203,10.625,10.457,10.3164,10.1992,9.8906,9.7226,9.7265,9.6015,9.5195,9.5195,9.5195,9.5195,9.5195,9.5195,9.5078,9.4844,9.4844,9.5273,9.6211,9.6328,9.6719,9.7773,9.8008,9.8164,9.8281,9.8828,9.8906,9.8515,9.9492,10.0078,9.9648,10.0429,10.1562,10.2422,10.3242,10.4062,10.4883,10.5273,10.5898,10.7031,10.6914,10.6445,10.6484,10.6367,10.5898,10.5117,10.5117,10.4726,10.414,10.3867,10.3398,10.2812,10.25,10.2109,10.1562,10.1914,10.1836,10.0742,10.0937,10.1054,10.0664,10.0273,10.0117,10.0117,9.9375,9.8554,9.8788,9.8788,9.8788,9.8788,9.8788,9.8788,9.9095,9.9404,9.8711,9.8289,9.8212,9.8634,9.8596,9.825,9.8634,9.8788,9.8788,9.8788,9.9057,9.948,9.9519,9.9711,10.0211,10.1057,10.2134,10.3403,10.4674,10.6136,10.7675,10.8175,10.8752,10.9563,11.006,11.0521,11.0902,11.1329,11.1637,11.1911,11.2282,11.2431,11.2343,11.289,11.2773,11.1914,11.1484,11.0898,11.0039,10.9531,10.8711,10.7461,10.5351,10.3789,10.289,10.0508,9.9101,9.9101,9.8398,9.7969,9.7969,9.7969,9.7734,9.7304,9.7265,9.707,9.6601,9.6172,9.625,9.707,9.7578,9.8398,9.9648,9.9804,10.0,10.0469,10.0898,10.1133,10.1289,10.1836,10.2422,10.2578,10.3203,10.3867,10.4258,10.4687,10.5234,10.6015,10.6484,10.7344,10.8476,10.7969,10.7422,10.7304,10.664,10.5976,10.5586,10.5508,10.5312,10.4922,10.4492,10.4101,10.3594,10.3281,10.2773,10.2422,10.2656,10.2578,10.1758,10.2031,10.207,10.1875,10.1289,10.1094,10.0898,9.9961,9.8945,9.9365,9.9365,9.9365,9.9365,9.9365,9.9558,9.9942,10.0404,10.075,10.048,9.9672,9.9442,9.925,9.9135,9.9481,9.9673,9.9673,9.9865,10.0327,10.0904,10.0943,10.1289,10.1904,10.2749,10.3941,10.5364,10.629,10.7559,10.9021,10.9175,10.9637,11.0487,11.1175,11.1522,11.1522,11.1522,11.1598,11.1829,11.206,11.2379,11.2695,11.2968,11.2812,11.2265,11.2187,11.1758,11.0898,11.0234,10.9492,10.8554,10.6328,10.4648,10.375,10.1914,10.0781,10.0625,10.039,10.0312,10.0312,10.0312,10.0039,9.9375,9.9297,9.9023,9.8359,9.8125,9.8008,9.8359,9.9101,10.0273,10.1797,10.2383,10.2773,10.3398,10.3476,10.3633,10.4336,10.4492,10.4726,10.539,10.5508,10.5508,10.5703,10.5781,10.6211,10.7187,10.789,10.8633,10.9297,10.8984,10.8593,10.8047,10.7031,10.6289,10.6054,10.6133,10.6054,10.5859,10.5273,10.4844,10.4492,10.3789,10.3281,10.3164,10.2969,10.2851,10.289,10.2851,10.2812,10.2695,10.2265,10.1836,10.1484,10.039,9.9258,10.1058,10.1058,10.1096,10.1058,10.1173,10.1905,10.1789,10.1481,10.2828,10.3059,10.2134,10.1443,10.0673,10.025,10.1558,10.2174,10.2212,10.3058,10.3406,10.3445,10.356,10.3599,10.3675,10.4482,10.5364,10.6322,10.7172,10.8482,11.0021,11.006,11.0521,11.1291,11.1483,11.1522,11.1522,11.1522,11.1522,11.156,11.1791,11.2185,11.2656,11.2734,11.2851,11.3086,11.3047,11.2656,11.1836,11.1679,11.125,11.0312,10.8593,10.7226,10.6211,10.4023,10.2304,10.1523,10.0781,10.0312,10.0312,10.0312,10.0312,10.0195,10.0195,10.0156,10.0117,10.1367,10.1601,10.0664,10.0898,10.2148,10.375,10.4531,10.4922,10.4961,10.5078,10.5312,10.5351,10.539,10.5429,10.5469,10.5703,10.5781,10.6445,10.664,10.7304,10.8711,10.9023,10.9453,11.0117,11.0195,10.9843,10.9218,10.832,10.7773,10.7656,10.7734,10.7304,10.6719,10.6523,10.6054,10.539,10.4726,10.4101,10.4023,10.3554,10.3203,10.3008,10.2929,10.3008,10.2929,10.2695,10.25,10.1758,10.0859,10.0039,10.2828,10.2866,10.2828,10.2828,10.2905,10.3213,10.3135,10.2942,10.356,10.3713,10.3403,10.3018,10.2634,10.2404,10.3097,10.3366,10.3405,10.3712,10.3866,10.3906,10.3906,10.4175,10.4674,10.548,10.6553,10.786,10.8748,10.979,11.0791,11.0983,11.1175,11.1483,11.1522,11.1522,11.1522,11.1522,11.1522,11.1522,11.1637,11.1845,11.222,11.2548,11.2851,11.3164,11.3203,11.3047,11.2656,11.2187,11.1758,11.1289,10.9687,10.8359,10.75,10.5547,10.4062,10.3164,10.2304,10.1836,10.1836,10.1836,10.1601,10.1133,10.1054,10.1054,10.1094,10.1719,10.2187,10.2695,10.3398,10.4258,10.4922,10.5312,10.5508,10.5508,10.5508,10.5703,10.6172,10.6211,10.6367,10.6875,10.6992,10.707,10.7461,10.7929,10.8711,10.9804,11.0078,11.0273,11.0586,11.0586,11.0468,11.0156,10.9726,10.9062,10.8359,10.8008,10.7812,10.75,10.7031,10.6484,10.625,10.5547,10.4961,10.4961,10.457,10.4101,10.375,10.4062,10.4258,10.3554,10.2851,10.2617,10.1758,10.1328,10.0898,10.3905,10.3905,10.3905,10.3906,10.3906,10.4137,10.4097,10.3977,10.4366,10.4443,10.4247,10.4439,10.4595,10.4597,10.4559,10.4597,10.4636,10.5059,10.5251,10.5251,10.5251,10.5597,10.6213,10.7056,10.8052,10.9205,11.0094,11.0868,11.1483,11.1522,11.1522,11.1522,11.1522,11.1522,11.1522,11.1522,11.1522,11.1522,11.1522,11.1675,11.2039,11.2339,11.2674,11.3047,11.3164,11.3203,11.3203,11.2578,11.2265,11.2226,11.082,10.9492,10.8398,10.6953,10.5703,10.4609,10.375,10.3242,10.3242,10.3047,10.2617,10.207,10.2148,10.2304,10.2422,10.2929,10.3906,10.5078,10.625,10.6758,10.5859,10.6054,10.6172,10.6172,10.6367,10.6797,10.7344,10.7578,10.8086,10.8593,10.8711,10.8711,10.8789,10.9258,10.9961,11.0742,11.0976,11.1133,11.125,11.1367,11.1289,11.1015,11.0937,11.0351,10.9023,10.8867,10.8672,10.8281,10.7851,10.7461,10.7109,10.6367,10.5859,10.5781,10.5664,10.5351,10.4726,10.5,10.5117,10.3867,10.3242,10.2969,10.2226,10.1992,10.1953,10.3905,10.3905,10.3905,10.3982,10.3943,10.4753,10.4636,10.417,10.5518,10.5828,10.521,10.5864,10.629,10.6251,10.6328,10.6328,10.6482,10.7713,10.829,10.837,10.8409,10.8601,10.8793,10.9637,11.0056,11.0209,11.0944,11.1406,11.1522,11.1522,11.1522,11.1522,11.1522,11.1522,11.156,11.1598,11.1522,11.1714,11.1714,11.1829,11.2218,11.2113,11.2311,11.2773,11.3047,11.3164,11.3164,11.3164,11.3125,11.3125,11.2226,11.0976,10.9414,10.8359,10.707,10.5586,10.4648,10.414,10.4062,10.3554,10.3086,10.3047,10.3789,10.414,10.4453,10.6093,10.7304,10.7812,10.9062,10.9101,10.7304,10.7539,10.789,10.7969,10.8593,10.8984,10.914,10.9648,11.0312,11.0351,11.0234,11.0234,11.039,11.0508,11.0976,11.1562,11.1836,11.207,11.2656,11.2929,11.2578,11.207,11.1797,11.1523,11.0664,11.0078,10.9843,10.9414,10.8945,10.875,10.8008,10.7304,10.6914,10.6523,10.6172,10.5898,10.5586,10.5312,10.5117,10.4492,10.4062,10.3633,10.2969,10.289,10.2734,10.5482,10.552,10.5482,10.5482,10.5559,10.5828,10.579,10.5556,10.6136,10.6251,10.6136,10.6825,10.7251,10.729,10.8367,10.8213,10.7328,10.7867,10.8367,10.8832,10.8909,10.9175,10.9752,11.0056,11.0517,11.1017,11.1368,11.1522,11.1522,11.1522,11.1522,11.1522,11.1522,11.1752,11.2175,11.2252,11.2522,11.3022,11.3099,11.3176,11.33,11.3141,11.3008,11.2996,11.293,11.2968,11.3203,11.3203,11.3203,11.3203,11.289,11.2187,11.0937,10.9062,10.7265,10.5742,10.5703,10.5586,10.5195,10.5781,10.5898,10.5469,10.6133,10.6836,10.7461,10.832,10.9062,10.9648,11.0117,11.0,10.9609,10.9492,10.9648,10.9687,10.9922,11.0156,11.0156,11.0429,11.0586,11.0586,11.0625,11.0781,11.1328,11.1445,11.1797,11.2539,11.2734,11.2851,11.3047,11.3203,11.3047,11.2812,11.2734,11.2617,11.2383,11.1172,11.0429,11.0117,10.9726,10.9297,10.8672,10.8047,10.7578,10.7344,10.6953,10.6679,10.6445,10.5937,10.5664,10.5664,10.5234,10.4297,10.3789,10.3672,10.3398,10.6405,10.6405,10.6405,10.6405,10.6405,10.6405,10.6405,10.6405,10.6405,10.6559,10.6905,10.7441,10.7825,10.8213,10.929,10.9406,10.8598,10.879,10.9213,10.9713,10.9752,11.006,11.0517,11.0594,11.0902,11.1483,11.1791,11.1906,11.1945,11.2175,11.2291,11.2329,11.2291,11.2603,11.3027,11.3099,11.3445,11.3945,11.3978,11.4022,11.4032,11.3601,11.3328,11.3247,11.2733,11.2618,11.3008,11.3047,11.3086,11.3164,11.3203,11.2695,11.1406,10.9531,10.7929,10.6953,10.6953,10.7031,10.6836,10.7539,10.7734,10.7226,10.789,10.8711,10.9297,10.9804,11.039,11.0898,11.1328,11.1445,11.1445,11.1445,11.1211,11.082,11.0859,11.1015,11.1054,11.1289,11.1445,11.1523,11.1562,11.1797,11.2148,11.2304,11.2578,11.3125,11.3203,11.3203,11.3203,11.3203,11.3203,11.3203,11.3125,11.3125,11.2968,11.2148,11.1406,11.1054,11.0664,11.0117,10.9375,10.8789,10.8281,10.8125,10.789,10.7656,10.7226,10.664,10.6523,10.664,10.5781,10.4765,10.4531,10.4453,10.414,10.6482,10.6559,10.6444,10.6597,10.6636,10.6559,10.6444,10.6521,10.6482,10.6944,10.7518,10.7787,10.8325,10.8829,10.9252,10.9483,11.0137,11.0791,11.1137,11.1252,11.1291,11.1329,11.1406,11.1368,11.1406,11.1522,11.2291,11.2637,11.2637,11.3334,11.3758,11.3873,11.3758,11.3796,11.3989,11.4022,11.4055,11.4247,11.4286,11.4286,11.4253,11.3573,11.3232,11.3435,11.26,11.2281,11.2656,11.2695,11.2851,11.3125,11.3164,11.2383,11.0976,10.9883,10.9297,10.9062,10.8515,10.8515,10.8984,10.8672,10.8554,10.8437,10.8945,10.9648,11.0,11.1015,11.1836,11.1992,11.2539,11.3047,11.2968,11.2929,11.2383,11.1054,11.1484,11.1875,11.2031,11.2617,11.3125,11.3008,11.289,11.3125,11.3164,11.3047,11.3086,11.3164,11.3203,11.3203,11.3203,11.3203,11.3203,11.3203,11.3203,11.3203,11.3203,11.3125,11.2578,11.2109,11.1718,11.1211,11.0195,10.9453,10.8789,10.8515,10.8086,10.7851,10.8125,10.7578,10.7187,10.7031,10.6054,10.5312,10.5234,10.5117,10.4844,10.8098,10.8098,10.8136,10.8136,10.8021,10.7521,10.7331,10.7251,10.7331,10.7444,10.7864,10.8902,10.9556,10.9906,11.0406,11.0829,11.1098,11.1406,11.1522,11.1522,11.1522,11.1522,11.1522,11.1522,11.1522,11.1637,11.2329,11.2714,11.2906,11.3599,11.3984,11.3984,11.4022,11.433,11.4868,11.4901,11.5093,11.5676,11.5753,11.5792,11.5792,11.5138,11.4463,11.3854,11.3194,11.2619,11.2195,11.2315,11.2539,11.2851,11.2851,11.2422,11.1601,11.125,11.082,11.0312,11.0547,11.0468,11.0312,11.1015,11.1133,11.0976,11.1445,11.1914,11.1992,11.2383,11.2734,11.2773,11.3047,11.3203,11.3203,11.3203,11.289,11.2422,11.2656,11.2734,11.2734,11.3008,11.3164,11.3203,11.3203,11.3203,11.3203,11.3203,11.3203,11.3203,11.3203,11.3203,11.3203,11.3203,11.3203,11.3203,11.3203,11.3203,11.3203,11.3203,11.2929,11.2578,11.2304,11.1914,11.0976,11.0,10.9375,10.8672,10.8242,10.8164,10.8476,10.8359,10.7851,10.7265,10.6367,10.6015,10.5937,10.5625,10.5234,10.8906,10.8906,10.8906,10.8906,10.8867,10.829,10.8178,10.8139,10.8139,10.829,10.8825,10.9709,11.0402,11.0752,11.1291,11.1522,11.1522,11.1522,11.1522,11.1522,11.1522,11.1522,11.1522,11.1522,11.1714,11.206,11.2791,11.3368,11.3714,11.4484,11.4945,11.4945,11.4901,11.517,11.5715,11.5753,11.6061,11.6446,11.6446,11.6484,11.6369,11.5869,11.5215,11.4445,11.3565,11.2796,11.2226,11.2103,11.2181,11.2493,11.2571,11.2241,11.1689,11.164,11.1441,11.1055,11.1289,11.1523,11.1367,11.2109,11.2656,11.2265,11.2569,11.2812,11.2851,11.2929,11.3008,11.3008,11.3125,11.3203,11.3203,11.3203,11.3203,11.3203,11.3164,11.3203,11.3203,11.3203,11.3203,11.3203,11.3203,11.3203,11.3203,11.3203,11.3203,11.3203,11.3203,11.3203,11.3203,11.3203,11.3203,11.3203,11.3203,11.3203,11.3203,11.3203,11.3203,11.2968,11.2734,11.2304,11.1601,11.0586,10.9804,10.875,10.8125,10.8047,10.8281,10.8203,10.7851,10.7226,10.6758,10.6289,10.5976,10.5703,10.5469,10.906,10.906,10.906,10.9175,10.9175,10.9021,10.8983,10.8947,10.8947,10.9367,10.9979,11.0286,11.0748,11.1368,11.1483,11.1522,11.1522,11.1522,11.1522,11.156,11.1598,11.1675,11.1714,11.1714,11.2099,11.2824,11.3676,11.4445,11.5022,11.583,11.6484,11.6292,11.6253,11.6446,11.6369,11.6446,11.6407,11.6484,11.6484,11.6484,11.6446,11.583,11.533,11.5176,11.3868,11.2988,11.2569,11.1962,11.1806,11.2222,11.231,11.2014,11.1344,11.1398,11.1445,11.1199,11.1416,11.1797,11.2148,11.2304,11.2343,11.2304,11.2324,11.2334,11.2384,11.2578,11.2695,11.2695,11.289,11.3086,11.3125,11.3125,11.3125,11.3203,11.3203,11.3203,11.3203,11.3203,11.3203,11.3203,11.3203,11.3203,11.3203,11.3203,11.3203,11.3203,11.3203,11.3203,11.3203,11.3203,11.3203,11.3203,11.3203,11.3203,11.3203,11.3203,11.3203,11.3125,11.2968,11.2695,11.2226,11.125,11.0117,10.9062,10.8203,10.8125,10.8125,10.8164,10.8086,10.7734,10.7148,10.6406,10.6133,10.6093,10.6093,11.0829,11.0829,11.0829,11.0829,11.0714,11.0132,10.9863,10.9867,10.9867,10.9979,11.0325,11.0902,11.1252,11.1483,11.1522,11.1522,11.156,11.156,11.1522,11.1598,11.2137,11.2329,11.2368,11.2406,11.2824,11.3676,11.4484,11.5099,11.533,11.6099,11.6484,11.6484,11.6484,11.6484,11.6484,11.6484,11.6484,11.6484,11.6484,11.6484,11.6446,11.6292,11.5869,11.5291,11.483,11.3907,11.2834,11.1906,11.1637,11.1983,11.2175,11.2226,11.1921,11.1963,11.1959,11.1888,11.1981,11.2104,11.2251,11.2251,11.2259,11.2305,11.227,11.2334,11.2334,11.2346,11.2401,11.2426,11.2509,11.2643,11.2773,11.2851,11.2929,11.3164,11.3164,11.3203,11.3203,11.3203,11.3203,11.3203,11.3203,11.3203,11.3203,11.3203,11.3203,11.3203,11.3203,11.3203,11.3203,11.3203,11.3203,11.3203,11.3203,11.3203,11.3203,11.3203,11.3203,11.3203,11.3125,11.3086,11.2578,11.1953,11.0703,10.9492,10.8711,10.8476,10.8476,10.8515,10.832,10.8008,10.7265,10.6523,10.6953,10.707,10.6992,11.1522,11.1522,11.1522,11.1522,11.1445,11.094,11.0748,11.0748,11.0748,11.0748,11.0863,11.1252,11.1522,11.1522,11.1522,11.1752,11.1983,11.2022,11.2214,11.2637,11.306,11.3253,11.3214,11.3253,11.3709,11.4522,11.5061,11.5445,11.583,11.6292,11.6446,11.6484,11.6484,11.6484,11.6484,11.6484,11.6484,11.6484,11.6484,11.6484,11.6484,11.6484,11.6292,11.5792,11.5522,11.4484,11.2868,11.1945,11.1598,11.1714,11.1868,11.1945,11.1983,11.206,11.2079,11.1988,11.2041,11.2103,11.1983,11.1945,11.1945,11.1987,11.1945,11.1945,11.1945,11.2022,11.2156,11.2118,11.2251,11.2362,11.2502,11.2635,11.2773,11.2929,11.3086,11.3164,11.3203,11.3203,11.3203,11.3203,11.3203,11.3203,11.3203,11.3203,11.3203,11.3203,11.3203,11.3203,11.3203,11.3203,11.3203,11.3203,11.3203,11.3203,11.3203,11.3203,11.3203,11.3203,11.3203,11.3164,11.2734,11.2187,11.0898,10.9687,10.914,10.8711,10.8593,10.8437,10.8203,10.7773,10.7148,10.7031,10.7422,10.75,10.75,11.1522,11.1522,11.1522,11.1522,11.1522,11.1522,11.1445,11.1483,11.1445,11.1445,11.1483,11.1483,11.1598,11.1598,11.1791,11.2099,11.2829,11.2868,11.3411,11.3835,11.4137,11.4214,11.4412,11.4214,11.4632,11.533,11.5445,11.583,11.6215,11.6446,11.6484,11.6484,11.6484,11.6484,11.6484,11.6484,11.6484,11.6484,11.6484,11.6484,11.6484,11.6484,11.6407,11.6253,11.5362,11.4445,11.306,11.206,11.1522,11.1522,11.1522,11.156,11.156,11.1752,11.1757,11.1645,11.176,11.1752,11.1598,11.1598,11.156,11.1598,11.156,11.1522,11.1598,11.1752,11.1876,11.1884,11.2103,11.2153,11.2307,11.2484,11.2656,11.2773,11.3008,11.3125,11.3203,11.3203,11.3203,11.3203,11.3203,11.3203,11.3203,11.3203,11.3203,11.3203,11.3203,11.3203,11.3203,11.3203,11.3203,11.3203,11.3203,11.3203,11.3203,11.3203,11.3203,11.3203,11.3203,11.3086,11.2578,11.1836,11.0664,10.9726,10.9218,10.8672,10.8203,10.8086,10.8047,10.789,10.7461,10.7539,10.7734,10.7539,10.7461,11.1522,11.1522,11.1522,11.1522,11.1522,11.1522,11.1522,11.1522,11.1522,11.1522,11.1522,11.1522,11.1868,11.2406,11.2445,11.2906,11.3676,11.3791,11.4176,11.4912,11.5022,11.5445,11.5638,11.5285,11.5478,11.6022,11.6215,11.633,11.6446,11.6484,11.6484,11.6484,11.6484,11.6484,11.6484,11.6484,11.6484,11.6484,11.6484,11.6484,11.6484,11.6484,11.6484,11.6369,11.5131,11.4253,11.3565,11.2252,11.156,11.1522,11.1522,11.1522,11.1522,11.156,11.1598,11.156,11.156,11.156,11.1522,11.1522,11.1522,11.1522,11.1522,11.1522,11.1522,11.156,11.1598,11.1598,11.1637,11.1791,11.1953,11.2233,11.2472,11.2617,11.2773,11.2929,11.3125,11.3203,11.3203,11.3203,11.3203,11.3203,11.3203,11.3203,11.3203,11.3203,11.3203,11.3203,11.3203,11.3203,11.3203,11.3203,11.3203,11.3203,11.3203,11.3164,11.3047,11.3086,11.3086,11.2734,11.2226,11.1797,11.0703,10.9922,10.9297,10.8711,10.8086,10.8164,10.8203,10.8008,10.7851,10.7929,10.7929,10.7695,10.7773,11.1522,11.1522,11.1522,11.1522,11.1522,11.1522,11.1522,11.1522,11.1522,11.1522,11.1598,11.1868,11.2329,11.2753,11.3137,11.3791,11.4561,11.5022,11.5407,11.5792,11.5869,11.6099,11.633,11.6138,11.6138,11.6484,11.6484,11.6484,11.6484,11.6484,11.6484,11.6484,11.6484,11.6484,11.6484,11.6484,11.6484,11.6484,11.6484,11.6484,11.6484,11.6484,11.6484,11.6292,11.5247,11.4484,11.3912,11.2796,11.1945,11.1598,11.1522,11.1522,11.1522,11.1522,11.1522,11.1522,11.1522,11.1522,11.1522,11.1522,11.1522,11.1522,11.1522,11.1522,11.1522,11.1522,11.1522,11.1522,11.1522,11.156,11.1714,11.1949,11.2234,11.2472,11.2603,11.2812,11.3086,11.3203,11.3203,11.3203,11.3203,11.3203,11.3203,11.3203,11.3203,11.3203,11.3203,11.3203,11.3203,11.3203,11.3203,11.3203,11.3203,11.3203,11.3203,11.3086,11.289,11.289,11.289,11.2265,11.1562,11.125,11.0898,11.0117,10.9297,10.8593,10.8086,10.8203,10.832,10.8164,10.8086,10.8164,10.8125,10.7929,10.8242,11.1522,11.1522,11.1522,11.1522,11.1522,11.1522,11.1522,11.1522,11.1522,11.1522,11.1675,11.2324,11.2709,11.3099,11.3868,11.4676,11.5445,11.5984,11.6292,11.633,11.633,11.6407,11.6446,11.6407,11.6407,11.6484,11.6484,11.6484,11.6484,11.6484,11.6484,11.6484,11.6484,11.6484,11.6484,11.6484,11.6484,11.6484,11.6484,11.6484,11.6484,11.6484,11.6484,11.633,11.5676,11.4791,11.4027,11.3104,11.2291,11.1598,11.1522,11.1522,11.1522,11.1522,11.1522,11.1522,11.1522,11.1522,11.1522,11.1522,11.1522,11.1522,11.1522,11.1522,11.1522,11.1522,11.1522,11.1522,11.1522,11.1522,11.1522,11.1675,11.1945,11.2189,11.2476,11.2773,11.3047,11.3164,11.3203,11.3203,11.3203,11.3203,11.3203,11.3203,11.3203,11.3203,11.3203,11.3203,11.3203,11.3203,11.3203,11.3203,11.3203,11.3203,11.3203,11.3164,11.2968,11.2734,11.2734,11.2031,11.1172,11.0625,11.0312,10.9961,10.9258,10.8554,10.8242,10.8398,10.8398,10.8281,10.8203,10.8203,10.8164,10.8125,10.8633,11.1522,11.1522,11.1522,11.1522,11.1522,11.1522,11.156,11.1522,11.1598,11.1522,11.1675,11.2363,11.3132,11.383,11.4676,11.5522,11.6138,11.6407,11.6484,11.6484,11.6484,11.6484,11.6484,11.6484,11.6484,11.6484,11.6484,11.6484,11.6484,11.6484,11.6484,11.6484,11.6484,11.6484,11.6484,11.6484,11.6484,11.6484,11.6484,11.6484,11.6484,11.6484,11.6484,11.6446,11.5792,11.4978,11.4055,11.3214,11.2329,11.1637,11.1522,11.1522,11.1522,11.1522,11.1522,11.1522,11.1522,11.1522,11.1522,11.1522,11.1522,11.1522,11.1522,11.1522,11.1522,11.1522,11.1522,11.1522,11.1522,11.1522,11.1522,11.1598,11.1714,11.1957,11.2226,11.25,11.2773,11.3008,11.3164,11.3203,11.3203,11.3203,11.3203,11.3203,11.3203,11.3203,11.3203,11.3203,11.3203,11.3203,11.3203,11.3203,11.3203,11.3203,11.3203,11.3203,11.3086,11.2734,11.25,11.1953,11.1054,11.0117,10.9609,10.9492,10.9218,10.8672,10.8515,10.8672,10.875,10.8789,10.8554,10.8242,10.8242,10.8281,10.8828,11.1522,11.1522,11.1522,11.1522,11.1598,11.1983,11.2099,11.2099,11.2137,11.2368,11.2791,11.3253,11.3868,11.4714,11.5522,11.6138,11.6407,11.6484,11.6484,11.6484,11.6484,11.6484,11.6484,11.6484,11.6484,11.6484,11.6484,11.6484,11.6484,11.6484,11.6484,11.6484,11.6484,11.6484,11.6484,11.6484,11.6484,11.6484,11.6484,11.6484,11.6484,11.6484,11.6484,11.633,11.6099,11.5516,11.467,11.383,11.2988,11.2252,11.1714,11.156,11.1522,11.1522,11.1522,11.1522,11.1522,11.1522,11.1522,11.1522,11.1522,11.1522,11.1522,11.1522,11.1522,11.1522,11.1522,11.1522,11.1522,11.1522,11.1522,11.1522,11.1637,11.1882,11.2147,11.2392,11.2656,11.2968,11.3125,11.3164,11.3203,11.3203,11.3203,11.3203,11.3203,11.3203,11.3203,11.3203,11.3203,11.3203,11.3203,11.3203,11.3203,11.3203,11.3203,11.3203,11.2968,11.2617,11.2187,11.1601,11.0859,10.9883,10.9492,10.9336,10.9023,10.9101,10.9101,10.9336,10.9336,10.9258,10.8945,10.8633,10.8437,10.8554,10.9101,11.1522,11.1522,11.1522,11.1598,11.1829,11.2406,11.2834,11.2988,11.2945,11.3291,11.3945,11.4214,11.4638,11.533,11.6022,11.6484,11.6484,11.6484,11.6484,11.6484,11.6484,11.6484,11.6484,11.6484,11.6484,11.6484,11.6484,11.6484,11.6484,11.6484,11.6484,11.6484,11.6484,11.6484,11.6484,11.6484,11.6484,11.6484,11.6484,11.6484,11.6484,11.6484,11.6484,11.6484,11.6484,11.6099,11.517,11.4638,11.3681,11.2791,11.2137,11.1675,11.156,11.1522,11.1522,11.1522,11.1522,11.1522,11.1522,11.1522,11.1522,11.1522,11.1522,11.1522,11.1522,11.1522,11.1522,11.1522,11.1522,11.1522,11.1522,11.1522,11.1598,11.1752,11.2036,11.2329,11.2566,11.2812,11.3047,11.3125,11.3164,11.3203,11.3203,11.3203,11.3203,11.3203,11.3203,11.3203,11.3203,11.3203,11.3203,11.3203,11.3203,11.3203,11.3203,11.3203,11.2812,11.2226,11.1718,11.1133,11.039,10.957,10.9492,10.9648,11.0117,11.0234,11.0156,10.9804,10.9492,10.9297,10.9179,10.9023,10.8828,10.9023,10.957,11.1522,11.1522,11.156,11.1906,11.2522,11.2714,11.3176,11.383,11.3824,11.3863,11.4253,11.4791,11.5176,11.5522,11.6138,11.6446,11.6484,11.6484,11.6484,11.6484,11.6484,11.6484,11.6484,11.6484,11.6484,11.6484,11.6484,11.6484,11.6484,11.6484,11.6484,11.6484,11.6484,11.6484,11.6484,11.6484,11.6484,11.6484,11.6484,11.6484,11.6484,11.6484,11.6484,11.6484,11.6446,11.6176,11.5516,11.5099,11.433,11.2988,11.268,11.2175,11.1675,11.1522,11.1522,11.1522,11.1522,11.1522,11.1522,11.1522,11.1522,11.1522,11.1522,11.1522,11.1522,11.1522,11.1522,11.1522,11.1522,11.1522,11.1522,11.1522,11.156,11.1675,11.1872,11.2147,11.2383,11.2812,11.3047,11.3125,11.3203,11.3203,11.3203,11.3203,11.3203,11.3203,11.3203,11.3203,11.3203,11.3203,11.3203,11.3203,11.3203,11.3203,11.3008,11.3047,11.2617,11.1953,11.1367,11.082,11.0351,10.9922,11.0039,11.0273,11.082,11.0937,11.0468,11.0039,10.9609,10.9297,10.9101,10.914,10.9179,10.957,11.0156,11.2175,11.2214,11.2714,11.3099,11.3483,11.395,11.4412,11.4676,11.4708,11.4978,11.533,11.5253,11.5561,11.5984,11.6369,11.6484,11.6484,11.6484,11.6484,11.6484,11.6484,11.6484,11.6484,11.6484,11.6484,11.6484,11.6484,11.6484,11.6484,11.6484,11.6484,11.6522,11.6484,11.6484,11.6561,11.6484,11.6484,11.6484,11.6484,11.6484,11.6484,11.6484,11.6484,11.6484,11.6484,11.6253,11.5984,11.5401,11.4753,11.3527,11.3065,11.2291,11.1714,11.1522,11.1522,11.1522,11.1522,11.1522,11.1522,11.1522,11.1522,11.1522,11.1522,11.1522,11.1522,11.1522,11.1522,11.1522,11.1522,11.1522,11.1522,11.1522,11.1522,11.1598,11.1791,11.2079,11.2343,11.2773,11.3086,11.3125,11.3203,11.3203,11.3203,11.3203,11.3203,11.3203,11.3203,11.3203,11.3203,11.3203,11.3203,11.3203,11.3203,11.3203,11.2929,11.2773,11.2422,11.1797,11.1172,11.0742,11.0625,11.0429,11.0625,11.0937,11.1406,11.1289,11.0742,11.0351,10.9961,10.9492,10.9023,10.9218,10.9492,11.0547,11.0859,11.3176,11.3407,11.383,11.4137,11.4368,11.5066,11.5413,11.5605,11.5599,11.5945,11.6215,11.5907,11.5984,11.6369,11.6484,11.6484,11.6484,11.6484,11.6484,11.6484,11.6484,11.6484,11.6484,11.6484,11.6484,11.6484,11.6484,11.6484,11.6561,11.6715,11.6907,11.6792,11.6599,11.6676,11.6753,11.6599,11.6484,11.6484,11.6484,11.6484,11.6484,11.6484,11.6484,11.6484,11.6484,11.6484,11.6407,11.6022,11.5215,11.3989,11.345,11.2719,11.1752,11.1522,11.1522,11.1522,11.1522,11.1522,11.1522,11.1522,11.1522,11.1522,11.1522,11.1522,11.1522,11.1522,11.1522,11.1522,11.1522,11.1522,11.1522,11.1522,11.1522,11.1637,11.1791,11.2074,11.2343,11.2656,11.2968,11.3164,11.3203,11.3203,11.3203,11.3203,11.3203,11.3203,11.3203,11.3203,11.3203,11.3203,11.3203,11.3203,11.3203,11.3164,11.2968,11.2617,11.2187,11.1718,11.1093,11.0937,11.0976,11.1133,11.1367,11.1718,11.1953,11.1406,11.0781,11.0547,11.0273,10.9375,10.8789,10.9336,10.9922,11.1015,11.1172,11.4368,11.5061,11.433,11.4522,11.5215,11.5259,11.5759,11.6253,11.633,11.6369,11.6484,11.6407,11.6369,11.6484,11.6484,11.6484,11.6484,11.6484,11.6484,11.6484,11.6484,11.6484,11.6484,11.6484,11.6522,11.6599,11.6715,11.6638,11.6753,11.7523,11.7638,11.7683,11.7292,11.7298,11.726,11.7106,11.6638,11.6522,11.6484,11.6484,11.6484,11.6484,11.6484,11.6484,11.6484,11.6484,11.6484,11.633,11.5522,11.4143,11.3796,11.295,11.1829,11.156,11.1522,11.1522,11.1522,11.1522,11.1522,11.1522,11.1522,11.1522,11.1522,11.1522,11.1522,11.1522,11.1522,11.1522,11.1522,11.1522,11.1522,11.1522,11.1522,11.156,11.1718,11.2002,11.2212,11.2383,11.2734,11.3047,11.3203,11.3203,11.3203,11.3203,11.3203,11.3203,11.3203,11.3203,11.3203,11.3203,11.3203,11.3203,11.3203,11.3125,11.3008,11.2617,11.1992,11.1601,11.1172,11.1328,11.1601,11.1836,11.2109,11.2031,11.2109,11.1484,11.082,11.0351,10.9765,10.8828,10.8711,10.9726,11.0273,11.0976,11.0742,11.5253,11.5984,11.5676,11.5715,11.6022,11.6022,11.6176,11.6446,11.6484,11.6484,11.6484,11.6484,11.6484,11.6484,11.6484,11.6484,11.6484,11.6484,11.6484,11.6484,11.6484,11.6484,11.6484,11.6599,11.6753,11.7176,11.7292,11.7677,11.8215,11.8446,11.8908,11.8915,11.8407,11.8376,11.826,11.7683,11.7067,11.6561,11.6484,11.6484,11.6484,11.6484,11.6484,11.6484,11.6484,11.6484,11.6484,11.6484,11.5484,11.4484,11.4066,11.3027,11.1868,11.1637,11.1522,11.1522,11.1522,11.1522,11.1522,11.1522,11.1522,11.1522,11.1522,11.1522,11.1522,11.1522,11.1522,11.1522,11.1522,11.1522,11.1522,11.1522,11.1522,11.156,11.1686,11.1886,11.2147,11.2346,11.2656,11.3086,11.3164,11.3203,11.3203,11.3203,11.3203,11.3203,11.3203,11.3203,11.3203,11.3281,11.332,11.3203,11.3203,11.2929,11.2773,11.2265,11.1718,11.1562,11.1367,11.164,11.2031,11.2578,11.2773,11.2617,11.2031,11.1172,11.0508,11.0,10.9453,10.8906,10.9531,11.0625,11.1015,11.1054,11.039,11.5753,11.6446,11.6484,11.6484,11.6484,11.6484,11.6484,11.6484,11.6484,11.6484,11.6484,11.6484,11.6484,11.6484,11.6484,11.6484,11.6484,11.6484,11.6484,11.6484,11.6484,11.6484,11.6561,11.683,11.7292,11.7785,11.8215,11.8523,11.8908,11.9292,11.9638,11.9869,12.0023,11.98,11.9184,11.8337,11.7375,11.6676,11.6484,11.6484,11.6484,11.6484,11.6484,11.6484,11.6484,11.6484,11.6484,11.6407,11.583,11.483,11.406,11.3257,11.2329,11.1675,11.156,11.1522,11.1522,11.1522,11.1522,11.1522,11.1522,11.1522,11.1522,11.1522,11.1522,11.1522,11.1522,11.1522,11.1522,11.1522,11.156,11.1522,11.1522,11.1522,11.156,11.1808,11.215,11.2383,11.2734,11.3125,11.3164,11.332,11.3906,11.3945,11.3711,11.3711,11.3711,11.3554,11.3281,11.3398,11.3554,11.3398,11.3203,11.2851,11.2461,11.2148,11.1953,11.2226,11.207,11.207,11.2422,11.289,11.2851,11.2304,11.1601,11.0781,11.0195,10.9687,10.9492,10.9258,11.0273,11.1445,11.0937,11.082,11.0195,11.5792,11.6446,11.6484,11.6484,11.6484,11.6484,11.6484,11.6484,11.6484,11.6484,11.6484,11.6484,11.6484,11.6484,11.6484,11.6484,11.6484,11.6484,11.6484,11.6484,11.6484,11.6484,11.683,11.7292,11.7785,11.7977,11.8638,11.9177,11.9369,12.0023,12.0331,12.0331,12.0485,12.0523,12.01,11.86,11.7414,11.6599,11.6522,11.6484,11.6484,11.6484,11.6484,11.6484,11.6484,11.6484,11.6484,11.6484,11.5907,11.4901,11.4253,11.345,11.2406,11.1752,11.1522,11.1522,11.1522,11.1522,11.1522,11.1522,11.1522,11.1522,11.1522,11.1522,11.1522,11.1522,11.1637,11.1752,11.1675,11.1675,11.1598,11.1675,11.1791,11.1906,11.2022,11.2264,11.2672,11.2968,11.3437,11.3867,11.3633,11.3593,11.4414,11.4843,11.4453,11.4336,11.4297,11.4062,11.3711,11.3789,11.414,11.3828,11.3554,11.2968,11.2578,11.2265,11.2187,11.2539,11.2656,11.2539,11.25,11.2695,11.2461,11.1875,11.1093,11.0195,10.9765,10.9414,10.9726,11.0273,11.1133,11.1836,11.125,11.0664,11.0156,11.6253,11.6484,11.6484,11.6484,11.6484,11.6484,11.6484,11.6484,11.6484,11.6484,11.6484,11.6484,11.6484,11.6484,11.6484,11.6484,11.6484,11.6484,11.6484,11.6484,11.6484,11.6907,11.7292,11.7677,11.8362,11.9246,11.9869,12.0254,12.0831,12.0985,12.0677,12.0562,12.0216,11.9746,11.9285,11.8292,11.7375,11.6638,11.6484,11.6484,11.6484,11.6484,11.6484,11.6484,11.6484,11.6484,11.6484,11.6484,11.5907,11.4824,11.4137,11.3411,11.2329,11.1598,11.1522,11.1522,11.1522,11.1522,11.1522,11.1522,11.1522,11.1522,11.1522,11.1522,11.1522,11.1522,11.1752,11.2137,11.2252,11.2483,11.3065,11.3142,11.3257,11.3291,11.3407,11.3676,11.3984,11.414,11.4453,11.4883,11.4922,11.4843,11.5312,11.5781,11.5547,11.5234,11.5234,11.5039,11.4726,11.4843,11.5039,11.4492,11.4023,11.3281,11.2773,11.2539,11.2304,11.2422,11.2656,11.2695,11.2695,11.2539,11.1601,11.0742,11.0195,10.9648,10.9843,11.0156,11.082,11.1484,11.2109,11.2422,11.207,11.1328,11.0508,11.6484,11.6484,11.6484,11.6484,11.6484,11.6484,11.6484,11.6484,11.6484,11.6484,11.6484,11.6484,11.6484,11.6484,11.6484,11.6484,11.6484,11.6484,11.6484,11.6484,11.6484,11.6753,11.7215,11.7984,11.8746,11.9823,12.06,12.1062,12.1408,12.1523,12.1293,12.0677,11.9638,11.9331,11.8869,11.826,11.7375,11.6715,11.6484,11.6484,11.6484,11.6484,11.6484,11.6484,11.6484,11.6484,11.6484,11.6253,11.5869,11.4747,11.3984,11.333,11.2291,11.1637,11.156,11.1522,11.1522,11.1522,11.1522,11.1522,11.1522,11.1522,11.1522,11.1522,11.1598,11.1829,11.2175,11.256,11.2945,11.345,11.3912,11.4066,11.4099,11.4093,11.4214,11.4407,11.4453,11.4531,11.4648,11.5195,11.5351,11.5547,11.6054,11.6484,11.664,11.6406,11.6172,11.5859,11.5508,11.5547,11.5312,11.4609,11.414,11.3476,11.3047,11.2968,11.2695,11.2422,11.2578,11.2812,11.2383,11.2109,11.0859,10.9922,10.9961,11.0117,11.0547,11.0976,11.1562,11.2109,11.2695,11.2851,11.2812,11.1836,11.0703,11.6484,11.6484,11.6484,11.6484,11.6484,11.6484,11.6484,11.6484,11.6484,11.6484,11.6484,11.6484,11.6484,11.6484,11.6484,11.6484,11.6484,11.6484,11.6484,11.6484,11.6484,11.6638,11.7215,11.8092,11.89,11.9669,12.0446,12.1139,12.1523,12.1331,12.1293,12.0993,11.9523,11.903,11.8568,11.7991,11.7221,11.6638,11.6484,11.6484,11.6484,11.6484,11.6484,11.6484,11.6484,11.6484,11.6484,11.6407,11.5907,11.5138,11.4373,11.3527,11.2719,11.1906,11.1637,11.1522,11.1522,11.1522,11.1522,11.1522,11.1522,11.1522,11.1637,11.156,11.1791,11.2252,11.2676,11.3253,11.3753,11.3984,11.4297,11.4368,11.4439,11.4439,11.4401,11.4489,11.4463,11.4492,11.4531,11.4687,11.4726,11.5117,11.6211,11.6836,11.6718,11.6484,11.6054,11.5586,11.5351,11.5547,11.5156,11.414,11.375,11.3476,11.3242,11.3125,11.3047,11.2734,11.2812,11.2929,11.2383,11.1523,11.0468,10.9883,11.0234,11.0586,11.1054,11.164,11.2226,11.2734,11.2929,11.2617,11.2383,11.1523,11.0468,11.6484,11.6484,11.6484,11.6484,11.6484,11.6484,11.6484,11.6484,11.6484,11.6484,11.6484,11.6484,11.6484,11.6484,11.6484,11.6484,11.6484,11.6484,11.6484,11.6484,11.6484,11.6869,11.7407,11.8023,11.8908,11.9754,12.0523,12.1139,12.1331,12.1139,12.0793,12.0369,11.9254,11.8561,11.8068,11.7337,11.6869,11.6599,11.6484,11.6484,11.6484,11.6484,11.6484,11.6484,11.6484,11.6484,11.6484,11.6484,11.5869,11.4555,11.422,11.3411,11.1906,11.1637,11.1522,11.1522,11.1522,11.1522,11.1522,11.1522,11.1522,11.1675,11.1983,11.2329,11.2483,11.2753,11.3373,11.3984,11.4599,11.4907,11.5138,11.5215,11.5247,11.5285,11.5131,11.4912,11.4806,11.4549,11.4588,11.4606,11.4594,11.5156,11.6289,11.6328,11.6172,11.6133,11.5859,11.5312,11.5117,11.5273,11.4961,11.3945,11.3633,11.3476,11.3281,11.3164,11.3164,11.3164,11.3047,11.2578,11.1601,11.0742,10.9961,10.9883,11.0312,11.0976,11.164,11.2187,11.2734,11.2617,11.2734,11.2343,11.1836,11.1015,11.0273,11.6484,11.6484,11.6484,11.6484,11.6484,11.6484,11.6484,11.6484,11.6484,11.6484,11.6484,11.6484,11.6484,11.6484,11.6484,11.6484,11.6484,11.6484,11.6484,11.6484,11.6484,11.6715,11.7221,11.7991,11.8869,11.9754,12.0523,12.1216,12.137,12.1216,12.0869,12.0793,11.9169,11.8523,11.8068,11.7375,11.6599,11.6522,11.6484,11.6484,11.6484,11.6484,11.6484,11.6484,11.6484,11.6484,11.6484,11.6484,11.5599,11.4286,11.4027,11.318,11.1868,11.1522,11.1522,11.1522,11.1522,11.1522,11.1522,11.1522,11.1522,11.1714,11.2291,11.2786,11.333,11.3714,11.433,11.4907,11.5445,11.5907,11.6061,11.6253,11.633,11.6369,11.5907,11.5445,11.5099,11.4758,11.4664,11.4638,11.4922,11.539,11.5703,11.5664,11.5547,11.5351,11.5078,11.4687,11.4531,11.4687,11.4414,11.3711,11.3633,11.3593,11.3398,11.3203,11.3203,11.3047,11.2617,11.1992,11.0898,11.0273,10.9804,11.0,11.0468,11.125,11.2226,11.2656,11.3047,11.289,11.2695,11.2422,11.1758,11.0625,10.9961,11.6484,11.6484,11.6484,11.6484,11.6484,11.6484,11.6484,11.6484,11.6484,11.6484,11.6484,11.6484,11.6484,11.6484,11.6484,11.6484,11.6484,11.6484,11.6484,11.6484,11.6484,11.6599,11.7061,11.7984,11.8561,11.9446,12.0254,12.0908,12.1447,12.1408,12.1293,12.1408,11.9823,11.8869,11.8376,11.7221,11.6522,11.6484,11.6484,11.6484,11.6484,11.6484,11.6484,11.6484,11.6484,11.6484,11.6484,11.6176,11.5676,11.4599,11.3637,11.2988,11.206,11.1522,11.1522,11.1522,11.1522,11.1522,11.1522,11.1522,11.1637,11.1906,11.2329,11.3247,11.3984,11.4445,11.5028,11.5413,11.583,11.6061,11.6215,11.5676,11.5484,11.5561,11.5374,11.4791,11.4291,11.3873,11.3467,11.36,11.4023,11.4492,11.4687,11.4648,11.4648,11.4453,11.4297,11.3984,11.3984,11.4101,11.3906,11.3476,11.3476,11.3476,11.3359,11.3203,11.3203,11.2968,11.2461,11.1718,11.082,11.0234,10.9726,11.0351,11.1093,11.1953,11.2773,11.3047,11.3164,11.3086,11.2851,11.2617,11.1758,11.0586,10.9765,11.6484,11.6484,11.6484,11.6484,11.6484,11.6484,11.6484,11.6484,11.6484,11.6484,11.6484,11.6484,11.6484,11.6484,11.6484,11.6484,11.6484,11.6484,11.6484,11.6484,11.6484,11.6484,11.6522,11.7215,11.7984,11.8862,11.9669,12.0523,12.1254,12.1447,12.1216,12.06,11.9477,11.8908,11.8183,11.6946,11.6522,11.6484,11.6484,11.6484,11.6484,11.6484,11.6484,11.6484,11.6484,11.6484,11.633,11.5907,11.5131,11.417,11.333,11.2483,11.1598,11.156,11.1522,11.1522,11.1522,11.1522,11.156,11.1637,11.1868,11.2483,11.3137,11.406,11.4714,11.5099,11.5451,11.5797,11.6067,11.6221,11.5907,11.5138,11.4555,11.4638,11.4566,11.3945,11.3407,11.2877,11.2267,11.2602,11.3074,11.3359,11.3593,11.3711,11.3633,11.3593,11.3515,11.3398,11.3437,11.3515,11.3593,11.332,11.3281,11.3242,11.3203,11.3203,11.3203,11.2812,11.2304,11.1562,11.0703,11.0468,11.0234,11.1093,11.1875,11.2539,11.2929,11.3086,11.3164,11.3125,11.2929,11.2656,11.1914,11.0859,11.0,11.6484,11.6484,11.6484,11.6484,11.6484,11.6484,11.6484,11.6484,11.6484,11.6484,11.6484,11.6484,11.6484,11.6484,11.6484,11.6484,11.6484,11.6484,11.6484,11.6484,11.6484,11.6484,11.6561,11.6792,11.7561,11.8484,11.9446,12.0292,12.0946,12.137,12.11,11.99,11.9169,11.86,11.776,11.6984,11.6484,11.6484,11.6484,11.6484,11.6484,11.6484,11.6484,11.6484,11.6484,11.6484,11.6369,11.5945,11.5176,11.4022,11.2868,11.2175,11.1598,11.1522,11.1522,11.1522,11.1522,11.1522,11.1598,11.1829,11.2175,11.2868,11.3984,11.4868,11.5093,11.5445,11.5605,11.5913,11.6182,11.633,11.5253,11.4368,11.4291,11.4335,11.3488,11.256,11.2368,11.2103,11.1914,11.2156,11.2569,11.2812,11.3086,11.3359,11.3359,11.3398,11.3203,11.3281,11.3242,11.3398,11.3359,11.3398,11.3515,11.332,11.3203,11.3203,11.3203,11.2734,11.2265,11.1172,11.0351,11.0625,11.0898,11.164,11.2265,11.2695,11.3047,11.3164,11.3203,11.3164,11.2929,11.2656,11.1914,11.1289,11.0586,11.6484,11.6484,11.6484,11.6484,11.6484,11.6484,11.6484,11.6484,11.6484,11.6484,11.6484,11.6484,11.6484,11.6484,11.6484,11.6484,11.6484,11.6484,11.6484,11.6484,11.6484,11.6484,11.6715,11.7183,11.7606,11.8254,11.9215,11.9715,12.0177,12.0523,12.0292,11.9208,11.8754,11.8453,11.7683,11.6984,11.6484,11.6484,11.6484,11.6484,11.6484,11.6484,11.6484,11.6484,11.6484,11.6446,11.6369,11.5945,11.5215,11.3984,11.2445,11.1868,11.156,11.1522,11.1522,11.1522,11.1522,11.1522,11.1637,11.2175,11.256,11.3253,11.4561,11.533,11.5561,11.5753,11.5869,11.583,11.6099,11.583,11.4753,11.3868,11.3873,11.3681,11.2483,11.1637,11.1598,11.156,11.1675,11.1868,11.2112,11.2375,11.2656,11.2929,11.3164,11.3203,11.3242,11.332,11.3437,11.375,11.3906,11.4023,11.4218,11.3945,11.3398,11.3515,11.3593,11.3008,11.2422,11.1015,11.0195,11.082,11.1445,11.207,11.2617,11.2968,11.3086,11.3164,11.3203,11.3203,11.3047,11.2851,11.2656,11.2031,11.1367,11.6484,11.6484,11.6484,11.6484,11.6484,11.6484,11.6484,11.6484,11.6484,11.6484,11.6484,11.6484,11.6484,11.6484,11.6484,11.6484,11.6522,11.6522,11.6522,11.6484,11.6638,11.6561,11.6561,11.683,11.7221,11.7991,11.8754,11.9177,11.9408,11.9523,11.9092,11.8085,11.81,11.7683,11.6907,11.6484,11.6484,11.6484,11.6484,11.6484,11.6484,11.6484,11.6484,11.6484,11.6484,11.6099,11.5599,11.4824,11.3978,11.2978,11.2132,11.1675,11.1522,11.1522,11.1522,11.156,11.156,11.1675,11.1945,11.2637,11.3137,11.3786,11.4984,11.5676,11.5945,11.6215,11.6061,11.5484,11.5561,11.5445,11.4561,11.3445,11.3142,11.2791,11.2022,11.1714,11.1522,11.1522,11.1598,11.1752,11.1959,11.2192,11.2343,11.2734,11.3242,11.332,11.3554,11.3672,11.4218,11.4336,11.4414,11.457,11.4765,11.4218,11.3554,11.4101,11.4179,11.3515,11.2773,11.1797,11.1328,11.1523,11.207,11.2578,11.2812,11.3086,11.3203,11.3203,11.3203,11.3203,11.3203,11.3086,11.2968,11.2539,11.164]},{"header":{"parameterUnit":"m.s-1","parameterCategory":1,"la1":31.0,"la2":29.5877,"lo1":-88.7671,"lo2":-86.6584,"dx":0.0162,"dy":0.0185,"nx":115,"ny":88,"refTime":"2022-11-28T18:00:00:Z","depth":0,"parameterNumber":3,"parameterNumberName":"V-component_of_WINDS"},"data":[0.0,0.0,0.0,0.0,0.0,0.0,0.0,0.0,0.0,0.0,0.0,0.0,0.0,0.0,0.0,0.0,0.0,0.0,0.0,0.0,0.0,0.0,0.0,0.0,0.0,0.0,0.0,0.0,0.0,0.0,0.0,0.0,0.0,0.0,0.0,0.0,0.0,0.0,0.0,0.0,0.0,0.0,0.0,0.0,0.0,0.0,0.0,0.0,0.0,0.0,0.0,0.0,0.0,0.0,0.0,0.0,0.0,0.0,0.0,0.0,0.0,0.0,0.0,0.0,0.0,0.0,0.0,0.0,0.0,0.0,0.0,0.0,0.0,0.0,0.0,0.0,0.0,0.0,0.0,0.0,0.0,0.0,0.0,0.0,0.0,0.0,0.0,0.0,0.0,0.0,0.0,0.0,0.0,0.0,0.0,0.0,0.0,0.0,0.0,0.0,0.0,0.0,0.0,0.0,0.0,0.0,0.0,0.0,0.0,0.0,0.0,0.0,0.0,0.0,0.0,0.0,0.0,0.0,0.0,0.0,0.0,0.0,0.0,0.0,0.0,0.0,0.0,0.0,0.0,0.0,0.0,0.0,0.0,0.0,0.0,0.0,0.0,0.0,0.0,0.0,0.0,0.0,0.0,0.0,0.0,0.0,0.0,0.0,0.0,0.0,0.0,0.0,0.0,0.0,0.0,0.0,0.0,0.0,0.0,0.0,0.0,0.0,0.0,0.0,0.0,0.0,0.0,0.0,0.0,0.0,0.0,0.0,0.0,0.0,0.0,0.0,0.0,0.0,0.0,0.0,0.0,0.0,0.0,0.0,0.0,0.0,0.0,0.0,0.0,0.0,0.0,0.0,0.0,0.0,0.0,0.0,0.0,0.0,0.0,0.0,0.0,0.0,0.0,0.0,0.0,0.0,0.0,0.0,0.0,0.0,0.0,0.0,0.0,0.0,0.0,0.0,0.0,0.0,0.0,0.0,0.0,0.0,0.0,0.0,0.0,0.0,0.0,0.0,0.0,0.0,0.0,0.0,0.0,0.0,0.0,0.0,0.0,0.0,0.0,0.0,0.0,0.0,0.0,0.0,0.0,0.0,0.0,0.0,0.0,0.0,0.0,0.0,0.0,0.0,0.0,0.0,0.0,0.0,0.0,0.0,0.0,0.0,0.0,0.0,0.0,0.0,0.0,0.0,0.0,0.0,0.0,0.0,0.0,0.0,0.0,0.0,0.0,0.0,0.0,0.0,0.0,0.0,0.0,0.0,0.0,0.0,0.0,0.0,0.0,0.0,0.0,0.0,0.0,0.0,0.0,0.0,0.0,0.0,0.0,0.0,0.0,0.0,0.0,0.0,0.0,0.0,0.0,0.0,0.0,0.0,0.0,0.0,0.0,0.0,0.0,0.0,0.0,0.0,0.0,0.0,0.0,0.0,0.0,0.0,0.0,0.0,0.0,0.0,0.0,0.0,0.0,0.0,0.0,0.0,0.0,0.0,0.0,0.0,0.0,0.0,0.0,0.0,0.0,0.0,0.0,0.0,0.0,0.0,0.0,0.0,0.0,0.0,0.0,0.0,0.0,0.0,0.0,0.0,0.0,0.0,0.0,0.0,0.0,0.0,0.0,0.0,0.0,0.0,0.0,0.0,0.0,0.0,0.0,0.0,0.0,0.0,0.0,0.0,0.0,0.0,0.0,0.0,0.0,0.0,0.0,0.0,0.0,0.0,0.0,0.0,0.0,0.0,0.0,0.0,0.0,0.0,0.0,0.0,0.0,0.0,0.0,0.0,0.0,0.0,0.0,0.0,0.0,0.0,0.0,0.0,0.0,0.0,0.0,0.0,0.0,0.0,0.0,0.0,0.0,0.0,0.0,0.0,0.0,0.0,0.0,0.0,0.0,0.0,0.0,0.0,0.0,0.0,0.0,0.0,0.0,0.0,0.0,0.0,0.0,0.0,0.0,0.0,0.0,0.0,0.0,0.0,0.0,0.0,0.0,0.0,0.0,0.0,0.0,0.0,0.0,0.0,0.0,0.0,0.0,0.0,0.0,0.0,0.0,0.0,0.0,0.0,0.0,0.0,0.0,0.0,0.0,0.0,0.0,0.0,0.0,0.0,0.0,0.0,0.0,0.0,0.0,0.0,0.0,0.0,0.0,0.0,0.0,0.0,0.0,0.0,0.0,0.0,0.0,0.0,0.0,0.0,0.0,0.0,0.0,0.0,0.0,0.0,0.0,0.0,0.0,0.0,0.0,0.0,0.0,0.0,0.0,0.0,0.0,0.0,0.0,0.0,0.0,0.0,0.0,0.0,0.0,0.0,0.0,0.0,0.0,0.0,0.0,0.0,0.0,0.0,0.0,0.0,0.0,0.0,0.0,0.0,0.0,0.0,0.0,0.0,0.0,0.0,0.0,0.0,0.0,0.0,0.0,0.0,0.0,0.0,0.0,0.0,0.0,0.0,0.0,0.0,0.0,0.0,0.0,0.0,0.0,0.0,0.0,0.0,0.0,0.0,0.0,0.0,0.0,0.0,0.0,0.0,0.0,0.0,0.0,0.0,0.0,0.0,0.0,0.0,0.0,0.0,0.0,0.0,0.0,0.0,0.0,0.0,0.0,0.0,0.0,0.0,0.0,0.0,0.0,0.0,0.0,0.0,0.0,0.0,0.0,0.0,0.0,0.0,0.0,0.0,0.0,0.0,0.0,0.0,0.0,0.0,0.0,0.0,0.0,0.0,0.0,0.0,0.0,0.0,0.0,0.0,0.0,0.0,0.0,0.0,0.0,0.0,0.0,0.0,0.0,0.0,0.0,0.0,0.0,0.0,0.0,0.0,0.0,0.0,0.0,0.0,0.0,0.0,0.0,0.0,0.0,0.0,0.0,0.0,0.0,0.0,0.0,0.0,0.0,0.0,0.0,0.0,0.0,0.0,0.0,0.0,0.0,0.0,0.0,0.0,0.0,0.0,0.0,0.0,0.0,0.0,0.0,0.0,0.0,0.0,0.0,0.0,0.0,0.0,0.0,0.0,0.0,0.0,0.0,0.0,0.0,0.0,0.0,0.0,0.0,0.0,0.0,0.0,0.0,0.0,0.0,0.0,0.0,0.0,0.0,0.0,0.0,0.0,0.0,0.0,0.0,0.0,0.0,0.0,0.0,0.0,0.0,0.0,0.0,0.0,0.0,0.0,0.0,0.0,0.0,0.0,0.0,0.0,0.0,0.0,0.0,0.0,0.0,0.0,0.0,0.0,0.0,0.0,0.0,0.0,0.0,0.0,0.0,0.0,0.0,0.0,0.0,0.0,0.0,0.0,0.0,0.0,0.0,0.0,0.0,0.0,0.0,0.0,0.0,0.0,0.0,0.0,0.0,0.0,0.0,0.0,0.0,0.0,0.0,0.0,0.0,0.0,0.0,0.0,0.0,0.0,0.0,0.0,0.0,0.0,0.0,0.0,0.0,0.0,0.0,0.0,0.0,0.0,0.0,0.0,0.0,0.0,0.0,0.0,0.0,0.0,0.0,0.0,0.0,0.0,0.0,0.0,0.0,0.0,0.0,0.0,0.0,0.0,0.0,0.0,0.0,0.0,0.0,0.0,0.0,0.0,0.0,0.0,0.0,0.0,0.0,0.0,0.0,0.0,0.0,0.0,0.0,0.0,0.0,0.0,0.0,0.0,0.0,0.0,0.0,0.0,0.0,0.0,0.0,0.0,0.0,0.0,0.0,0.0,0.0,0.0,0.0,0.0,0.0,0.0,0.0,0.0,0.0,0.0,0.0,0.0,0.0,0.0,0.0,0.0,0.0,0.0,0.0,0.0,0.0,0.0,0.0,0.0,0.0,0.0,0.0,0.0,0.0,0.0,0.0,0.0,0.0,0.0,0.0,0.0,0.0,0.0,0.0,0.0,0.0,0.0,0.0,0.0,0.0,0.0,0.0,0.0,0.0,0.0,0.0,0.0,0.0,0.0,0.0,0.0,0.0,0.0,0.0,0.0,0.0,0.0,0.0,0.0,0.0,0.0,0.0,0.0,0.0,0.0,0.0,0.0,0.0,0.0,0.0,0.0,0.0,0.0,0.0,0.0,0.0,0.0,0.0,0.0,0.0,0.0,0.0,0.0,0.0,0.0,0.0,0.0,0.0,0.0,0.0,0.0,0.0,0.0,0.0,0.0,0.0,0.0,0.0,0.0,0.0,0.0,0.0,0.0,0.0,0.0,0.0,0.0,0.0,0.0,0.0,0.0,0.0,0.0,0.0,0.0,0.0,0.0,0.0,0.0,0.0,0.0,0.0,0.0,0.0,0.0,0.0,0.0,0.0,0.0,0.0,0.0,0.0,0.0,0.0,0.0,0.0,0.0,0.0,0.0,0.0,0.0,0.0,0.0,0.0,0.0,0.0,0.0,0.0,0.0,0.0,0.0,0.0,0.0,0.0,0.0,0.0,0.0,0.0,0.0,0.0,0.0,0.0,0.0,0.0,0.0,0.0,0.0,0.0,0.0,0.0,0.0,0.0,0.0,0.0,0.0,0.0,0.0,0.0,0.0,0.0,0.0,0.0,0.0,0.0,0.0,0.0,0.0,0.0,0.0,0.0,0.0,0.0,0.0,0.0,0.0,0.0,0.0,0.0,0.0,0.0,0.0,0.0,0.0,0.0,0.0,0.0,0.0,0.0,0.0,0.0,0.0,0.0,0.0,0.0,0.0,0.0,0.0,0.0,0.0,0.0,0.0,0.0,0.0,0.0,0.0,0.0,0.0,0.0,0.0,0.0,0.0,0.0,0.0,0.0,0.0,0.0,0.0,0.0,0.0,0.0,0.0,0.0,0.0,0.0,0.0,0.0,0.0,0.0,0.0,0.0,0.0,0.0,0.0,0.0,0.0,0.0,0.0,0.0,0.0,0.0,0.0,0.0,0.0,0.0,0.0,0.0,0.0,0.0,0.0,0.0,0.0,0.0,0.0,0.0,0.0,0.0,0.0,0.0,0.0,0.0,0.0,0.0,0.0,0.0,0.0,0.0,0.0,0.0,0.0,0.0,0.0,0.0,0.0,0.0,0.0,0.0,0.0,0.0,0.0,0.0,0.0,0.0,0.0,0.0,0.0,0.0,0.0,0.0,0.0,0.0,0.0,0.0,0.0,0.0,0.0,0.0,0.0,0.0,0.0,0.0,0.0,0.0,0.0,0.0,0.0,0.0,0.0,0.0,0.0,0.0,0.0,0.0,0.0,0.0,0.0,0.0,0.0,0.0,0.0,0.0,0.0,0.0,0.0,0.0,0.0,0.0,0.0,0.0,0.0,0.0,0.0,0.0,0.0,0.0,0.0,0.0,0.0,0.0,0.0,0.0,0.0,0.0,0.0,0.0,0.0,0.0,0.0,0.0,0.0,0.0,0.0,0.0,0.0,0.0,0.0,0.0,0.0,0.0,0.0,0.0,0.0,0.0,0.0,0.0,0.0,0.0,0.0,0.0,0.0,0.0,0.0,0.0,0.0,0.0,0.0,0.0,0.0,0.0,0.0,0.0,0.0,0.0,0.0,0.0,0.0,0.0,0.0,0.0,0.0,0.0,0.0,0.0,0.0,0.0,0.0,0.0,0.0,0.0,0.0,0.0,0.0,0.0,0.0,0.0,0.0,0.0,0.0,0.0,0.0,0.0,0.0,0.0,0.0,0.0,0.0,0.0,0.0,0.0,0.0,0.0,0.0,0.0,0.0,0.0,0.0,0.0,0.0,0.0,0.0,0.0,0.0,0.0,0.0,0.0,0.0,0.0,0.0,0.0,0.0,0.0,0.0,0.0,0.0,0.0,0.0,0.0,0.0,0.0,0.0,0.0,0.0,0.0,0.0,0.0,0.0,0.0,0.0,0.0,0.0,0.0,0.0,0.0,0.0,0.0,0.0,0.0,0.0,0.0,0.0,0.0,0.0,0.0,0.0,0.0,0.0,0.0,0.0,0.0,0.0,0.0,0.0,0.0,0.0,0.0,0.0,0.0,0.0,0.0,0.0,0.0,0.0,0.0,0.0,0.0,0.0,0.0,0.0,0.0,0.0,0.0,0.0,0.0,0.0,0.0,0.0,0.0,0.0,0.0,0.0,0.0,0.0,0.0,0.0,0.0,0.0,0.0,0.0,0.0,0.0,0.0,0.0,0.0,0.0,0.0,0.0,0.0,0.0,0.0,0.0,0.0,0.0,0.0,0.0,0.0,0.0,0.0,0.0,0.0,0.0,0.0,0.0,0.0,0.0,0.0,0.0,0.0,0.0,0.0,0.0,0.0,0.0,0.0,0.0,0.0,0.0,0.0,0.0,0.0,0.0,0.0,0.0,0.0,0.0,0.0,0.0,0.0,0.0,0.0,0.0,0.0,0.0,0.0,0.0,0.0,0.0,0.0,0.0,0.0,0.0,0.0,0.0,0.0,0.0,0.0,0.0,0.0,0.0,0.0,0.0,0.0,0.0,0.0,0.0,0.0,0.0,0.0,0.0,0.0,0.0,0.0,0.0,0.0,0.0,0.0,0.0,0.0,0.0,0.0,0.0,0.0,0.0,0.0,0.0,0.0,0.0,0.0,0.0,0.0,0.0,0.0,0.0,0.0,0.0,0.0,0.0,0.0,0.0,0.0,0.0,0.0,0.0,0.0,0.0,0.0,0.0,0.0,0.0,0.0,0.0,0.0,0.0,0.0,0.0,0.0,0.0,0.0,0.0,0.0,0.0,0.0,0.0,0.0,0.0,0.0,0.0,0.0,0.0,0.0,0.0,0.0,0.0,0.0,0.0,0.0,0.0,0.0,0.0,0.0,0.0,0.0,0.0,0.0,0.0,0.0,0.0,0.0,0.0,0.0,0.0,0.0,0.0,0.0,0.0,0.0,0.0,0.0,0.0,0.0,0.0,0.0,0.0,0.0,0.0,0.0,0.0,0.0,0.0,0.0,0.0,0.0,0.0,0.0,0.0,0.0,0.0,0.0,0.0,0.0,0.0,0.0,0.0,0.0,0.0,0.0,0.0,0.0,0.0,0.0,0.0,0.0,0.0,0.0,0.0,0.0,0.0,0.0,0.0,0.0,0.0,0.0,0.0,0.0,0.0,0.0,0.0,0.0,0.0,0.0,0.0,0.0,0.0,0.0,0.0,0.0,0.0,0.0,0.0,0.0,0.0,0.0,0.0,0.0,0.0,0.0,0.0,0.0,0.0,0.0,0.0,0.0,0.0,0.0,0.0,0.0,0.0,0.0,0.0,0.0,0.0,0.0,0.0,0.0,0.0,0.0,0.0,0.0,0.0,0.0,0.0,0.0,0.0,0.0,0.0,0.0,0.0,0.0,0.0,0.0,0.0,0.0,0.0,0.0,0.0,0.0,0.0,0.0,0.0,0.0,0.0,0.0,0.0,0.0,0.0,0.0,0.0,0.0,0.0,0.0,0.0,0.0,0.0,0.0,0.0,0.0,0.0,0.0,0.0,0.0,0.0,0.0,0.0,0.0,0.0,0.0,0.0,0.0,0.0,0.0,0.0,0.0,0.0,0.0,0.0,0.0,0.0,0.0,0.0,0.0,0.0,0.0,0.0,0.0,0.0,0.0,0.0,0.0,0.0,0.0,0.0,0.0,0.0,0.0,0.0,0.0,0.0,0.0,0.0,0.0,0.0,0.0,0.0,0.0,0.0,0.0,0.0,0.0,0.0,0.0,0.0,0.0,0.0,0.0,0.0,0.0,0.0,0.0,0.0,0.0,0.0,0.0,0.0,0.0,0.0,0.0,0.0,0.0,0.0,0.0,0.0,0.0,0.0,0.0,0.0,0.0,0.0,0.0,0.0,0.0,0.0,0.0,0.0,0.0,0.0,0.0,0.0,0.0,0.0,0.0,0.0,0.0,0.0,0.0,0.0,0.0,0.0,0.0,0.0,0.0,0.0,0.0,0.0,0.0,0.0,0.0,0.0,0.0,0.0,0.0,0.0,0.0,0.0,0.0,0.0,0.0,0.0,0.0,0.0,0.0,0.0,0.0,0.0,0.0,0.0,0.0,0.0,0.0,0.0,0.0,0.0,0.0,0.0,0.0,0.0,0.0,0.0,0.0,0.0,0.0,0.0,0.0,0.0,0.0,0.0,0.0,0.0,0.0,0.0,0.0,0.0,0.0,0.0,0.0,0.0,0.0,0.0,0.0,0.0,0.0,0.0,0.0,0.0,0.0,0.0,0.0,0.0,0.0,0.0,0.0,0.0,0.0,0.0,0.0,0.0,0.0,0.0,0.0,0.0,0.0,0.0,0.0,0.0,0.0,0.0,0.0,0.0,0.0,0.0,0.0,0.0,0.0,0.0,0.0,0.0,0.0,0.0,0.0,0.0,0.0,0.0,0.0,0.0,0.0,0.0,0.0,0.0,0.0,0.0,0.0,0.0,0.0,0.0,0.0,0.0,0.0,0.0,0.0,0.0,0.0,0.0,0.0,0.0,0.0,0.0,0.0,0.0,0.0,0.0,0.0,0.0,0.0,0.0,0.0,0.0,0.0,0.0,0.0,0.0,0.0,0.0,0.0,0.0,0.0,0.0,0.0,0.0,0.0,0.0,0.0,0.0,0.0,0.0,0.0,0.0,0.0,0.0,0.0,0.0,0.0,0.0,0.0,0.0,0.0,0.0,0.0,0.0,0.0,0.0,0.0,0.0,0.0,0.0,0.0,0.0,0.0,0.0,0.0,0.0,0.0,0.0,0.0,0.0,0.0,0.0,0.0,0.0,0.0,0.0,0.0,0.0,0.0,0.0,0.0,0.0,0.0,0.0,0.0,0.0,0.0,0.0,0.0,0.0,0.0,0.0,0.0,0.0,0.0,0.0,0.0,0.0,0.0,0.0,0.0,0.0,0.0,0.0,0.0,0.0,0.0,0.0,0.0,0.0,0.0,0.0,0.0,0.0,0.0,0.0,0.0,0.0,0.0,0.0,0.0,0.0,0.0,0.0,0.0,0.0,0.0,0.0,0.0,0.0,0.0,0.0,0.0,0.0,0.0,0.0,0.0,0.0,0.0,0.0,0.0,0.0,0.0,0.0,0.0,0.0,0.0,0.0,0.0,0.0,0.0,0.0,0.0,0.0,0.0,0.0,0.0,0.0,0.0,0.0,0.0,0.0,0.0,0.0,0.0,0.0,0.0,0.0,0.0,0.0,0.0,0.0,0.0,0.0,0.0,0.0,0.0,0.0,0.0,0.0,0.0,0.0,0.0,0.0,0.0,0.0,0.0,0.0,0.0,0.0,0.0,0.0,0.0,0.0,0.0,0.0,0.0,0.0,0.0,0.0,0.0,0.0,0.0,0.0,0.0,0.0,0.0,0.0,0.0,0.0,0.0,0.0,0.0,0.0,0.0,0.0,0.0,0.0,0.0,0.0,0.0,0.0,0.0,0.0,0.0,0.0,0.0,0.0,0.0,0.0,0.0,0.0,0.0,0.0,0.0,0.0,0.0,0.0,0.0,0.0,0.0,0.0,0.0,0.0,0.0,0.0,0.0,0.0,0.0,0.0,0.0,0.0,0.0,0.0,0.0,0.0,0.0,0.0,0.0,0.0,0.0,0.0,0.0,0.0,0.0,0.0,0.0,0.0,0.0,0.0,0.0,0.0,0.0,0.0,0.0,0.0,0.0,0.0,0.0,0.0,0.0,0.0,0.0,0.0,0.0,0.0,0.0,0.0,0.0,0.0,0.0,0.0,0.0,0.0,0.0,0.0,0.0,0.0,0.0,0.0,0.0,0.0,0.0,0.0,0.0,0.0,0.0,0.0,0.0,0.0,0.0,0.0,0.0,0.0,0.0,0.0,0.0,0.0,0.0,0.0,0.0,0.0,0.0,0.0,0.0,0.0,0.0,0.0,0.0,0.0,0.0,0.0,0.0,0.0,0.0,0.0,0.0,0.0,0.0,0.0,0.0,0.0,0.0,0.0,0.0,0.0,0.0,0.0,0.0,0.0,0.0,0.0,0.0,0.0,0.0,0.0,0.0,0.0,0.0,0.0,0.0,0.0,0.0,0.0,0.0,0.0,0.0,0.0,0.0,0.0,0.0,0.0,0.0,0.0,0.0,0.0,0.0,0.0,0.0,0.0,0.0,0.0,0.0,0.0,0.0,0.0,0.0,0.0,0.0,0.0,0.0,0.0,0.0,0.0,0.0,0.0,0.0,0.0,0.0,0.0,0.0,0.0,0.0,0.0,0.0,0.0,0.0,0.0,0.0,0.0,0.0,0.0,0.0,0.0,0.0,0.0,0.0,0.0,0.0,0.0,0.0,0.0,0.0,0.0,0.0,0.0,0.0,0.0,0.0,0.0,0.0,0.0,0.0,0.0,0.0,0.0,0.0,0.0,0.0,0.0,0.0,0.0,0.0,0.0,0.0,0.0,0.0,0.0,0.0,0.0,0.0,0.0,0.0,0.0,0.0,0.0,0.0,0.0,0.0,0.0,0.0,0.0,0.0,0.0,0.0,0.0,0.0,0.0,0.0,0.0,0.0,0.0,0.0,0.0,0.0,0.0,0.0,0.0,0.0,0.0,0.0,0.0,0.0,0.0,0.0,0.0,0.0,0.0,0.0,0.0,0.0,0.0,0.0,0.0,0.0,0.0,0.0,0.0,0.0,0.0,0.0,0.0,0.0,0.0,0.0,0.0,0.0,0.0,0.0,0.0,0.0,0.0,0.0,0.0,0.0,0.0,0.0,0.0,0.0,0.0,0.0,0.0,0.0,0.0,0.0,0.0,0.0,0.0,0.0,0.0,0.0,0.0,0.0,0.0,0.0,0.0,0.0,0.0,0.0,0.0,0.0,0.0,0.0,0.0,0.0,0.0,0.0,0.0,0.0,0.0,0.0,0.0,0.0,0.0,0.0,0.0,0.0,0.0,0.0,0.0,0.0,0.0,0.0,0.0,0.0,0.0,0.0,0.0,0.0,0.0,0.0,0.0,0.0,0.0,0.0,0.0,0.0,0.0,0.0,0.0,0.0,0.0,0.0,0.0,0.0,0.0,0.0,0.0,0.0,0.0,0.0,0.0,0.0,0.0,0.0,0.0,0.0,0.0,0.0,0.0,0.0,0.0,0.0,0.0,0.0,0.0,0.0,0.0,0.0,0.0,0.0,0.0,0.0,0.0,0.0,0.0,0.0,0.0,0.0,0.0,0.0,0.0,0.0,0.0,0.0,0.0,0.0,0.0,0.0,0.0,0.0,0.0,0.0,0.0,0.0,0.0,0.0,0.0,0.0,0.0,0.0,0.0,0.0,0.0,0.0,0.0,0.0,0.0,0.0,0.0,0.0,0.0,0.0,0.0,0.0,0.0,0.0,0.0,0.0,0.0,0.0,0.0,0.0,0.0,0.0,0.0,0.0,0.0,0.0,0.0,0.0,0.0,0.0,0.0,0.0,0.0,0.0,0.0,0.0,0.0,0.0,0.0,0.0,0.0,0.0,0.0,0.0,0.0,0.0,0.0,0.0,0.0,0.0,0.0,0.0,0.0,0.0,0.0,0.0,0.0,0.0,0.0,0.0,0.0,0.0,0.0,0.0,0.0,0.0,0.0,0.0,0.0,0.0,0.0,0.0,0.0,0.0,0.0,0.0,0.0,0.0,0.0,0.0,0.0,0.0,0.0,0.0,0.0,0.0,0.0,0.0,0.0,0.0,0.0,0.0,0.0,0.0,0.0,0.0,0.0,0.0,0.0,0.0,0.0,0.0,0.0,0.0,0.0,0.0,0.0,0.0,0.0,0.0,0.0,0.0,0.0,0.0,0.0,0.0,0.0,0.0,0.0,0.0,0.0,0.0,0.0,0.0,0.0,0.0,0.0,0.0,0.0,0.0,0.0,0.0,0.0,0.0,0.0,0.0,0.0,0.0,0.0,0.0,0.0,0.0,0.0,0.0,0.0,0.0,0.0,0.0,0.0,0.0,0.0,0.0,0.0,0.0,0.0,0.0,0.0,0.0,0.0,0.0,0.0,0.0,0.0,0.0,0.0,0.0,0.0,0.0,0.0,0.0,0.0,0.0,0.0,0.0,0.0,0.0,0.0,0.0,0.0,0.0,0.0,0.0,0.0,0.0,0.0,0.0,0.0,0.0,0.0,0.0,0.0,0.0,0.0,0.0,0.0,0.0,0.0,0.0,0.0,0.0,0.0,0.0,0.0,0.0,0.0,0.0,0.0,0.0,0.0,0.0,0.0,0.0,0.0,0.0,0.0,0.0,0.0,0.0,0.0,0.0,0.0,0.0,0.0,0.0,0.0,0.0,0.0,0.0,0.0,0.0,0.0,0.0,0.0,0.0,0.0,0.0,0.0,0.0,0.0,0.0,0.0,0.0,0.0,0.0,0.0,0.0,0.0,0.0,0.0,0.0,0.0,0.0,0.0,0.0,0.0,0.0,0.0,0.0,0.0,0.0,0.0,0.0,0.0,0.0,0.0,0.0,0.0,0.0,0.0,0.0,0.0,0.0,0.0,0.0,0.0,0.0,0.0,0.0,0.0,0.0,0.0,0.0,0.0,0.0,0.0,0.0,0.0,0.0,0.0,0.0,0.0,0.0,0.0,0.0,0.0,0.0,0.0,0.0,0.0,0.0,0.0,0.0,0.0,0.0,0.0,0.0,0.0,0.0,0.0,0.0,0.0,0.0,0.0,0.0,0.0,-0.5856,0.0,0.0,0.0,0.0,0.0,0.0,0.0,0.0,0.0,0.0,0.0,0.0,0.0,0.0,0.0,0.0,0.0,0.0,0.0,0.0,0.0,0.0,0.0,0.0,0.0,0.0,0.0,0.0,0.0,0.0,0.0,0.0,0.0,0.0,0.0,0.0,0.0,0.0,0.0,0.0,0.0,0.0,0.0,0.0,0.0,0.0,0.0,0.0,0.0,0.0,0.0,0.0,0.0,0.0,0.0,0.0,0.0,0.0,0.0,0.0,0.0,0.0,0.0,0.0,0.0,0.0,0.0,0.0,0.0,0.0,0.0,0.0,0.0,0.0,0.0,0.0,0.0,0.0,0.0,0.0,0.0,0.0,0.0,0.0,0.0,0.0,0.0,0.0,0.0,0.0,0.0,0.0,0.0,0.0,0.0,0.0,0.0,0.0,0.0,0.0,0.0,0.0,0.0,0.0,0.0,0.0,0.0,0.0,0.0,0.0,0.0,0.0,0.0,0.0,0.0,0.0,0.0,0.0,0.0,0.0,0.0,0.0,0.0,0.0,0.0,0.0,0.0,0.0,0.0,0.0,0.0,0.0,0.0,0.0,0.0,0.0,0.0,0.0,0.0,0.0,0.0,0.0,0.0,0.0,0.0,0.0,0.0,0.0,0.0,0.0,0.0,0.0,0.0,0.0,0.0,0.0,0.0,0.0,0.0,0.0,0.0,0.0,0.0,0.0,0.0,0.0,0.0,0.0,0.0,0.0,0.0,0.0,0.0,0.0,0.0,0.0,0.0,0.0,0.0,0.0,0.0,0.0,0.0,0.0,0.0,0.0,0.0,0.0,0.0,0.0,0.0,0.0,0.0,0.0,0.0,0.0,0.0,0.0,0.0,0.0,0.0,0.0,0.0,0.0,0.0,0.0,0.0,0.0,0.0,0.0,0.0,0.0,0.0,0.0,0.0,0.0,0.0,0.0,0.0,0.0,-0.8208,-0.3738,0.0,0.0,0.0,0.0,0.0,0.0,0.0,0.0,-0.8133,0.0,0.0,0.0,0.0,0.0,0.0,0.0,0.0,0.0,0.0,0.0,0.0,0.0,0.0,0.0,0.0,0.0,0.0,0.0,0.0,0.0,0.0,0.0,0.0,0.0,0.0,0.0,0.0,0.0,0.0,0.0,0.0,0.0,0.0,0.0,0.0,0.0,0.0,0.0,0.0,0.0,0.0,0.0,0.0,0.0,0.0,0.0,0.0,0.0,0.0,0.0,0.0,0.0,0.0,0.0,0.0,0.0,0.0,0.0,0.0,0.0,0.0,0.0,0.0,0.0,0.0,0.0,0.0,0.0,0.0,0.0,0.0,0.0,0.0,0.0,0.0,0.0,0.0,0.0,0.0,0.0,0.0,0.0,0.0,0.0,0.0,0.0,0.0,0.0,0.0,0.0,0.0,0.0,0.0,0.0,0.0,0.0,0.0,0.0,0.0,0.0,0.0,0.0,0.0,0.0,-0.3718,-0.0407,0.0,0.0,0.0,0.0,0.0,0.0,0.0,0.0,-0.3179,0.0,0.0,0.0,0.0,0.0,0.0,0.0,0.0,0.0,0.0,0.0,0.0,0.0,0.0,0.0,0.0,0.0,0.0,0.0,0.0,0.0,0.0,0.0,0.0,0.0,0.0,0.0,0.0,0.0,0.0,0.0,0.0,0.0,0.0,0.0,0.0,0.0,0.0,0.0,0.0,0.0,0.0,0.0,0.0,0.0,0.0,0.0,0.0,0.0,0.0,0.0,0.0,0.0,0.0,0.0,0.0,0.0,0.0,0.0,0.0,0.0,0.0,0.0,0.0,0.0,0.0,0.0,0.0,0.0,0.0,0.0,0.0,0.0,0.0,0.0,0.0,0.0,0.0,0.0,0.0,0.0,0.0,0.0,0.0,0.0,0.0,0.0,0.0,0.0,0.0,0.0,0.0,0.0,0.0,0.0,0.0,0.0,0.0,0.0,0.0,0.0,0.0,0.0,0.0,-0.1806,0.0,0.0,0.0,0.0,0.0,0.0,0.0,0.0,-0.1898,-0.1968,0.0,0.0,0.0,0.0,0.0,0.0,0.0,0.0,0.0,0.0,0.0,0.0,0.0,0.0,0.0,0.0,0.0,0.0,0.0,0.0,0.0,0.0,0.0,0.0,0.0,0.0,0.0,0.0,0.0,0.0,0.0,0.0,0.0,0.0,0.0,0.0,0.0,0.0,0.0,0.0,0.0,0.0,0.0,0.0,0.0,0.0,0.0,0.0,0.0,0.0,0.0,0.0,0.0,0.0,0.0,0.0,0.0,0.0,0.0,0.0,0.0,0.0,0.0,0.0,0.0,0.0,0.0,0.0,0.0,0.0,0.0,0.0,0.0,0.0,0.0,0.0,0.0,0.0,0.0,0.0,0.0,0.0,0.0,0.0,0.0,0.0,0.0,0.0,0.0,0.0,0.0,0.0,0.0,0.0,0.0,0.0,0.0,0.0,0.0,0.0,0.0,0.0,0.0,0.0,0.0,0.0,0.0,0.0,0.0,0.0,0.0,0.0,0.0,0.0,0.0,0.0,0.0,0.0,0.0,0.0,0.0,0.0,0.0,0.0,0.0,0.0,0.0,0.0,0.0,0.0,0.0,0.0,0.0,0.0,0.0,0.0,0.0,0.0,0.0,0.0,0.0,0.0,0.0,0.0,0.0,0.0,0.0,0.0,0.0,0.0,0.0,0.0,0.0,0.0,0.0,0.0,0.0,0.0,0.0,0.0,0.0,0.0,0.0,0.0,0.0,0.0,0.0,0.0,0.0,0.0,0.0,0.0,0.0,0.0,0.0,0.0,0.0,0.0,0.0,0.0,0.0,0.0,0.0,0.0,0.0,0.0,0.0,0.0,0.0,0.0,0.0,0.0,0.0,0.0,0.0,0.0,0.0,0.0,0.0,0.0,0.0,0.0,0.0,0.0,0.0,0.0,0.0,0.0,0.0,0.0,0.0,0.0,0.0,0.0,0.0,0.0,0.0,0.0,0.0,0.0,0.0,0.0,0.0,0.0,0.0,0.0,0.0,-0.0,0.0,0.0,0.0,0.0,0.0,0.0,0.0,0.0,0.0,0.0,0.0,0.0,0.0,0.0,0.0,0.0,0.0,0.0,0.0,0.0,0.0,0.0,0.0,0.0,0.0,0.0,0.0,0.0,0.0,0.0,0.0,0.0,0.0,0.0,0.0,0.0,0.0,0.0,0.0,0.0,0.0,0.0,0.0,0.0,0.0,0.0,0.0,0.0,0.0,0.0,0.0,0.0,0.0,0.0,0.0,0.0,0.0,0.0,0.0,0.0,0.0,0.0,0.0,0.0,0.0,0.0,0.0,0.0,0.0,0.0,0.0,0.0,0.0,0.0,0.0,0.0,0.0,0.0,0.0,0.0,0.0,0.0,0.0,0.0,0.0,0.0,0.0,0.0,0.0,0.0,0.0,0.0,0.0,0.0,0.0,0.0,0.0,0.0,0.0,0.0,0.0,0.0,0.0,0.0,0.0,0.0,0.0,0.0,0.0,0.0,0.0,0.0,0.0,0.0,0.0,0.0,0.0,0.0,0.0,0.0,0.0,0.0,0.0,0.0,0.0,0.0,0.0,0.0,0.0,0.0,0.0,0.0,0.0,0.0,0.0,0.0,0.0,0.0,0.0,0.0,0.0,0.0,0.0,0.0,0.0,0.0,0.0,0.0,0.0,0.0,0.0,0.0,0.0,0.0,0.0,0.0,0.0,0.0,0.0,0.0,0.0,0.0,0.0,0.0,0.0,0.0,0.0,0.0,0.0,0.0,0.0,0.0,0.0,0.0,0.0,0.0,0.0,0.0,0.0,0.0,0.0,0.0,0.0,0.0,0.0,0.0,0.0,0.0,0.0,0.0,0.0,0.0,0.0,0.0,0.0,0.0,0.0,0.0,0.0,0.0,0.0,0.0,0.0,0.0,0.0,0.0,0.0,0.0,0.0,0.0,0.0,0.0,0.0,0.0,0.0,0.0,0.0,0.0,0.0,0.0,0.0,0.0,0.0,0.0,0.0,0.0,0.0,0.0,0.0,0.0,0.0,0.0,0.0,0.0,0.0,0.0,0.0,0.0,0.0,0.0,0.0,0.0,0.0,0.0,0.0,0.0,0.0,0.0,0.0,0.0,0.0,0.0,0.0,0.0,0.0,0.0,0.0,0.0,0.0,0.0,0.0,0.0,0.0,0.0,0.0,0.0,0.0,0.0,0.0,0.0,0.0,0.0,0.0,0.0,0.0,0.0,0.0,0.0,0.0,0.0,0.0,0.0,0.0,0.0,0.0,0.0,0.0,0.0,0.0,0.0,0.0,0.0,0.0,0.0,0.0,0.0,0.0,0.0,0.0,0.0,0.0,0.0,0.0,0.0,0.0,0.0,0.0,0.0,0.0,0.0,0.0,0.0,0.0,0.0,0.0,0.0,0.0,0.0,0.0,0.0,0.0,0.0,0.0,0.0,0.0,0.0,0.0,0.0,0.0,0.0,0.0,0.0,0.0,0.0,0.0,0.0,0.0,0.0,0.0,0.0,0.0,0.0,0.0,0.0,0.0,0.0,0.0,0.0,0.0,0.0,0.0,0.0,0.0,0.0,0.0,0.0,0.0,0.0,0.0,0.0,0.0,0.0,0.0,0.0,0.0,0.0,0.0,0.0,0.0,0.0,0.0,0.0,0.0,0.0,0.0,0.0,0.0,0.0,0.0,0.0,0.0,0.0,0.0,0.0,0.0,0.0,0.0,0.0,0.0,0.0,0.0,0.0,0.0,0.0,0.0,0.0,0.0,0.0,0.0,0.0,0.0,0.0,0.0,0.0,0.0,0.0,0.0,0.0,0.0,0.0,0.0,0.0,0.0,0.0,0.0,0.0,0.0,0.0,0.0,0.0,0.0,0.0,0.0,0.0,0.0,0.0,0.0,0.0,0.0,0.0,0.0,0.0,0.0,0.0,0.0,0.0,0.0,0.0,0.0,0.0,0.0,0.0,0.0,0.0,0.0,0.0,0.0,0.0,0.0,0.0,0.0,0.0,0.0,0.0,0.0,0.0,0.0,0.0,0.0,0.0,0.0,0.0,0.0,0.0,0.0,0.0,0.0,0.0,0.0,0.0,0.0,0.0,0.0,0.0,0.0,0.0,0.0,0.0,0.0,0.0,0.0,0.0,0.0,0.0,0.0,0.0,0.0,0.0,0.0,0.0,0.0,0.0,0.0,0.0,0.0,0.0,0.0,0.0,0.0,0.0,0.0,0.0,0.0,0.0,0.0,0.0,0.0,0.0,0.0,0.0,0.0,0.0,0.0,0.0,0.0,0.0,0.0,0.0,0.0,0.0,0.0,0.0,0.0,0.0,0.0,0.0,0.0,0.0,0.0,0.0,0.0,0.0,0.0,0.0,0.0,0.0,0.0,0.0,0.0,0.0,0.0,0.0,0.0,0.0,0.0,0.0,0.0,0.0,0.0,0.0,0.0,0.0,0.0,0.0,0.0,0.0,0.0,0.0,0.0,0.0,0.0,0.0,0.0,0.0,0.0,0.0,0.0,0.0,0.0,0.0,0.0,0.0,0.0,0.0,0.0,0.0,0.0,0.0,0.0,0.0,0.0,0.0,0.0,0.0,0.0,0.0,0.0,0.0,0.0,0.0,0.0,0.0,0.0,0.0,0.0,0.0,0.0,0.0,0.0,0.0,0.0,0.0,0.0,0.0,0.0,0.8917,0.0,0.0,0.896,0.0,0.0,0.0,0.0,0.0,0.0,0.0,0.0,0.0,0.0,0.0,0.0,0.0,0.0,0.0,0.0,0.0,0.0,0.0,0.0,0.0,0.0,0.0,0.0,0.0,0.0,0.0,0.0,0.0,0.0,0.0,0.0,0.0,0.0,0.0,0.0,0.0,0.0,0.0,0.0,0.0,0.0,0.0,0.0,0.0,0.0,0.0,0.0,0.0,0.0,0.0,0.0,0.0,0.0,0.0,0.0,0.0,0.0,0.0,0.0,0.0,0.0,0.0,0.0,0.0,0.0,0.0,0.0,0.0,0.0,0.0,0.0,0.0,0.0,0.0,0.0,0.0,0.0,0.0,0.0,0.0,0.0,0.0,0.0,0.0,0.0,0.0,0.0,0.0,0.0,0.0,0.0,0.0,0.0,0.0,0.0,0.0,0.0,0.0,0.0,0.0,0.0,0.0,0.0,0.0,0.0,0.0,0.0,0.0,0.0,0.9509,0.941,0.0,0.0,0.0,0.0,0.0,0.0,0.0,0.0,0.0,0.0,0.0,1.5223,1.5037,0.0,0.0,0.0,0.0,0.0,0.0,0.0,0.0,0.0,0.0,0.0,0.0,0.0,0.0,0.0,0.0,0.0,0.0,0.0,0.0,0.0,0.0,0.0,0.0,0.0,0.0,0.0,0.0,0.0,0.0,0.0,0.0,0.0,0.0,0.0,0.0,0.0,0.0,0.0,0.0,0.0,0.0,0.0,0.0,0.0,0.0,0.0,0.0,0.0,0.0,0.0,0.0,0.0,0.0,0.0,0.0,0.0,0.0,0.0,0.0,0.0,0.0,0.0,0.0,0.0,0.0,0.0,0.0,0.0,0.0,0.0,0.0,0.0,0.0,0.0,0.0,0.0,0.0,0.0,0.0,0.0,0.0,0.0,0.0,0.0,0.0,0.0,0.0,0.0,0.0,0.0,0.0,0.0,0.0,0.0,0.0,0.0,0.0,0.0,0.0,1.1695,0.0,1.0829,0.0,0.0,0.0,0.0,0.0,0.0,0.0,0.0,1.4098,1.5344,1.5469,1.5615,1.5876,0.0,1.519,1.2665,0.0,0.0,0.0,0.0,0.0,0.0,0.0,0.0,0.0,0.0,0.0,0.0,0.0,0.0,0.0,0.0,0.0,0.0,0.0,0.0,0.0,0.0,0.0,0.0,0.0,0.0,0.0,0.0,0.0,0.0,0.0,0.0,0.0,0.0,0.0,0.0,0.0,0.0,0.0,0.0,0.0,0.0,0.0,0.0,0.0,0.0,0.0,0.0,0.0,0.0,0.0,0.0,0.0,0.0,0.0,0.0,0.0,0.0,0.0,0.0,0.0,0.0,0.0,0.0,0.0,0.0,0.0,0.0,0.0,0.0,0.0,0.0,0.0,0.0,0.0,0.0,0.0,0.0,0.0,0.0,0.0,0.0,0.0,0.0,0.0,0.0,0.0,0.0,0.0,0.0,0.0,0.0,0.0,0.0,0.0,1.3856,1.5065,0.0,1.3929,0.0,0.0,0.0,0.0,0.0,1.0878,0.0,0.0,1.4008,1.5622,1.6022,1.6036,1.6321,1.6461,1.5897,1.5897,1.5779,0.58,0.0,0.0,0.0,0.0,0.0,0.0,0.0,0.0,0.0,0.0,0.0,0.0,0.0,0.0,0.0,0.0,0.0,0.0,0.0,0.0,0.0,0.0,0.0,0.0,0.0,0.0,0.0,0.0,0.0,0.0,0.0,0.0,0.0,0.0,0.0,0.0,0.0,0.0,0.0,0.0,0.0,0.0,0.0,0.0,0.0,0.0,0.0,0.0,0.0,0.0,0.0,0.0,0.0,0.0,0.0,0.0,0.0,0.0,0.0,0.0,0.0,0.0,0.0,0.0,0.0,0.0,0.0,0.0,0.0,0.0,0.0,0.0,0.0,0.0,0.0,0.0,0.0,0.0,0.0,0.0,0.0,0.0,0.0,0.0,0.0,1.3498,0.0,0.0,0.0,0.0,1.2337,1.2424,1.274,1.4421,1.5451,1.5833,1.5225,0.0,0.0,0.0,0.0,0.0,0.0,1.2749,1.3138,1.4906,1.5883,1.6196,1.611,1.6241,1.6385,1.6144,1.6191,1.6508,1.3672,0.8109,0.0337,0.0,0.0,0.0,0.0,0.0,0.0,0.0,0.0,0.0,0.0,0.0,0.0,0.0,0.0,0.0,0.0,0.0,0.0,0.0,0.0,0.0,0.0,0.0,0.0,0.0,0.0,0.0,0.0,0.0,0.0,0.0,0.0,0.0,0.0,0.0,0.0,0.0,0.0,0.0,0.0,0.0,0.0,0.0,0.0,0.0,0.0,0.0,0.0,0.0,0.0,0.0,0.0,0.0,0.0,0.0,0.0,0.0,0.0,0.0,0.0,0.0,0.0,0.0,0.0,0.0,0.0,0.0,0.0,0.0,0.0,0.0,0.0,0.0,0.0,0.0,0.0,0.0,0.0,0.0,0.0,0.0,0.0,0.0,1.4719,1.4109,1.3614,1.3553,1.379,1.3265,1.3468,1.4087,1.4792,1.554,1.6162,1.5809,1.5075,1.3912,1.3559,0.0,0.0,0.0,1.4134,1.4695,1.5657,1.6084,1.6144,1.6042,1.6225,1.668,1.6307,1.6497,1.7012,1.6951,1.3615,0.7126,0.0,0.0,0.0,0.0,0.0,0.0,0.0,0.0,0.0,0.0,0.0,0.0,0.0,0.0,0.0,0.0,0.0,0.0,0.0,0.0,0.0,0.0,0.0,0.0,0.0,0.0,0.0,0.0,0.0,0.0,0.0,0.0,0.0,0.0,0.0,0.0,0.0,0.0,0.0,0.0,0.0,0.0,0.0,0.0,0.0,0.0,0.0,0.0,0.0,0.0,0.0,0.0,0.0,0.0,0.0,0.0,0.0,0.0,0.0,0.0,0.0,0.0,0.0,0.0,0.0,0.0,0.0,0.0,0.0,0.0,0.0,0.0,0.0,0.0,0.0,0.0,0.0,0.0,0.0,0.0,0.0,0.0,0.0,1.5676,1.5588,1.4631,1.4455,1.4618,1.3865,1.4164,1.5241,1.5185,1.5576,1.6077,1.6158,1.5622,1.4828,1.4428,0.0,1.5276,1.4689,1.4976,1.6117,1.6117,1.6117,1.6117,1.6117,1.6341,1.6955,1.6334,1.6571,1.7351,1.6998,1.6904,1.708,0.6801,0.1481,0.147,0.0,0.0,0.0,0.0,0.0,0.0,0.0,0.0,0.0,0.0,0.0,0.0,0.0,0.0,0.0,0.0,0.0,0.0,0.0,0.0,0.0,0.0,0.0,0.0,0.0,0.0,0.0,0.0,0.0,0.0,0.0,0.0,0.0,0.0,0.0,0.0,0.0,0.0,0.0,0.0,0.0,0.0,0.0,0.0,0.0,0.0,0.0,0.0,0.0,0.0,0.0,0.0,0.0,0.0,0.0,0.0,0.0,0.0,0.0,0.0,0.0,0.0,0.0,0.0,0.0,0.0,0.0,0.0,0.0,0.0,0.0,0.0,0.0,0.0,0.0,0.0,0.0,0.0,0.0,0.0,1.5974,1.5954,1.5703,1.5533,1.5425,1.5227,1.5308,1.5455,1.5791,1.6035,1.6021,1.6199,1.5961,1.5764,1.5771,1.5872,1.6042,1.5837,1.5764,1.6199,1.6205,1.6205,1.6205,1.6212,1.653,1.652,1.6639,1.6815,1.7236,1.7256,1.7344,1.7284,1.481,1.3675,1.3264,0.4646,0.0,0.0,0.0,0.0,0.0,0.0,0.0,0.0,0.0,0.0,0.0,0.0,0.0,0.0,0.0,0.0,0.0,0.0,0.0,0.0,0.0,0.0,0.0,0.0,0.0,0.0,0.0,0.0,0.0,0.0,0.0,0.0,0.0,0.0,0.0,0.0,0.0,0.0,0.0,0.0,0.0,0.0,0.0,0.0,0.0,0.0,0.0,0.0,0.0,0.0,0.0,0.0,0.0,0.0,0.0,0.0,0.0,0.0,0.0,0.0,0.0,0.0,0.0,0.0,0.0,0.0,0.0,0.0,0.0,0.0,0.0,0.0,0.0,0.0,0.0,0.0,0.0,0.0,0.0,1.6083,1.6083,1.6083,1.5988,1.5839,1.5832,1.5839,1.5839,1.6124,1.6158,1.6165,1.6117,1.6218,1.6286,1.6368,1.6402,1.6402,1.6402,1.6239,1.6306,1.6517,1.6517,1.6517,1.6728,1.6646,1.6634,1.6849,1.7039,1.7385,1.7548,1.7697,1.7619,1.7847,1.8145,1.7833,0.611,0.0,0.0,0.0,0.0,0.0,0.0,0.0,0.0,0.0,0.0,0.0,0.0,0.0,0.0,0.0,0.0,0.0,0.0,0.0,0.0,0.0,0.0,0.0,0.0,0.0,0.0,0.0,0.0,0.0,0.0,0.0,0.0,0.0,0.0,0.0,0.0,0.0,0.0,0.0,0.0,0.0,0.0,0.0,0.0,0.0,0.0,0.0,0.0,0.0,0.0,0.0,0.0,0.0,0.0,0.0,0.0,0.0,0.0,0.0,0.0,0.0,0.0,0.0,0.0,0.0,0.0,0.0,0.0,0.0,0.0,0.0,0.0,0.0,0.0,0.0,0.0,0.0,0.0,0.0,1.6137,1.6137,1.6137,1.6137,1.6137,1.6137,1.6117,1.6083,1.6103,1.6117,1.6144,1.6279,1.6408,1.6517,1.6517,1.653,1.6551,1.6551,1.6564,1.6585,1.6797,1.7002,1.7002,1.7023,1.6962,1.7005,1.7066,1.7297,1.7677,1.784,1.7989,1.7893,1.8034,1.8195,1.8356,0.7822,0.1603,0.0,0.0,0.0,0.0,0.0,0.0,0.0,0.0,0.0,0.0,0.0,0.0,0.0,0.0,0.0,0.0,0.0,0.0,0.0,0.0,0.0,0.0,0.0,0.0,0.0,0.0,0.0,0.0,0.0,0.0,0.0,0.0,0.0,0.0,0.0,0.0,0.0,0.0,0.0,0.0,0.0,0.0,0.0,0.0,0.0,0.0,0.0,0.0,0.0,0.0,0.0,0.0,0.0,0.0,0.0,0.0,0.0,0.0,0.0,0.0,0.0,0.0,0.0,0.0,0.0,0.0,0.0,0.0,0.0,0.0,0.0,0.0,0.0,0.0,0.0,0.0,0.0,0.0,1.6442,1.6435,1.6435,1.6435,1.6435,1.6225,1.6098,1.609,1.6212,1.6125,1.6435,1.6469,1.6497,1.6517,1.6517,1.6592,1.6707,1.6493,1.6567,1.6897,1.6897,1.6897,1.7113,1.7229,1.7312,1.7387,1.7528,1.7738,1.7826,1.8097,1.8247,1.828,1.8188,1.8525,1.8613,0.0,0.0,0.0,0.0,0.0,0.0,0.0,0.0,0.0,0.0,0.0,0.0,0.0,0.0,0.0,0.0,0.0,0.0,0.0,0.0,0.0,0.0,0.0,0.0,0.0,0.0,0.0,0.0,0.0,0.0,0.0,0.0,0.0,0.0,0.0,0.0,0.0,0.0,0.0,0.0,0.0,0.0,0.0,0.0,0.0,0.0,0.0,0.0,0.0,0.0,0.0,0.0,0.0,0.0,0.0,0.0,0.0,0.0,0.0,0.0,0.0,0.0,0.0,0.0,0.0,0.0,0.0,0.0,0.0,0.0,0.0,0.0,0.0,0.0,0.0,0.0,0.0,0.0,0.0,0.0,1.6517,1.6517,1.6517,1.6517,0.0,1.6312,1.6232,1.6307,1.6172,1.6292,1.6838,1.6639,1.668,1.6748,1.6748,1.6788,1.6863,1.6863,1.6735,1.708,1.708,1.6909,1.6982,1.727,1.7566,1.7871,1.7944,1.7901,1.7989,1.828,1.8464,1.8302,1.845,1.857,1.8898,1.9074,1.2874,0.0,0.0,0.0,0.0,0.0,0.0,0.0,0.0,0.0,0.0,0.0,0.0,0.0,0.0,0.0,0.0,0.0,0.0,0.0,0.0,0.0,0.0,0.0,0.0,0.0,0.0,0.0,0.0,0.0,0.0,0.0,0.0,0.0,0.0,0.0,0.0,0.0,0.0,0.0,0.0,0.0,0.0,0.0,0.0,0.0,0.0,0.0,0.0,0.0,0.0,0.0,0.0,0.0,0.0,0.0,0.0,0.0,0.0,0.0,0.0,0.0,0.0,0.0,0.0,0.0,0.0,0.0,0.0,0.0,0.0,0.0,0.0,0.0,0.0,0.0,0.0,0.0,0.0,1.668,1.668,1.668,1.668,1.668,1.668,1.668,1.6673,0.0,0.0,0.0,1.6856,1.6924,1.7019,1.7046,1.706,1.706,1.706,1.7121,1.7009,1.7016,1.7083,1.7197,1.7446,1.7765,1.8368,1.8088,1.8036,1.8219,1.8484,1.845,1.8364,1.8724,1.8858,1.8992,1.955,1.4475,0.3858,0.1206,0.0,0.0,0.0,0.0,0.0,0.0,0.0,0.0,0.0,0.0,0.0,0.0,0.0,0.0,0.0,0.0,0.0,0.0,0.0,0.0,0.0,0.0,0.0,0.0,0.0,0.0,0.0,0.0,0.0,0.0,0.0,0.0,0.0,0.0,0.0,0.0,0.0,0.0,0.0,0.0,0.0,0.0,0.0,0.0,0.0,0.0,0.0,0.0,0.0,0.0,0.0,0.0,0.0,0.0,0.0,0.0,0.0,0.0,0.0,0.0,0.0,0.0,0.0,0.0,0.0,0.0,0.0,0.0,0.0,0.0,0.0,0.0,0.0,0.0,0.0,0.0,1.729,1.7297,1.7297,1.7297,1.729,1.7076,1.6856,1.6836,1.6815,1.6992,1.6922,1.727,1.7263,1.7168,1.7297,1.7358,1.7358,1.7358,1.715,1.6948,1.7607,1.7843,1.7871,1.7786,1.7923,1.8302,1.8349,1.8396,1.866,1.8843,1.8758,1.8878,1.8918,1.925,1.964,1.9542,1.8882,1.6686,0.5876,0.0,0.0,0.0,0.0,0.0,0.0,0.0,0.0,0.0,0.0,0.0,0.0,0.0,0.0,0.0,0.0,0.0,0.0,0.0,0.0,0.0,0.0,0.0,0.0,0.0,0.0,0.0,0.0,0.0,0.0,0.0,0.0,0.0,0.0,0.0,0.0,0.0,0.0,0.0,0.0,0.0,0.0,0.0,0.0,0.0,0.0,0.0,0.0,0.0,0.0,0.0,0.0,0.0,0.0,0.0,0.0,0.0,0.0,0.0,0.0,0.0,0.0,0.0,0.0,0.0,0.0,0.0,0.0,0.0,0.0,0.0,0.0,0.0,0.0,0.0,0.0,1.7419,1.7419,1.7419,1.7419,1.7419,1.7197,1.725,1.7528,1.7405,1.7552,1.7538,1.7392,1.7385,1.7324,1.7392,1.7419,1.7419,1.7419,1.7244,1.7317,1.7548,1.7806,1.7895,1.8047,1.8239,1.8465,1.8457,1.8715,1.8986,1.9074,1.9176,1.9073,1.9406,1.9488,1.9805,1.963,1.9685,1.9481,1.3786,0.7123,0.0,0.0,0.0,0.0,0.0,0.0,0.0,0.0,0.0,0.0,0.0,0.0,0.0,0.0,0.0,0.0,0.0,0.0,0.0,0.0,0.0,0.0,0.0,0.0,0.0,0.0,0.0,0.0,0.0,0.0,0.0,0.0,0.0,0.0,0.0,0.0,0.0,0.0,0.0,0.0,0.0,0.0,0.0,0.0,0.0,0.0,0.0,0.0,0.0,0.0,0.0,0.0,0.0,0.0,0.0,0.0,0.0,0.0,0.0,0.0,0.0,0.0,0.0,0.0,0.0,0.0,0.0,0.0,0.0,0.0,0.0,0.0,0.0,0.0,0.0,1.7521,1.7521,1.7521,1.7521,1.7521,1.7555,1.7623,1.793,1.7992,1.7944,1.8024,1.7758,1.75,1.748,1.7541,1.7575,1.7575,1.7609,1.769,1.7565,1.7572,1.7632,1.7968,1.8349,1.8562,1.8816,1.8742,1.8966,1.9223,1.925,1.9332,1.9233,1.9603,1.9664,1.9664,1.9664,1.9678,1.9719,1.9759,1.3301,0.0,0.0,0.0,0.0,0.0,0.0,0.0,0.0,0.0,0.0,0.0,0.0,0.0,0.0,0.0,0.0,0.0,0.0,0.0,0.0,0.0,0.0,0.0,0.0,0.0,0.0,0.0,0.0,0.0,0.0,0.0,0.0,0.0,0.0,0.0,0.0,0.0,0.0,0.0,0.0,0.0,0.0,0.0,0.0,0.0,0.0,0.0,0.0,0.0,0.0,0.0,0.0,0.0,0.0,0.0,0.0,0.0,0.0,0.0,0.0,0.0,0.0,0.0,0.0,0.0,0.0,0.0,0.0,0.0,0.0,0.0,0.0,0.0,0.0,0.0,1.7819,1.7819,1.7826,1.7819,1.784,1.7739,1.7948,1.7894,1.79,1.794,1.8239,1.7887,1.7751,1.7677,1.7907,1.8016,1.8023,1.8172,1.8001,1.7775,1.7795,1.7802,1.8048,1.8423,1.8816,1.9226,1.9138,1.9128,1.94,1.9406,1.9488,1.9624,1.9657,1.9664,1.9664,1.9664,1.9664,1.9671,1.9712,1.3278,0.0,0.0,0.0,0.0,0.0,0.0,0.0,0.0,0.0,0.0,0.0,0.0,0.0,0.0,0.0,0.0,0.0,0.0,0.0,0.0,0.0,0.0,0.0,0.0,0.0,0.0,0.0,0.0,0.0,0.0,0.0,0.0,0.0,0.0,0.0,0.0,0.0,0.0,0.0,0.0,0.0,0.0,0.0,0.0,0.0,0.0,0.0,0.0,0.0,0.0,0.0,0.0,0.0,0.0,0.0,0.0,0.0,0.0,0.0,0.0,0.0,0.0,0.0,0.0,0.0,0.0,0.0,0.0,0.0,0.0,0.0,0.0,0.0,0.0,0.0,1.8131,1.8138,1.8131,1.8131,1.7914,1.7967,1.8186,1.8383,1.8027,1.8054,1.8465,1.8397,1.8328,1.8057,1.8179,1.8226,1.8233,1.8287,1.8314,1.8088,1.8088,1.8135,1.8457,1.8836,1.9268,1.9504,1.942,1.9359,1.9535,1.9569,1.9603,1.9657,1.9664,1.9664,1.9664,1.9664,1.9664,1.9664,1.9685,1.6965,1.1547,0.393,0.0,0.0,0.0,0.0,0.0,0.0,0.0,0.0,0.0,0.0,0.0,0.0,0.0,0.0,0.0,0.0,0.0,0.0,0.0,0.0,0.0,0.0,0.0,0.0,0.0,0.0,0.0,0.0,0.0,0.0,0.0,0.0,0.0,0.0,0.0,0.0,0.0,0.0,0.0,0.0,0.0,0.0,0.0,0.0,0.0,0.0,0.0,0.0,0.0,0.0,0.0,0.0,0.0,0.0,0.0,0.0,0.0,0.0,0.0,0.0,0.0,0.0,0.0,0.0,0.0,0.0,0.0,0.0,0.0,0.0,0.0,0.0,0.0,1.8321,1.8321,1.8321,1.8088,1.8088,1.8128,1.8355,1.8802,1.8403,1.8416,1.8851,1.8886,1.8678,1.8443,1.8437,1.8443,1.845,1.8525,1.8559,1.8559,1.8559,1.862,1.8728,1.9118,1.9539,1.9748,1.966,1.9549,1.9657,1.9664,1.9664,1.9664,1.9664,1.9664,1.9664,1.9664,1.9664,1.9664,1.9664,1.9691,1.8247,1.0323,0.3689,0.0,0.0,0.0,0.0,0.0,0.0,0.0,0.0,0.0,0.0,0.0,0.0,0.0,0.0,0.0,0.0,0.0,0.0,0.0,0.0,0.0,0.0,0.0,0.0,0.0,0.0,0.0,0.0,0.0,0.0,0.0,0.0,0.0,0.0,0.0,0.0,0.0,0.0,0.0,0.0,0.0,0.0,0.0,0.0,0.0,0.0,0.0,0.0,0.0,0.0,0.0,0.0,0.0,0.0,0.0,0.0,0.0,0.0,0.0,0.0,0.0,0.0,0.0,0.0,0.0,0.0,0.0,0.0,0.0,0.0,0.0,0.0,1.8321,1.8321,1.8321,1.8335,1.8328,1.8235,1.845,1.8837,1.8843,1.866,1.8788,1.8905,1.8742,1.8735,1.8749,1.8749,1.8776,1.8993,1.9094,1.8865,1.8872,1.8905,1.8939,1.9332,1.9653,1.9681,1.9563,1.9644,1.9664,1.9664,1.9664,1.9664,1.9664,1.9664,1.9671,1.9678,1.9664,1.9698,1.9698,1.9719,1.9535,1.8761,1.1804,0.0,0.0,0.0,0.0,0.0,0.0,0.0,0.0,0.0,0.0,0.0,0.0,0.0,0.0,0.0,0.0,0.0,0.0,0.0,0.0,0.0,0.0,0.0,0.0,0.0,0.0,0.0,0.0,0.0,0.0,0.0,0.0,0.0,0.0,0.0,0.0,0.0,0.0,0.0,0.0,0.0,0.0,0.0,0.0,0.0,0.0,0.0,0.0,0.0,0.0,0.0,0.0,0.0,0.0,0.0,0.0,0.0,0.0,0.0,0.0,0.0,0.0,0.0,0.0,0.0,0.0,0.0,0.0,0.0,0.0,0.0,0.0,1.8599,1.8606,1.8599,1.8599,1.8613,1.866,1.8654,1.885,1.8715,1.8735,1.8715,1.9077,1.8911,1.8918,1.9108,1.9081,1.8925,1.902,1.9108,1.8945,1.8959,1.925,1.9352,1.9653,1.9736,1.9825,1.9637,1.9664,1.9664,1.9664,1.9664,1.9664,1.9664,1.9705,1.978,1.9793,1.9841,1.9929,1.9942,1.9956,1.9469,1.5649,1.2626,1.2375,0.419,0.0,0.0,0.0,0.0,0.0,0.0,0.0,0.0,0.0,0.0,0.0,0.0,0.0,0.0,0.0,0.0,0.0,0.0,0.0,0.0,0.0,0.0,0.0,0.0,0.0,0.0,0.0,0.0,0.0,0.0,0.0,0.0,0.0,0.0,0.0,0.0,0.0,0.0,0.0,0.0,0.0,0.0,0.0,0.0,0.0,0.0,0.0,0.0,0.0,0.0,0.0,0.0,0.0,0.0,0.0,0.0,0.0,0.0,0.0,0.0,0.0,0.0,0.0,0.0,0.0,0.0,0.0,0.0,0.0,0.0,1.8762,1.8762,1.8762,1.8762,1.8762,1.8762,1.8762,1.8762,1.8762,1.8789,1.885,1.9186,1.9255,1.9081,1.9271,1.9291,1.9149,1.9183,1.9257,1.9345,1.9352,1.9406,1.9736,1.975,1.9805,1.9657,1.9712,1.9732,1.9739,1.978,1.98,1.9807,1.98,1.9602,1.9675,1.9942,2.0003,2.0092,2.0354,2.0105,1.9594,1.546,1.3915,1.5161,0.9863,0.4179,0.0,0.0,0.0,0.0,0.0,0.0,0.0,0.0,0.0,0.0,0.0,0.0,0.0,0.0,0.0,0.0,0.0,0.0,0.0,0.0,0.0,0.0,0.0,0.0,0.0,0.0,0.0,0.0,0.0,0.0,0.0,0.0,0.0,0.0,0.0,0.0,0.0,0.0,0.0,0.0,0.0,0.0,0.0,0.0,0.0,0.0,0.0,0.0,0.0,0.0,0.0,0.0,0.0,0.0,0.0,0.0,0.0,0.0,0.0,0.0,0.0,0.0,0.0,0.0,0.0,0.0,0.0,0.0,0.0,1.8776,1.8789,1.8769,1.8796,1.8803,1.8789,1.8769,1.8782,1.8776,1.8857,1.92,1.9248,1.9344,1.9189,1.9264,1.9305,1.942,1.9535,1.9596,1.9617,1.9624,1.963,1.9644,1.9637,1.9644,1.9664,1.98,1.9861,1.9861,1.9729,1.9803,1.9823,1.9803,1.9809,1.9843,2.0105,2.0368,2.0402,2.0409,2.0409,2.0146,1.926,1.667,1.2674,1.5574,1.2793,0.0,0.0,0.0,0.0,0.0,0.0,0.0,0.0,0.0,0.0,0.0,0.0,0.0,0.0,0.0,0.0,0.0,0.0,0.0,0.0,0.0,0.0,0.0,0.0,0.0,0.0,0.0,0.0,0.0,0.0,0.0,0.0,0.0,0.0,0.0,0.0,0.0,0.0,0.0,0.0,0.0,0.0,0.0,0.0,0.0,0.0,0.0,0.0,0.0,0.0,0.0,0.0,0.0,0.0,0.0,0.0,0.0,0.0,0.0,0.0,0.0,0.0,0.0,0.0,0.0,0.0,0.0,0.0,0.0,1.9061,1.9061,1.9067,1.9067,1.9047,1.8959,1.8684,1.8911,1.8684,1.8945,1.9262,1.9447,1.9564,1.9379,1.9468,1.9542,1.959,1.9644,1.9664,1.9664,1.9664,1.9664,1.9664,1.9664,1.9664,1.9685,1.9807,1.9875,1.9908,2.0031,2.0098,2.0098,2.0105,2.0159,2.0254,2.0519,2.0553,2.0397,2.041,2.0417,2.0417,2.0302,1.9155,1.7524,1.8688,1.7334,1.3527,0.4904,0.0,0.0,0.0,0.0,0.0,0.0,0.0,0.0,0.0,0.0,0.0,0.0,0.0,0.0,0.0,0.0,0.0,0.0,0.0,0.0,0.0,0.0,0.0,0.0,0.0,0.0,0.0,0.0,0.0,0.0,0.0,0.0,0.0,0.0,0.0,0.0,0.0,0.0,0.0,0.0,0.0,0.0,0.0,0.0,0.0,0.0,0.0,0.0,0.0,0.0,0.0,0.0,0.0,0.0,0.0,0.0,0.0,0.0,0.0,0.0,0.0,0.0,0.0,0.0,0.0,0.0,0.0,1.9203,1.9203,1.9203,1.9203,1.9196,1.9094,1.8831,1.8825,1.8825,1.9094,1.9434,1.9592,1.9715,1.9529,1.9624,1.9664,1.9664,1.9664,1.9664,1.9664,1.9664,1.9664,1.9664,1.9664,1.9698,1.9759,1.9888,1.999,2.0051,2.0187,2.0268,2.0268,2.0519,2.0567,2.0404,2.041,2.0465,2.0532,2.0532,2.0539,2.0519,2.0431,2.0315,2.018,1.9769,1.9635,1.9032,1.1535,0.7353,0.7373,0.7378,0.6373,0.39,0.0,0.0973,0.2908,0.0,0.0,0.0,0.0,0.0,0.0,0.4423,0.0,0.0,0.0,0.0,0.0,0.0,0.0,0.0,0.0,0.0,0.0,0.0,0.0,0.0,0.0,0.0,0.0,0.0,0.0,0.0,0.0,0.0,0.0,0.0,0.0,0.0,0.0,0.0,0.0,0.0,0.0,0.0,0.0,0.0,0.0,0.0,0.0,0.0,0.0,0.0,0.0,0.0,0.0,0.0,0.0,0.0,0.0,0.0,0.0,0.0,0.0,0.0,1.923,1.923,1.923,1.925,1.925,1.9223,1.9217,1.8965,1.8965,1.9284,1.964,1.9695,1.9777,1.9637,1.9657,1.9664,1.9664,1.9664,1.9664,1.9671,1.9678,1.9691,1.9698,1.9698,1.9766,2.0148,2.0044,2.018,2.0282,2.0424,2.0539,2.0505,2.0499,2.0532,2.0519,2.0532,2.0526,2.0539,2.0539,2.0539,2.0532,2.0424,2.0336,2.0309,2.0078,1.9669,1.9343,1.8234,1.8459,1.9283,1.8039,1.5244,1.0476,0.4377,0.5109,0.8996,0.3891,0.0,0.0,0.0,0.0,0.0,1.2054,1.9555,1.6796,0.0,0.0,0.0,0.0,0.0,0.0,0.0,0.0,0.0,0.0,0.0,0.0,0.0,0.0,0.0,0.0,0.0,0.0,0.0,0.0,0.0,0.0,0.0,0.0,0.0,0.0,0.0,0.0,0.0,0.0,0.0,0.0,0.0,0.0,0.0,0.0,0.0,0.0,0.0,0.0,0.0,0.0,0.0,0.0,0.0,0.0,0.0,0.0,0.0,0.0,1.9542,1.9542,1.9542,1.9542,1.9522,1.9667,1.9619,1.9373,1.9373,1.964,1.9701,1.9805,1.9617,1.9657,1.9664,1.9664,1.9671,1.9671,1.9664,1.9678,1.9773,1.9807,1.9813,1.982,2.0148,2.0044,2.0187,2.0295,2.0336,2.0471,2.0539,2.0539,2.0539,2.0539,2.0539,2.0539,2.0539,2.0539,2.0539,2.0539,2.0532,2.0505,2.0431,2.0329,2.0248,2.0085,1.9642,1.9732,1.9685,1.9746,1.978,1.9032,1.6727,1.474,1.2509,1.0527,1.3006,1.4261,1.4031,1.4031,1.4281,1.4536,1.7029,1.9555,1.9555,1.679,1.2062,0.8848,0.7128,0.5411,0.0,0.0,0.0,0.0,0.0,0.0,0.0,0.0,0.0,0.0,0.0,0.0,0.0,0.0,0.0,0.0,0.0,0.0,0.0,0.0,0.0,0.0,0.0,0.0,0.0,0.0,0.0,0.0,0.0,0.0,0.0,0.0,0.0,0.0,0.0,0.0,0.0,0.0,0.0,0.0,0.0,0.0,0.0,0.0,0.0,1.9664,1.9664,1.9664,1.9664,1.9651,1.9811,1.9777,1.9777,1.9777,1.9777,1.9798,1.9617,1.9664,1.9664,1.9664,1.9705,1.9746,1.9752,1.9786,1.9861,1.9936,1.9969,1.9963,1.9969,2.0306,2.0193,2.0288,2.0356,2.0424,2.0505,2.0532,2.0539,2.0539,2.0539,2.0539,2.0539,2.0539,2.0539,2.0539,2.0539,2.0539,2.0539,2.0505,2.0417,2.037,2.0187,1.9902,1.9739,1.9678,1.9698,1.9725,1.9739,1.9746,1.9759,1.7752,1.4247,1.7745,1.9515,1.9746,1.9739,1.9739,1.9495,1.9739,1.9739,1.9739,1.9752,1.7262,1.4761,1.4031,1.2058,0.836,0.3687,0.0,0.0,0.0,0.0,0.0,0.0,0.0,0.0,0.0,0.0,0.0,0.0,0.0,0.0,0.0,0.0,0.0,0.0,0.0,0.0,0.0,0.0,0.0,0.0,0.0,0.0,0.0,0.0,0.0,0.0,0.0,0.0,0.0,0.0,0.0,0.0,0.0,0.0,0.0,0.0,0.0,0.0,0.0,1.9664,1.9664,1.9664,1.9664,1.9664,1.9664,1.9651,1.9657,1.9651,1.9651,1.9657,1.9657,1.9678,1.9678,1.9712,1.9766,1.9895,1.9902,1.9742,1.9816,2.0126,2.0139,1.9917,2.0139,2.0471,2.0336,2.0356,2.0424,2.0492,2.0532,2.0539,2.0539,2.0539,2.0539,2.0539,2.0539,2.0539,2.0539,2.0539,2.0539,2.0539,2.0539,2.0526,2.0499,2.0601,2.018,1.9936,1.9759,1.9664,1.9664,1.9664,1.9671,1.9671,1.9705,1.9454,1.9184,1.9204,1.9705,1.9678,1.9678,1.9671,1.9678,1.9671,1.9664,1.9678,1.9705,1.9224,1.8472,1.9515,1.8517,1.6784,0.8606,0.0,0.0,0.0,0.0,0.0,0.0,0.0,0.0,0.0,0.0,0.0,0.0,0.0,0.0,0.0,0.0,0.0,0.0,0.0,0.0,0.0,0.0,0.0,0.0,0.0,0.0,0.0,0.0,0.0,0.0,0.0,0.0,0.0,0.0,0.0,0.0,0.0,0.0,0.0,0.0,0.0,0.0,0.0,1.9664,1.9664,1.9664,1.9664,1.9664,1.9664,1.9664,1.9664,1.9664,1.9664,1.9664,1.9664,1.9725,1.982,1.9827,1.9908,2.0044,2.0064,2.0132,2.0004,2.0282,2.0356,2.039,2.0587,2.0622,2.0458,2.0492,2.0512,2.0532,2.0539,2.0539,2.0539,2.0539,2.0539,2.0539,2.0539,2.0539,2.0539,2.0539,2.0539,2.0539,2.0539,2.0539,2.0519,2.056,2.0146,1.9769,1.9793,1.9671,1.9664,1.9664,1.9664,1.9664,1.9671,1.9678,1.9671,1.9671,1.9671,1.9664,1.9664,1.9664,1.9664,1.9664,1.9664,1.9664,1.9671,1.9678,1.9678,1.9685,1.9712,1.9237,1.7274,1.0582,0.0,0.0,0.0,0.0,0.0,0.0,0.0,0.0,0.0,0.0,0.0,0.0,0.0,0.0,0.0,0.0,0.0,0.0,0.0,0.0,0.0,0.0,0.0,0.0,0.0,0.0,0.0,0.0,0.0,0.0,0.0,0.0,0.0,0.0,0.0,0.0,0.0,0.0,0.0,0.0,0.0,0.0,1.9664,1.9664,1.9664,1.9664,1.9664,1.9664,1.9664,1.9664,1.9664,1.9664,1.9678,1.9725,1.9807,1.9881,1.9949,2.0064,2.02,2.0282,2.0349,2.0417,2.0431,2.0471,2.0512,2.0478,2.0478,2.0539,2.0539,2.0539,2.0539,2.0539,2.0539,2.0539,2.0539,2.0539,2.0539,2.0539,2.0539,2.0539,2.0539,2.0539,2.0539,2.0539,2.0539,2.0505,2.058,2.0187,1.983,1.9635,1.9739,1.9678,1.9664,1.9664,1.9664,1.9664,1.9664,1.9664,1.9664,1.9664,1.9664,1.9664,1.9664,1.9664,1.9664,1.9664,1.9664,1.9664,1.9664,1.9664,1.9664,1.9671,1.9698,1.9488,1.4776,1.0582,0.344,0.0,0.0,0.0,0.0,0.0,0.0,0.0,0.0,0.0,0.0,0.0,0.0,0.0,0.0,0.0,0.0,0.0,0.0,0.0,0.0,0.0,0.0,0.0,0.0,0.0,0.0,0.0,0.0,0.0,0.0,0.0,0.0,0.0,0.0,0.0,0.0,0.0,0.0,0.0,0.0,1.9664,1.9664,1.9664,1.9664,1.9664,1.9664,1.9664,1.9664,1.9664,1.9664,1.9691,2.0059,2.0127,1.9942,2.0078,2.022,2.0356,2.0451,2.0505,2.0512,2.0512,2.0526,2.0532,2.0526,2.0526,2.0539,2.0539,2.0539,2.0539,2.0539,2.0539,2.0539,2.0539,2.0539,2.0539,2.0539,2.0539,2.0539,2.0539,2.0539,2.0539,2.0539,2.0539,2.0512,2.0397,2.0241,1.985,1.9689,1.98,1.9678,1.9664,1.9664,1.9664,1.9664,1.9664,1.9664,1.9664,1.9664,1.9664,1.9664,1.9664,1.9664,1.9664,1.9664,1.9664,1.9664,1.9664,1.9664,1.9664,1.9664,1.9664,1.9691,1.9739,1.6517,0.7619,0.0,0.0,0.0,0.0,0.0,0.0,0.0,0.0,0.0,0.0,0.0,0.0,0.0,0.0,0.0,0.0,0.0,0.0,0.0,0.0,0.0,0.0,0.0,0.0,0.0,0.0,0.0,0.0,0.0,0.0,0.0,0.0,0.0,0.0,0.0,0.0,0.0,0.0,0.0,0.0,1.9664,1.9664,1.9664,1.9664,1.9664,1.9664,1.9671,1.9664,1.9678,1.9664,1.9691,2.0065,2.0203,2.0071,2.022,2.037,2.0478,2.0526,2.0539,2.0539,2.0539,2.0539,2.0539,2.0539,2.0539,2.0539,2.0539,2.0539,2.0539,2.0539,2.0539,2.0539,2.0539,2.0539,2.0539,2.0539,2.0539,2.0539,2.0539,2.0539,2.0539,2.0539,2.0539,2.0532,2.0417,2.0532,2.0368,1.9963,1.9807,1.9685,1.9664,1.9664,1.9664,1.9664,1.9664,1.9664,1.9664,1.9664,1.9664,1.9664,1.9664,1.9664,1.9664,1.9664,1.9664,1.9664,1.9664,1.9664,1.9664,1.9664,1.9664,1.9678,1.9698,1.6482,0.0,0.0,0.0,0.0,0.0,0.0,0.0,0.0,0.0,0.0,0.0,0.0,0.0,0.0,0.0,0.0,0.0,0.0,0.0,0.0,0.0,0.0,0.0,0.0,0.0,0.0,0.0,0.0,0.0,0.0,0.0,0.0,0.0,0.0,0.0,0.0,0.0,0.0,0.0,0.0,0.0,1.9664,1.9664,1.9664,1.9664,1.9678,1.9746,1.9766,1.9766,1.9773,1.9813,1.9888,1.9969,2.0078,2.0227,2.037,2.0478,2.0526,2.0539,2.0539,2.0539,2.0539,2.0539,2.0539,2.0539,2.0539,2.0539,2.0539,2.0539,2.0539,2.0539,2.0539,2.0539,2.0539,2.0539,2.0539,2.0539,2.0539,2.0539,2.0539,2.0539,2.0539,2.0539,2.0539,2.0512,2.0471,2.0629,2.0477,2.0071,1.9669,1.9793,1.9698,1.9671,1.9664,1.9664,1.9664,1.9664,1.9664,1.9664,1.9664,1.9664,1.9664,1.9664,1.9664,1.9664,1.9664,1.9664,1.9664,1.9664,1.9664,1.9664,1.9664,1.9664,1.9685,1.8723,1.3273,0.712,0.0,0.0,0.0,0.0,0.0,0.0,0.0,0.0,0.0,0.0,0.0,0.0,0.0,0.0,0.0,0.0,0.0,0.0,0.0,0.0,0.0,0.0,0.0,0.0,0.0,0.0,0.0,0.0,0.0,0.0,0.0,0.0,0.0,0.0,0.0,0.0,0.0,0.0,0.0,1.9664,1.9664,1.9664,1.9678,1.9719,1.982,1.9642,1.9669,1.9915,1.9976,2.0092,2.0139,2.0214,2.0336,2.0458,2.0539,2.0539,2.0539,2.0539,2.0539,2.0539,2.0539,2.0539,2.0539,2.0539,2.0539,2.0539,2.0539,2.0539,2.0539,2.0539,2.0539,2.0539,2.0539,2.0539,2.0539,2.0539,2.0539,2.0539,2.0539,2.0539,2.0539,2.0539,2.0539,2.0539,2.0471,2.0567,2.0214,1.9789,1.9888,1.9773,1.9691,1.9671,1.9664,1.9664,1.9664,1.9664,1.9664,1.9664,1.9664,1.9664,1.9664,1.9664,1.9664,1.9664,1.9664,1.9664,1.9664,1.9664,1.9664,1.9664,1.9664,1.9678,1.9705,1.8748,1.5537,0.6146,0.0,0.0,0.0,0.0,0.0,0.0,0.0,0.0,0.0,0.0,0.0,0.0,0.0,0.0,0.0,0.0,0.0,0.0,0.0,0.0,0.0,0.0,0.0,0.0,0.0,0.0,0.0,0.0,0.0,0.0,0.0,0.0,0.0,0.0,0.0,0.0,0.0,0.0,1.9664,1.9664,1.9671,1.9732,1.9841,1.9875,1.9956,2.0071,2.0326,2.0333,2.0146,2.0241,2.0309,2.037,2.0478,2.0532,2.0539,2.0539,2.0539,2.0539,2.0539,2.0539,2.0539,2.0539,2.0539,2.0539,2.0539,2.0539,2.0539,2.0539,2.0539,2.0539,2.0539,2.0539,2.0539,2.0539,2.0539,2.0539,2.0539,2.0539,2.0539,2.0539,2.0539,2.0539,2.0532,2.0485,2.0629,2.0295,2.0159,1.9669,1.9615,1.978,1.9691,1.9664,1.9664,1.9664,1.9664,1.9664,1.9664,1.9664,1.9664,1.9664,1.9664,1.9664,1.9664,1.9664,1.9664,1.9664,1.9664,1.9664,1.9664,1.9664,1.9671,1.9691,1.9474,1.6261,0.0,0.0,0.0,0.0,0.0,0.0,0.0,0.0,0.0,0.0,0.0,0.0,0.0,0.0,0.0,0.0,0.0,0.0,0.0,0.0,0.0,0.0,0.0,0.0,0.0,0.0,0.0,0.0,0.0,0.0,0.0,0.0,0.0,0.0,0.0,0.0,0.0,0.0,0.0,1.978,1.9786,1.9875,1.9942,2.001,1.9836,1.9917,2.022,2.0484,2.0532,2.0336,2.0322,2.0376,2.0451,2.0519,2.0539,2.0539,2.0539,2.0539,2.0539,2.0539,2.0539,2.0539,2.0539,2.0539,2.0539,2.0539,2.0539,2.0539,2.0539,2.0539,2.0546,2.0539,2.0539,2.0553,2.0539,2.0539,2.0539,2.0539,2.0539,2.0539,2.0539,2.0539,2.0539,2.0539,2.0499,2.0451,2.0608,2.0234,1.9763,1.9682,1.98,1.9698,1.9664,1.9664,1.9664,1.9664,1.9664,1.9664,1.9664,1.9664,1.9664,1.9664,1.9664,1.9664,1.9664,1.9664,1.9664,1.9664,1.9664,1.9664,1.9664,1.9664,1.9678,1.9712,1.7752,0.0,0.0,0.0,0.0,0.0,0.0,0.0,0.0,0.0,0.0,0.0,0.0,0.0,0.0,0.0,0.0,0.0,0.0,0.0,0.0,0.0,0.0,0.0,0.0,0.0,0.0,0.0,0.0,0.0,0.0,0.0,0.0,0.0,0.0,0.0,0.0,0.0,0.0,0.0,1.9956,1.9997,2.0071,2.0126,2.0166,2.0031,2.0091,2.0124,2.0383,2.0444,2.0492,2.0438,2.0451,2.0519,2.0539,2.0539,2.0539,2.0539,2.0539,2.0539,2.0539,2.0539,2.0539,2.0539,2.0539,2.0539,2.0539,2.0539,2.0553,2.058,2.0614,2.0594,2.056,2.0573,2.0587,2.056,2.0539,2.0539,2.0539,2.0539,2.0539,2.0539,2.0539,2.0539,2.0539,2.0539,2.0526,2.0458,2.0315,1.9843,1.9749,1.9622,1.9705,1.9664,1.9664,1.9664,1.9664,1.9664,1.9664,1.9664,1.9664,1.9664,1.9664,1.9664,1.9664,1.9664,1.9664,1.9664,1.9664,1.9664,1.9664,1.9664,1.9664,1.9685,1.9712,1.8755,0.0,0.0,0.0,0.0,0.0,0.0,0.0,0.0,0.0,0.0,0.0,0.0,0.0,0.0,0.0,0.0,0.0,0.0,0.0,0.0,0.0,0.0,0.0,0.0,0.0,0.0,0.0,0.0,0.0,0.0,0.0,0.0,0.0,0.0,0.0,0.0,0.0,0.0,0.0,2.0166,2.0288,2.0159,2.0193,2.0315,2.0064,2.0151,2.0499,2.0512,2.0519,2.0539,2.0526,2.0519,2.0539,2.0539,2.0539,2.0539,2.0539,2.0539,2.0539,2.0539,2.0539,2.0539,2.0539,2.0546,2.056,2.058,2.0566,2.0587,2.0722,2.0743,2.0486,2.0682,2.0419,2.0412,2.0386,2.0566,2.0546,2.0539,2.0539,2.0539,2.0539,2.0539,2.0539,2.0539,2.0539,2.0539,2.0512,2.037,1.987,1.9809,1.9662,1.9719,1.9671,1.9664,1.9664,1.9664,1.9664,1.9664,1.9664,1.9664,1.9664,1.9664,1.9664,1.9664,1.9664,1.9664,1.9664,1.9664,1.9664,1.9664,1.9664,1.9664,1.9671,1.9448,1.799,1.4027,0.0,0.0,0.0,0.0,0.0,0.0,0.0,0.0,0.0,0.0,0.0,0.0,0.0,0.0,0.0,0.0,0.0,0.0,0.0,0.0,0.0,0.0,0.0,0.0,0.0,0.0,0.0,0.0,0.0,0.0,0.0,0.0,0.0,0.0,0.0,0.0,0.0,0.0,2.0322,2.0451,2.0397,2.0404,2.0458,2.0458,2.0485,2.0532,2.0539,2.0539,2.0539,2.0539,2.0539,2.0539,2.0539,2.0539,2.0539,2.0539,2.0539,2.0539,2.0539,2.0539,2.0539,2.056,2.0587,2.0661,2.0682,2.075,2.0845,2.0885,2.0967,2.07,2.0878,2.0607,2.0587,2.0486,2.0379,2.0553,2.0539,2.0539,2.0539,2.0539,2.0539,2.0539,2.0539,2.0539,2.0539,2.0539,2.0363,2.0187,1.9856,1.9675,1.9725,1.9685,1.9664,1.9664,1.9664,1.9664,1.9664,1.9664,1.9664,1.9664,1.9664,1.9664,1.9664,1.9664,1.9664,1.9664,1.9664,1.9664,1.9664,1.9664,1.9664,1.9671,1.894,1.7721,1.3273,0.5888,0.0,0.0,0.0,0.0,0.0,0.0,0.0,0.0,0.0,0.0,0.0,0.0,0.0,0.0,0.0,0.0,0.0,0.0,0.0,0.0,0.0,0.0,0.0,0.0,0.0,0.0,0.0,0.0,0.0,0.0,0.0,0.0,0.0,0.0,0.0,0.0,0.0,2.041,2.0532,2.0539,2.0539,2.0539,2.0539,2.0539,2.0539,2.0539,2.0539,2.0539,2.0539,2.0539,2.0539,2.0539,2.0539,2.0539,2.0539,2.0539,2.0539,2.0539,2.0539,2.0553,2.06,2.0682,2.1034,2.0845,2.0899,2.0967,2.1034,2.1095,2.1136,2.1163,2.0855,2.0747,2.06,2.0432,2.0573,2.0539,2.0539,2.0539,2.0539,2.0539,2.0539,2.0539,2.0539,2.0539,2.0526,2.0424,2.0248,2.0112,1.9716,1.9807,1.9691,1.9671,1.9664,1.9664,1.9664,1.9664,1.9664,1.9664,1.9664,1.9664,1.9664,1.9664,1.9664,1.9664,1.9664,1.9664,1.9664,1.9671,1.9664,1.9664,1.9664,1.9671,1.8209,1.4516,0.0,0.0,0.0,0.0,0.0,0.0,0.0,0.0,0.0,0.0,0.0,0.0,0.0,0.0,0.0,0.0,0.0,0.0,0.0,0.0,0.0,0.0,0.0,0.0,0.0,0.0,0.0,0.0,0.0,0.0,0.0,0.0,0.0,0.0,0.0,0.0,0.0,0.0,2.0417,2.0532,2.0539,2.0539,2.0539,2.0539,2.0539,2.0539,2.0539,2.0539,2.0539,2.0539,2.0539,2.0539,2.0539,2.0539,2.0539,2.0539,2.0539,2.0539,2.0539,2.0539,2.06,2.0682,2.1034,2.1068,2.0919,2.1014,2.1048,2.1163,2.1218,2.1218,2.1245,2.1252,2.1177,2.0912,2.0439,2.056,2.0546,2.0539,2.0539,2.0539,2.0539,2.0539,2.0539,2.0539,2.0539,2.0539,2.0438,2.0519,2.0146,1.9749,1.982,1.9705,1.9664,1.9664,1.9664,1.9664,1.9664,1.9664,1.9664,1.9664,1.9664,1.9664,1.9664,1.9664,1.9685,1.9705,1.9691,1.9691,1.9678,1.9691,1.9712,1.9732,1.9752,1.9038,1.5334,0.0,0.0,0.0,0.0,0.0,0.0,0.0,0.0,0.0,0.0,0.0,0.0,0.0,0.0,0.0,0.0,0.0,0.0,0.0,0.0,0.0,0.0,0.0,0.0,0.0,0.0,0.0,0.0,0.0,0.0,0.0,0.0,0.0,0.0,0.0,0.0,0.0,0.0,2.0499,2.0539,2.0539,2.0539,2.0539,2.0539,2.0539,2.0539,2.0539,2.0539,2.0539,2.0539,2.0539,2.0539,2.0539,2.0539,2.0539,2.0539,2.0539,2.0539,2.0539,2.0614,2.0682,2.075,2.1137,2.1295,2.1136,2.1204,2.1306,2.1333,2.1279,2.1258,2.1197,2.1384,2.1302,2.0858,2.0432,2.0566,2.0539,2.0539,2.0539,2.0539,2.0539,2.0539,2.0539,2.0539,2.0539,2.0539,2.0438,2.0505,2.0126,1.9742,1.9807,1.9678,1.9664,1.9664,1.9664,1.9664,1.9664,1.9664,1.9664,1.9664,1.9664,1.9664,1.9664,1.9664,1.9705,1.9773,1.9793,1.9834,1.9682,1.9696,1.9716,1.9976,1.9997,2.0044,0.0,0.0,0.0,0.0,0.0,0.0,0.0,0.0,0.0,0.0,0.0,0.0,0.0,0.0,0.0,0.0,0.0,0.0,0.0,0.0,0.0,0.0,0.0,0.0,0.0,0.0,0.0,0.0,0.0,0.0,0.0,0.0,0.0,0.0,0.0,0.0,0.0,0.0,0.0,2.0539,2.0539,2.0539,2.0539,2.0539,2.0539,2.0539,2.0539,2.0539,2.0539,2.0539,2.0539,2.0539,2.0539,2.0539,2.0539,2.0539,2.0539,2.0539,2.0539,2.0539,2.0587,2.0668,2.0804,2.1205,2.1398,2.1265,2.1346,2.1408,2.1428,2.1387,2.1279,2.1095,2.1041,2.096,2.0587,2.0432,2.058,2.0539,2.0539,2.0539,2.0539,2.0539,2.0539,2.0539,2.0539,2.0539,2.0499,2.0431,2.0491,2.0098,1.9983,1.98,1.9685,1.9671,1.9664,1.9664,1.9664,1.9664,1.9664,1.9664,1.9664,1.9664,1.9664,1.9678,1.9719,1.978,1.9847,1.9915,1.9749,1.983,1.9856,2.0119,2.0374,2.0139,2.0173,0.0,0.0,0.0,0.0,0.0,0.0,0.0,0.0,0.0,0.0,0.0,0.0,0.0,0.0,0.0,0.0,0.0,0.0,0.0,0.0,0.0,0.0,0.0,0.0,0.0,0.0,0.0,0.0,0.0,0.0,0.0,0.0,0.0,0.0,0.0,0.0,0.0,0.0,0.0,2.0539,2.0539,2.0539,2.0539,2.0539,2.0539,2.0539,2.0539,2.0539,2.0539,2.0539,2.0539,2.0539,2.0539,2.0539,2.0539,2.0539,2.0539,2.0539,2.0539,2.0539,2.0566,2.0668,2.1089,2.1233,2.137,2.1238,2.136,2.1428,2.1394,2.1387,2.1062,2.1075,2.0721,2.064,2.054,2.0406,2.0566,2.0539,2.0539,2.0539,2.0539,2.0539,2.0539,2.0539,2.0539,2.0539,2.0526,2.0438,2.0302,1.991,1.9763,1.9622,1.9732,1.9685,1.9664,1.9664,1.9664,1.9664,1.9664,1.9664,1.9664,1.9685,1.9671,1.9712,1.9793,1.9868,1.9969,2.0058,2.0098,1.9897,2.0166,2.0436,2.0436,2.0429,1.993,1.9155,0.0,0.0,0.0,0.0,0.0,0.0,0.0,0.0,0.0,0.0,0.0,0.0,0.0,0.0,0.0,0.0,0.0,0.0,0.0,0.0,0.0,0.0,0.0,0.0,0.0,0.0,0.0,0.0,0.0,0.0,0.0,0.0,0.0,0.0,0.0,0.0,0.0,0.0,2.0539,2.0539,2.0539,2.0539,2.0539,2.0539,2.0539,2.0539,2.0539,2.0539,2.0539,2.0539,2.0539,2.0539,2.0539,2.0539,2.0539,2.0539,2.0539,2.0539,2.0539,2.0607,2.0702,2.0811,2.0967,2.1116,2.1252,2.136,2.1394,2.136,2.1299,2.1224,2.1028,2.0906,2.0553,2.0426,2.0607,2.056,2.0539,2.0539,2.0539,2.0539,2.0539,2.0539,2.0539,2.0539,2.0539,2.0539,2.0431,2.0457,1.9883,1.9742,1.9732,1.9685,1.9664,1.9664,1.9664,1.9664,1.9664,1.9664,1.9664,1.9691,1.9746,1.9807,1.9834,1.9881,1.9736,2.0098,2.0207,2.0261,2.0302,2.0315,2.058,2.0587,2.056,2.0004,1.9469,1.7887,1.2549,0.902,0.5504,0.0,0.0,0.0,0.0,0.0,0.0,0.0,0.0,0.0,0.0,0.0,0.0,0.0,0.0,0.0,0.0,0.0,0.0,0.0,0.0,0.0,0.0,0.0,0.0,0.0,0.0,0.0,0.0,0.0,0.0,0.0,0.0,0.0,0.0,2.0539,2.0539,2.0539,2.0539,2.0539,2.0539,2.0539,2.0539,2.0539,2.0539,2.0539,2.0539,2.0539,2.0539,2.0539,2.0539,2.0539,2.0539,2.0539,2.0539,2.0539,2.058,2.0406,2.054,2.096,2.1116,2.1252,2.1374,2.1401,2.1374,2.1313,2.1299,2.1281,2.0899,2.0553,2.0432,2.056,2.0546,2.0539,2.0539,2.0539,2.0539,2.0539,2.0539,2.0539,2.0539,2.0539,2.0539,2.0383,2.0409,1.985,1.9702,1.9725,1.9664,1.9664,1.9664,1.9664,1.9664,1.9664,1.9664,1.9664,1.9698,1.98,2.0141,1.9983,2.0051,2.0159,2.0261,2.0356,2.0438,2.0465,2.0499,2.0512,2.0519,2.0438,2.0356,2.0295,1.9977,1.7137,1.3822,0.0,0.0,0.0,0.0,0.0,0.0,0.0,0.0,0.0,0.0,0.0,0.0,0.0,0.0,0.0,0.0,0.0,0.0,0.0,0.0,0.0,0.0,0.0,0.0,0.0,0.0,0.0,0.0,0.0,0.0,0.0,0.0,0.0,0.0,0.0,2.0539,2.0539,2.0539,2.0539,2.0539,2.0539,2.0539,2.0539,2.0539,2.0539,2.0539,2.0539,2.0539,2.0539,2.0539,2.0539,2.0539,2.0539,2.0539,2.0539,2.0539,2.056,2.0641,2.0804,2.0906,2.1062,2.1204,2.1319,2.1414,2.1408,2.1387,2.1408,2.1398,2.096,2.0607,2.0406,2.0546,2.0539,2.0539,2.0539,2.0539,2.0539,2.0539,2.0539,2.0539,2.0539,2.0539,2.0485,2.0397,2.0207,2.0037,1.9669,1.9759,1.9664,1.9664,1.9664,1.9664,1.9664,1.9664,1.9664,1.9685,1.9732,1.9807,2.0223,2.0098,2.018,2.0024,2.0091,2.0424,2.0465,2.0492,2.0397,2.0363,2.0376,2.0084,2.0241,2.0153,1.9823,1.8225,1.3948,0.0,0.0,0.0,0.0,0.0,0.0,0.0,0.0,0.0,0.0,0.0,0.0,0.0,0.0,0.0,0.0,0.0,0.0,0.0,0.0,0.0,0.0,0.0,0.0,0.0,0.0,0.0,0.0,0.0,0.0,0.0,0.0,0.0,0.0,0.0,2.0539,2.0539,2.0539,2.0539,2.0539,2.0539,2.0539,2.0539,2.0539,2.0539,2.0539,2.0539,2.0539,2.0539,2.0539,2.0539,2.0539,2.0539,2.0539,2.0539,2.0539,2.0539,2.0546,2.0668,2.0804,2.1226,2.137,2.1252,2.138,2.1414,2.1374,2.1265,2.1336,2.0967,2.0573,2.0621,2.0546,2.0539,2.0539,2.0539,2.0539,2.0539,2.0539,2.0539,2.0539,2.0539,2.0512,2.0438,2.056,2.0388,1.9983,1.9834,1.9678,1.9671,1.9664,1.9664,1.9664,1.9664,1.9671,1.9685,1.9725,1.9834,1.9949,2.0112,2.0227,2.0295,2.0098,2.0158,2.0205,2.0232,2.0438,2.0302,2.0457,2.0214,1.9943,2.0092,1.9997,1.9396,1.8787,1.3078,0.6173,0.0,0.0,0.0,0.0,0.0,0.0,0.0,0.0,0.0,0.0,0.0,0.0,0.0,0.0,0.0,0.0,0.0,0.0,0.0,0.0,0.0,0.0,0.0,0.0,0.0,0.0,0.0,0.0,0.0,0.0,0.0,0.0,0.0,0.0,2.0539,2.0539,2.0539,2.0539,2.0539,2.0539,2.0539,2.0539,2.0539,2.0539,2.0539,2.0539,2.0539,2.0539,2.0539,2.0539,2.0539,2.0539,2.0539,2.0539,2.0539,2.0539,2.0553,2.0594,2.0729,2.0892,2.1062,2.1211,2.1326,2.1401,2.1353,2.1411,2.1281,2.0912,2.0499,2.0627,2.0539,2.0539,2.0539,2.0539,2.0539,2.0539,2.0539,2.0539,2.0539,2.0539,2.0519,2.0444,2.0309,2.0105,1.9902,1.978,1.9678,1.9664,1.9664,1.9664,1.9664,1.9664,1.9678,1.9719,1.978,1.9902,2.0098,2.0254,2.0553,2.0356,2.0124,2.0178,2.0225,2.0512,2.0322,2.0166,2.0153,1.9903,1.9756,1.9847,1.9813,1.9515,1.923,1.7513,1.1583,0.0,0.0,0.0,0.0,0.0,0.0,0.0,0.0,0.0,0.0,0.0,0.0,0.0,0.0,0.0,0.0,0.0,0.0,0.0,0.0,0.0,0.0,0.0,0.0,0.0,0.0,0.0,0.0,0.0,0.0,0.0,0.0,0.0,0.0,2.0539,2.0539,2.0539,2.0539,2.0539,2.0539,2.0539,2.0539,2.0539,2.0539,2.0539,2.0539,2.0539,2.0539,2.0539,2.0539,2.0539,2.0539,2.0539,2.0539,2.0539,2.0539,2.058,2.0399,2.0473,2.0851,2.1021,2.1109,2.119,2.1252,2.1211,2.1288,2.0939,2.062,2.0486,2.0627,2.0539,2.0539,2.0539,2.0539,2.0539,2.0539,2.0539,2.0539,2.0539,2.0532,2.0519,2.0444,2.0315,2.0098,1.9827,1.9725,1.9671,1.9664,1.9664,1.9664,1.9664,1.9664,1.9685,1.978,1.9847,1.9969,2.02,2.0336,2.0376,2.041,2.0431,2.0424,2.0471,2.0424,2.0234,2.0078,1.9823,1.9789,1.9834,1.9685,1.9678,1.9671,1.9691,1.9725,1.6505,1.2307,0.0,0.0,0.0,0.0,0.0,0.0,0.0,0.0,0.0,0.0,0.0,0.0,0.0,0.0,0.0,0.0,0.0,0.0,0.0,0.0,0.0,0.0,0.0,0.0,0.0,0.0,0.0,0.0,0.0,0.0,0.0,0.0,0.0,2.0539,2.0539,2.0539,2.0539,2.0539,2.0539,2.0539,2.0539,2.0539,2.0539,2.0539,2.0539,2.0539,2.0539,2.0539,2.0539,2.0546,2.0546,2.0546,2.0539,2.0566,2.0553,2.0553,2.06,2.0406,2.054,2.0939,2.1014,2.1055,2.1075,2.1267,2.1353,2.0824,2.0486,2.0614,2.0539,2.0539,2.0539,2.0539,2.0539,2.0539,2.0539,2.0539,2.0539,2.0539,2.0471,2.0383,2.0505,2.0354,2.0175,2.0024,1.9691,1.9664,1.9664,1.9664,1.9671,1.9671,1.9691,1.9739,1.9861,1.9949,2.032,2.0275,2.0397,2.0444,2.0492,2.0465,2.0363,2.0376,2.0356,2.02,2.0003,1.9696,1.9888,1.9752,1.9698,1.9664,1.9664,1.9678,1.9705,1.8735,1.2535,0.0,0.0,0.0,0.0,0.0,0.0,0.0,0.0,0.0,0.0,0.0,0.0,0.0,0.0,0.0,0.0,0.0,0.0,0.0,0.0,0.0,0.0,0.0,0.0,0.0,0.0,0.0,0.0,0.0,0.0,0.0,0.0,0.0]}]]